[[{"header":{"parameterUnit":"m.s-1","parameterCategory":1,"la1":30.6,"la2":28.766,"lo1":-90.7593,"lo2":-88.6598,"dx":0.0162,"dy":0.0183,"nx":116,"ny":114,"refTime":"2022-11-15T18:00:00:Z","depth":0,"parameterNumber":2,"parameterNumberName":"U-component_of_WINDS"},"data":[0.0,0.0,0.0,0.0,0.0,0.0,0.0,0.0,0.0,0.0,0.0,0.0,0.0,0.0,0.0,0.0,0.0,0.0,0.0,0.0,0.0,0.0,0.0,0.0,0.0,0.0,0.0,0.0,0.0,0.0,0.0,0.0,0.0,0.0,0.0,0.0,0.0,0.0,0.0,0.0,0.0,0.0,0.0,0.0,0.0,0.0,0.0,0.0,0.0,0.0,0.0,0.0,0.0,0.0,0.0,0.0,0.0,0.0,0.0,0.0,0.0,0.0,0.0,0.0,0.0,0.0,0.0,0.0,0.0,0.0,0.0,0.0,0.0,0.0,0.0,0.0,0.0,0.0,0.0,0.0,0.0,0.0,0.0,0.0,0.0,0.0,0.0,0.0,0.0,0.0,0.0,0.0,0.0,0.0,0.0,0.0,0.0,0.0,0.0,0.0,0.0,0.0,0.0,0.0,0.0,0.0,0.0,0.0,0.0,0.0,0.0,0.0,0.0,0.0,0.0,0.0,0.0,0.0,0.0,0.0,0.0,0.0,0.0,0.0,0.0,0.0,0.0,0.0,0.0,0.0,0.0,0.0,0.0,0.0,0.0,0.0,0.0,0.0,0.0,0.0,0.0,0.0,0.0,0.0,0.0,0.0,0.0,0.0,0.0,0.0,0.0,0.0,0.0,0.0,0.0,0.0,0.0,0.0,0.0,0.0,0.0,0.0,0.0,0.0,0.0,0.0,0.0,0.0,0.0,0.0,0.0,0.0,0.0,0.0,0.0,0.0,0.0,0.0,0.0,0.0,0.0,0.0,0.0,0.0,0.0,0.0,0.0,0.0,0.0,0.0,0.0,0.0,0.0,0.0,0.0,0.0,0.0,0.0,0.0,0.0,0.0,0.0,0.0,0.0,0.0,0.0,0.0,0.0,0.0,0.0,0.0,0.0,0.0,0.0,0.0,0.0,0.0,0.0,0.0,0.0,0.0,0.0,0.0,0.0,0.0,0.0,0.0,0.0,0.0,0.0,0.0,0.0,0.0,0.0,0.0,0.0,0.0,0.0,0.0,0.0,0.0,0.0,0.0,0.0,0.0,0.0,0.0,0.0,0.0,0.0,0.0,0.0,0.0,0.0,0.0,0.0,0.0,0.0,0.0,0.0,0.0,0.0,0.0,0.0,0.0,0.0,0.0,0.0,0.0,0.0,0.0,0.0,0.0,0.0,0.0,0.0,0.0,0.0,0.0,0.0,0.0,0.0,0.0,0.0,0.0,0.0,0.0,0.0,0.0,0.0,0.0,0.0,0.0,0.0,0.0,0.0,0.0,0.0,0.0,0.0,0.0,0.0,0.0,0.0,0.0,0.0,0.0,0.0,0.0,0.0,0.0,0.0,0.0,0.0,0.0,0.0,0.0,0.0,0.0,0.0,0.0,0.0,0.0,0.0,0.0,0.0,0.0,0.0,0.0,0.0,0.0,0.0,0.0,0.0,0.0,0.0,0.0,0.0,0.0,0.0,0.0,0.0,0.0,0.0,0.0,0.0,0.0,0.0,0.0,0.0,0.0,0.0,0.0,0.0,0.0,0.0,0.0,0.0,0.0,0.0,0.0,0.0,0.0,0.0,0.0,0.0,0.0,0.0,0.0,0.0,0.0,0.0,0.0,0.0,0.0,0.0,0.0,0.0,0.0,0.0,0.0,0.0,0.0,0.0,0.0,0.0,0.0,0.0,0.0,0.0,0.0,0.0,0.0,0.0,0.0,0.0,0.0,0.0,0.0,0.0,0.0,0.0,0.0,0.0,0.0,0.0,0.0,0.0,0.0,0.0,0.0,0.0,0.0,0.0,0.0,0.0,0.0,0.0,0.0,0.0,0.0,0.0,0.0,0.0,0.0,0.0,0.0,0.0,0.0,0.0,0.0,0.0,0.0,0.0,0.0,0.0,0.0,0.0,0.0,0.0,0.0,0.0,0.0,0.0,0.0,0.0,0.0,0.0,0.0,0.0,0.0,0.0,0.0,0.0,0.0,0.0,0.0,0.0,0.0,0.0,0.0,0.0,0.0,0.0,0.0,0.0,0.0,0.0,0.0,0.0,0.0,0.0,0.0,0.0,0.0,0.0,0.0,0.0,0.0,0.0,0.0,0.0,0.0,0.0,0.0,0.0,0.0,0.0,0.0,0.0,0.0,0.0,0.0,0.0,0.0,0.0,0.0,0.0,0.0,0.0,0.0,0.0,0.0,0.0,0.0,0.0,0.0,0.0,0.0,0.0,0.0,0.0,0.0,0.0,0.0,0.0,0.0,0.0,0.0,0.0,0.0,0.0,0.0,0.0,0.0,0.0,0.0,0.0,0.0,0.0,0.0,0.0,0.0,0.0,0.0,0.0,0.0,0.0,0.0,0.0,0.0,0.0,0.0,0.0,0.0,0.0,0.0,0.0,0.0,0.0,0.0,0.0,0.0,0.0,0.0,0.0,0.0,0.0,0.0,0.0,0.0,0.0,0.0,0.0,0.0,0.0,0.0,0.0,0.0,0.0,0.0,0.0,0.0,0.0,0.0,0.0,0.0,0.0,0.0,0.0,0.0,0.0,0.0,0.0,0.0,0.0,0.0,0.0,0.0,0.0,0.0,0.0,0.0,0.0,0.0,0.0,0.0,0.0,0.0,0.0,0.0,0.0,0.0,0.0,0.0,0.0,0.0,0.0,0.0,0.0,0.0,0.0,0.0,0.0,0.0,0.0,0.0,0.0,0.0,0.0,0.0,0.0,0.0,0.0,0.0,0.0,0.0,0.0,0.0,0.0,0.0,0.0,0.0,0.0,0.0,0.0,0.0,0.0,0.0,0.0,0.0,0.0,0.0,0.0,0.0,0.0,0.0,0.0,0.0,0.0,0.0,0.0,0.0,0.0,0.0,0.0,0.0,0.0,0.0,0.0,0.0,0.0,0.0,0.0,0.0,0.0,0.0,0.0,0.0,0.0,0.0,0.0,0.0,0.0,0.0,0.0,0.0,0.0,0.0,0.0,0.0,0.0,0.0,0.0,0.0,0.0,0.0,0.0,0.0,0.0,0.0,0.0,0.0,0.0,0.0,0.0,0.0,0.0,0.0,0.0,0.0,0.0,0.0,0.0,0.0,0.0,0.0,0.0,0.0,0.0,0.0,0.0,0.0,0.0,0.0,0.0,0.0,0.0,0.0,0.0,0.0,0.0,0.0,0.0,0.0,0.0,0.0,0.0,0.0,0.0,0.0,0.0,0.0,0.0,0.0,0.0,0.0,0.0,0.0,0.0,0.0,0.0,0.0,0.0,0.0,0.0,0.0,0.0,0.0,0.0,0.0,0.0,0.0,0.0,0.0,0.0,0.0,0.0,0.0,0.0,0.0,0.0,0.0,0.0,0.0,0.0,0.0,0.0,0.0,0.0,0.0,0.0,0.0,0.0,0.0,0.0,0.0,0.0,0.0,0.0,0.0,0.0,0.0,0.0,0.0,0.0,0.0,0.0,0.0,0.0,0.0,0.0,0.0,0.0,0.0,0.0,0.0,0.0,0.0,0.0,0.0,0.0,0.0,0.0,0.0,0.0,0.0,0.0,0.0,0.0,0.0,0.0,0.0,0.0,0.0,0.0,0.0,0.0,0.0,0.0,0.0,0.0,0.0,0.0,0.0,0.0,0.0,0.0,0.0,0.0,0.0,0.0,0.0,0.0,0.0,0.0,0.0,0.0,0.0,0.0,0.0,0.0,0.0,0.0,0.0,0.0,0.0,0.0,0.0,0.0,0.0,0.0,0.0,0.0,0.0,0.0,0.0,0.0,0.0,0.0,0.0,0.0,0.0,0.0,0.0,0.0,0.0,0.0,0.0,0.0,0.0,0.0,0.0,0.0,0.0,0.0,0.0,0.0,0.0,0.0,0.0,0.0,0.0,0.0,0.0,0.0,0.0,0.0,0.0,0.0,0.0,0.0,0.0,0.0,0.0,0.0,0.0,0.0,0.0,0.0,0.0,0.0,0.0,0.0,0.0,0.0,0.0,0.0,0.0,0.0,0.0,0.0,0.0,0.0,0.0,0.0,0.0,0.0,0.0,0.0,0.0,0.0,0.0,0.0,0.0,0.0,0.0,0.0,0.0,0.0,0.0,0.0,0.0,0.0,0.0,0.0,0.0,0.0,0.0,0.0,0.0,0.0,0.0,0.0,0.0,0.0,0.0,0.0,0.0,0.0,0.0,0.0,0.0,0.0,0.0,0.0,0.0,0.0,0.0,0.0,0.0,0.0,0.0,0.0,0.0,0.0,0.0,0.0,0.0,0.0,0.0,0.0,0.0,0.0,0.0,0.0,0.0,0.0,0.0,0.0,0.0,0.0,0.0,0.0,0.0,0.0,0.0,0.0,0.0,0.0,0.0,0.0,0.0,0.0,0.0,0.0,0.0,0.0,0.0,0.0,0.0,0.0,0.0,0.0,0.0,0.0,0.0,0.0,0.0,0.0,0.0,0.0,0.0,0.0,0.0,0.0,0.0,0.0,0.0,0.0,0.0,0.0,0.0,0.0,0.0,0.0,0.0,0.0,0.0,0.0,0.0,0.0,0.0,0.0,0.0,0.0,0.0,0.0,0.0,0.0,0.0,0.0,0.0,0.0,0.0,0.0,0.0,0.0,0.0,0.0,0.0,0.0,0.0,0.0,0.0,0.0,0.0,0.0,0.0,0.0,0.0,0.0,0.0,0.0,0.0,0.0,0.0,0.0,0.0,0.0,0.0,0.0,0.0,0.0,0.0,0.0,0.0,0.0,0.0,0.0,0.0,0.0,0.0,0.0,0.0,0.0,0.0,0.0,0.0,0.0,0.0,0.0,0.0,0.0,0.0,0.0,0.0,0.0,0.0,0.0,0.0,0.0,0.0,0.0,0.0,0.0,0.0,0.0,0.0,0.0,0.0,0.0,0.0,0.0,0.0,0.0,0.0,0.0,0.0,0.0,0.0,0.0,0.0,0.0,0.0,0.0,0.0,0.0,0.0,0.0,0.0,0.0,0.0,0.0,0.0,0.0,0.0,0.0,0.0,0.0,0.0,0.0,0.0,0.0,0.0,0.0,0.0,0.0,0.0,0.0,0.0,0.0,0.0,0.0,0.0,0.0,0.0,0.0,0.0,0.0,0.0,0.0,0.0,0.0,0.0,0.0,0.0,0.0,0.0,0.0,0.0,0.0,0.0,0.0,0.0,0.0,0.0,0.0,0.0,0.0,0.0,0.0,0.0,0.0,0.0,0.0,0.0,0.0,0.0,0.0,0.0,0.0,0.0,0.0,0.0,0.0,0.0,0.0,0.0,0.0,0.0,0.0,0.0,0.0,0.0,0.0,0.0,0.0,0.0,0.0,0.0,0.0,0.0,0.0,0.0,0.0,0.0,0.0,0.0,0.0,0.0,0.0,0.0,0.0,0.0,0.0,0.0,0.0,0.0,0.0,0.0,0.0,0.0,0.0,0.0,0.0,0.0,0.0,0.0,0.0,0.0,0.0,0.0,0.0,0.0,0.0,0.0,0.0,0.0,0.0,0.0,0.0,0.0,0.0,0.0,0.0,0.0,0.0,0.0,0.0,0.0,0.0,0.0,0.0,0.0,0.0,0.0,0.0,0.0,0.0,0.0,0.0,0.0,0.0,0.0,0.0,0.0,0.0,0.0,0.0,0.0,0.0,0.0,0.0,0.0,0.0,0.0,0.0,0.0,0.0,0.0,0.0,0.0,0.0,0.0,0.0,0.0,0.0,0.0,0.0,0.0,0.0,0.0,0.0,0.0,0.0,0.0,0.0,0.0,0.0,0.0,0.0,0.0,0.0,0.0,0.0,0.0,0.0,0.0,0.0,0.0,0.0,0.0,0.0,0.0,0.0,0.0,0.0,0.0,0.0,0.0,0.0,0.0,0.0,0.0,0.0,0.0,0.0,0.0,0.0,0.0,0.0,0.0,0.0,0.0,0.0,0.0,0.0,0.0,0.0,0.0,0.0,0.0,0.0,0.0,0.0,0.0,0.0,0.0,0.0,0.0,0.0,0.0,0.0,0.0,0.0,0.0,0.0,0.0,0.0,0.0,0.0,0.0,0.0,0.0,0.0,0.0,0.0,0.0,0.0,6.6683,0.0,0.0,0.0,0.0,0.0,0.0,0.0,0.0,0.0,0.0,0.0,0.0,0.0,0.0,0.0,0.0,0.0,0.0,0.0,0.0,0.0,0.0,0.0,0.0,5.3702,5.4876,5.6051,5.6161,0.0,0.0,0.0,0.0,0.0,0.0,0.0,0.0,0.0,5.4766,5.5537,5.6748,5.8767,6.1484,6.108,6.0052,5.851,0.0,0.0,0.0,0.0,0.0,0.0,0.0,0.0,0.0,0.0,0.0,0.0,0.0,0.0,0.0,0.0,0.0,0.0,0.0,0.0,0.0,0.0,0.0,0.0,0.0,0.0,0.0,0.0,0.0,0.0,0.0,0.0,0.0,0.0,0.0,0.0,0.0,0.0,0.0,0.0,0.0,0.0,0.0,0.0,0.0,0.0,0.0,0.0,0.0,0.0,0.0,0.0,0.0,0.0,0.0,0.0,0.0,0.0,0.0,0.0,0.0,0.0,0.0,0.0,0.0,0.0,0.0,0.0,0.0,0.0,0.0,6.6528,0.0,0.0,0.0,0.0,0.0,0.0,0.0,0.0,0.0,0.0,0.0,0.0,0.0,0.0,0.0,0.0,0.0,0.0,0.0,0.0,0.0,5.1279,5.2491,5.3922,5.5537,5.7262,5.7446,5.7997,5.9318,5.8804,0.0,0.0,0.0,0.0,5.6455,5.6308,5.6675,5.7629,5.9685,6.2658,6.6366,6.6366,6.4897,6.2254,6.075,0.0,0.0,0.0,0.0,0.0,0.0,0.0,0.0,0.0,0.0,0.0,0.0,0.0,0.0,0.0,0.0,0.0,0.0,0.0,0.0,0.0,0.0,0.0,0.0,0.0,0.0,0.0,0.0,0.0,0.0,0.0,0.0,0.0,0.0,0.0,0.0,0.0,0.0,0.0,0.0,0.0,0.0,0.0,0.0,0.0,0.0,0.0,0.0,0.0,0.0,0.0,0.0,0.0,0.0,0.0,0.0,0.0,0.0,0.0,0.0,0.0,0.0,0.0,6.7581,6.7625,6.759,6.759,6.7996,6.8692,6.8117,6.7625,6.7152,0.0,0.0,0.0,0.0,0.0,0.0,0.0,0.0,0.0,0.0,0.0,0.0,0.0,0.0,0.0,0.0,0.0,0.0,0.0,0.0,5.1903,5.4803,5.5941,5.7409,5.9722,5.9942,6.0015,6.0236,6.0162,0.0,0.0,0.0,5.9869,5.9758,5.9098,5.9465,6.097,6.4751,6.7944,7.0513,7.0513,7.0293,6.9706,6.5375,6.2915,6.1924,0.0,0.0,0.0,0.0,0.0,0.0,0.0,0.0,0.0,0.0,0.0,0.0,0.0,0.0,0.0,0.0,0.0,0.0,0.0,0.0,0.0,0.0,0.0,0.0,0.0,0.0,0.0,0.0,0.0,0.0,0.0,0.0,0.0,0.0,0.0,0.0,0.0,0.0,0.0,0.0,0.0,6.41,6.2733,0.0,0.0,0.0,0.0,0.0,0.0,0.0,0.0,0.0,0.0,0.0,0.0,0.0,6.7109,6.8114,6.8625,6.9186,6.9761,7.0405,7.069,7.0737,7.0737,7.1109,7.1785,7.1672,0.0,6.781,6.8464,0.0,0.0,0.0,0.0,0.0,0.0,0.0,0.0,0.0,0.0,0.0,0.0,0.0,0.0,0.0,0.0,0.0,0.0,0.0,0.0,0.0,5.7519,5.9795,6.2254,6.2879,6.3172,6.3172,6.2291,0.0,0.0,6.0639,6.0419,6.0419,6.0493,6.2254,6.5705,6.9302,7.2312,7.4698,7.4698,7.4955,7.5285,7.2202,6.9119,6.6109,6.4053,0.0,0.0,0.0,0.0,0.0,0.0,0.0,0.0,0.0,0.0,0.0,0.0,0.0,0.0,0.0,0.0,0.0,0.0,0.0,0.0,0.0,0.0,0.0,0.0,0.0,0.0,0.0,0.0,0.0,0.0,0.0,0.0,0.0,0.0,0.0,0.0,0.0,0.0,0.0,6.5262,6.5627,6.5794,6.5803,6.5896,0.0,0.0,0.0,0.0,0.0,0.0,0.0,0.0,0.0,6.768,6.9134,7.0157,7.0432,7.1616,7.2157,7.2056,7.28,7.3172,7.3172,7.3578,7.395,7.4289,7.4728,7.3916,7.2157,7.0905,6.9492,6.8303,0.0,0.0,0.0,0.0,6.9625,6.8648,0.0,0.0,0.0,0.0,0.0,0.0,0.0,0.0,0.0,0.0,0.0,0.0,5.6895,5.9648,6.2328,6.4787,6.5558,6.5852,6.5632,6.4273,6.3099,6.2254,6.1447,6.1117,6.1337,6.2952,6.5852,7.0146,7.3156,7.5873,7.8259,7.8259,7.8589,7.9176,7.7928,7.4882,7.0587,6.7944,6.5411,6.2805,0.0,0.0,0.0,0.0,0.0,0.0,0.0,0.0,0.0,0.0,0.0,0.0,0.0,0.0,0.0,0.0,0.0,0.0,0.0,0.0,0.0,0.0,0.0,0.0,0.0,0.0,0.0,0.0,0.0,0.0,0.0,0.0,0.0,0.0,0.0,0.0,0.0,6.6987,6.7587,6.8524,6.7591,6.7044,0.0,0.0,0.0,0.0,0.0,0.0,6.9623,6.9921,7.0122,7.0195,7.1819,7.2969,7.3544,7.4458,7.4796,7.4661,7.5202,7.5473,7.5506,7.6048,7.6284,7.6318,7.6927,7.6826,7.6082,7.3713,7.2056,7.1063,7.1165,7.1022,7.0829,7.2255,7.2024,7.1159,0.0,0.0,0.0,0.0,0.0,0.0,0.0,0.0,0.0,0.0,0.0,5.6969,6.086,6.2842,6.4897,6.7283,6.754,6.7247,6.6476,6.5668,6.4824,6.4016,6.3135,6.3062,6.3906,6.7687,7.0917,7.345,7.5946,7.8405,8.0828,8.0828,8.0828,8.0901,8.0791,7.8883,7.5542,7.2349,6.9596,6.71,6.3796,0.0,0.0,0.0,0.0,0.0,0.0,0.0,0.0,0.0,0.0,0.0,0.0,0.0,0.0,0.0,0.0,0.0,0.0,0.0,0.0,0.0,0.0,0.0,0.0,0.0,0.0,0.0,0.0,0.0,0.0,0.0,0.0,0.0,0.0,0.0,0.0,0.0,0.0,6.9489,6.973,0.0,0.0,0.0,0.0,6.9203,7.0595,7.109,7.0236,7.1503,7.2587,7.324,7.3375,7.4458,7.6657,7.598,7.6352,7.7773,7.7807,7.7807,7.7807,7.7874,7.7874,7.7874,7.7908,7.7908,7.7807,7.6961,7.5303,7.3308,7.3366,7.2485,7.1367,7.2169,7.2316,7.2519,0.0,0.0,0.0,5.161,5.0912,5.0362,5.0362,5.0802,5.1646,5.3041,5.55,5.829,6.1263,6.4934,6.7944,6.9853,7.0954,7.077,6.8935,6.8054,6.6806,6.4971,6.4567,6.5521,6.7907,7.0881,7.3854,7.6864,7.9286,8.1158,8.2553,8.3067,8.3324,8.3287,8.2774,8.1893,8.0571,7.679,7.3487,7.055,6.7834,6.4163,0.0,0.0,0.0,0.0,0.0,0.0,0.0,0.0,0.0,0.0,0.0,0.0,0.0,0.0,0.0,0.0,0.0,0.0,0.0,0.0,0.0,0.0,0.0,0.0,0.0,0.0,0.0,0.0,0.0,0.0,0.0,0.0,0.0,0.0,0.0,0.0,0.0,7.229,7.2737,0.0,7.1345,7.1532,7.1586,7.121,7.177,7.2403,7.2969,7.3984,7.4864,7.5642,7.6623,7.7266,7.7604,7.7807,7.7942,7.801,7.8483,7.872,7.872,7.9194,7.9431,7.9431,7.9431,7.9431,7.9397,7.9126,7.7976,7.6386,7.6386,7.5777,7.4999,7.5709,7.5709,7.5439,0.0,0.0,0.0,5.205,5.1573,5.1206,5.1206,5.1903,5.3004,5.462,5.7629,6.075,6.3723,6.7687,7.077,7.2386,7.3487,7.3193,7.1064,6.9889,6.8238,6.5815,6.6219,6.7907,7.0844,7.4074,7.6937,7.9396,8.1819,8.3434,8.4242,8.4756,8.5159,8.538,8.4572,8.4205,8.4022,8.0755,7.7524,7.4331,7.1615,6.8091,6.4273,0.0,0.0,0.0,0.0,0.0,0.0,0.0,0.0,0.0,0.0,0.0,0.0,0.0,0.0,0.0,0.0,0.0,0.0,0.0,0.0,0.0,0.0,0.0,0.0,0.0,0.0,0.0,0.0,0.0,0.0,0.0,0.0,0.0,0.0,0.0,7.2735,7.4148,7.4479,7.4221,7.324,7.2935,7.2868,7.3138,7.3375,7.4052,7.5303,7.6082,7.6724,7.7232,7.7976,7.8348,7.8382,7.8619,7.872,7.8754,7.9228,7.9464,7.9498,7.9972,8.0209,8.0209,8.0209,8.0209,8.0209,8.0209,7.96,7.872,7.845,7.7908,7.7333,7.7807,7.7671,7.7367,0.0,0.0,5.2968,5.2123,5.2013,5.2013,5.1977,5.2711,5.4399,5.7593,6.0823,6.4383,6.8458,7.1101,7.3193,7.4808,7.4955,7.4294,7.2606,7.1027,6.9119,6.6733,6.8238,7.022,7.2679,7.7378,8.0241,8.1122,8.3471,8.5049,8.5783,8.5857,8.6261,8.6995,8.6187,8.582,8.571,8.4132,8.1636,7.8479,7.5212,7.2422,6.9853,0.0,0.0,0.0,0.0,0.0,0.0,0.0,0.0,0.0,0.0,0.0,0.0,0.0,0.0,0.0,0.0,0.0,0.0,0.0,0.0,0.0,0.0,0.0,0.0,0.0,0.0,0.0,0.0,0.0,0.0,0.0,0.0,0.0,7.0623,7.2519,7.4118,7.4929,7.4798,7.4728,7.4695,7.4052,7.395,7.4661,7.5371,7.6115,7.6927,7.7638,7.801,7.801,7.7333,7.7671,7.9092,7.8382,7.8754,8.0209,8.0209,8.0209,8.0209,8.0209,8.0209,8.0209,8.0209,8.0209,8.0209,8.0209,8.0209,8.0141,7.9397,7.8686,7.8044,7.8044,7.8044,7.8145,5.3225,5.3225,5.2968,5.2123,5.2491,5.2674,5.2087,5.3188,5.5023,5.7666,6.0823,6.4383,6.8458,7.1578,7.4001,7.5616,7.6313,7.5469,7.2679,7.2092,7.1284,7.0036,7.2092,7.4698,7.7708,7.969,8.1636,8.3618,8.4866,8.5563,8.582,8.6995,8.7362,8.6995,8.6775,8.6334,8.571,8.4719,8.3765,8.2663,7.9433,7.5946,7.2532,0.0,0.0,0.0,0.0,0.0,0.0,0.0,0.0,0.0,0.0,0.0,0.0,0.0,0.0,0.0,0.0,0.0,0.0,0.0,0.0,0.0,0.0,0.0,0.0,0.0,0.0,0.0,0.0,0.0,0.0,0.0,6.8794,7.0915,7.2046,7.3,7.3867,7.4616,7.6578,7.7468,7.6386,7.7063,7.7435,7.7096,7.7232,7.7705,7.845,7.8686,7.8822,7.8822,7.8619,7.8686,7.9126,7.8923,7.9261,8.0209,8.0209,8.0209,8.0209,8.0209,8.0209,8.0209,8.0209,8.0209,8.0209,8.0209,8.0209,8.0141,7.9397,7.9295,7.9532,7.8991,7.9126,7.96,5.3225,5.3225,5.3078,5.2564,5.2894,5.3151,5.3041,5.4069,5.6124,5.9575,6.2254,6.5668,7.0403,7.2899,7.4845,7.646,7.6717,7.5726,7.3156,7.2386,7.2386,7.3266,7.5322,7.7671,8.0241,8.2076,8.3691,8.5086,8.5894,8.6481,8.6811,8.7766,8.8133,8.7986,8.7655,8.7252,8.6738,8.56,8.5086,8.4903,8.27,7.9764,7.6533,7.4331,7.2642,7.1174,6.9339,6.8017,6.7357,6.9045,0.0,0.0,0.0,0.0,0.0,0.0,0.0,0.0,0.0,0.0,0.0,0.0,0.0,0.0,0.0,0.0,0.0,0.0,0.0,0.0,0.0,0.0,0.0,0.0,6.977,7.1987,7.3753,7.4275,7.4559,7.4999,7.7198,7.8314,7.7435,7.8145,7.8585,7.8483,7.845,7.8788,7.9532,7.9566,7.9431,7.9126,7.9126,7.8957,7.8653,7.8653,7.8855,7.9261,7.96,7.9566,7.9295,7.9904,8.0209,0.0,8.0513,8.0818,8.1122,8.1122,8.1122,0.0,0.0,0.0,0.0,0.0,7.9566,8.0209,5.3225,5.3225,5.3188,5.3078,5.3151,5.3445,5.4179,5.5023,5.7336,6.2181,6.4273,6.743,7.3083,7.4441,7.5579,7.7194,7.657,7.5469,7.3927,7.2569,7.3266,7.6387,7.8112,7.98,8.1489,8.4352,8.582,8.593,8.6664,8.7472,8.8353,8.8426,8.8904,8.9674,8.883,8.8426,8.8243,8.6628,8.593,8.5857,8.5049,8.3361,8.0865,7.7047,7.5542,7.5065,7.1908,7.1138,7.1394,7.0257,0.0,0.0,0.0,0.0,0.0,0.0,0.0,0.0,0.0,0.0,0.0,0.0,0.0,0.0,0.0,0.0,0.0,0.0,0.0,0.0,0.0,0.0,0.0,0.0,7.1095,7.2732,7.5337,7.5912,7.6048,7.598,7.7232,7.8111,7.8111,7.8179,7.8517,7.9194,7.9228,7.9464,8.004,0.0,0.0,0.0,0.0,7.8551,7.7874,7.7874,7.7908,7.801,7.8653,7.8686,7.8145,7.9464,8.0107,8.0242,8.0885,8.1528,8.2171,8.2171,8.2171,8.2035,8.0784,7.987,7.9228,7.9228,7.9634,8.0209,5.3335,5.3225,5.3004,5.2344,5.2784,5.3261,5.3408,5.4656,5.7336,6.2181,6.4273,6.743,7.3083,7.4441,7.5579,7.7194,7.657,7.5689,7.4735,7.4992,7.635,7.8956,8.0645,8.2553,8.4829,8.549,8.6114,8.6775,8.6921,8.7766,8.9197,8.9821,9.0592,9.1363,9.0519,8.9784,8.9087,8.7472,8.6775,8.6701,8.5894,8.4499,8.2737,8.0645,7.9433,7.8516,7.5873,7.4221,7.3487,7.5139,7.3523,7.1174,7.2936,7.2165,0.0,0.0,0.0,0.0,0.0,0.0,0.0,0.0,0.0,0.0,0.0,0.0,0.0,0.0,0.0,0.0,0.0,0.0,0.0,7.0259,7.279,7.5067,7.5608,7.7299,7.8213,7.7604,7.8348,7.8889,7.8889,7.9431,7.9837,7.9972,8.0006,7.9803,7.9363,7.9329,7.872,7.7367,7.7333,7.7266,7.7096,7.7096,7.7401,7.7976,0.0,0.0,7.8923,7.9194,7.9634,8.0209,8.0344,8.0479,8.0615,8.0615,8.0615,8.0648,8.0953,8.0648,8.0006,8.0006,8.0073,8.0209,5.4473,5.4069,5.3812,5.3775,5.3812,5.4069,5.4876,5.5684,5.796,6.2805,6.4163,6.6696,7.1945,7.2863,7.3597,7.4808,7.4551,7.4661,7.5469,7.668,7.8626,8.1489,8.3141,8.4572,8.5747,8.6187,8.6811,8.7619,8.7619,8.8647,9.0665,9.0629,9.1289,9.2427,9.1179,9.0408,8.9895,8.828,8.7619,8.7545,8.6738,8.593,8.4976,8.2994,8.1966,8.1342,7.9286,7.7524,7.6276,7.7047,7.5432,7.334,7.4515,7.4074,7.2936,0.0,0.0,0.0,0.0,0.0,0.0,0.0,0.0,0.0,0.0,0.0,0.0,0.0,0.0,6.8461,6.9138,0.0,7.1761,7.279,7.4492,7.6082,7.7232,7.8382,7.8822,7.8077,7.8991,7.9532,7.916,7.9769,8.0209,8.0209,8.0209,7.987,7.916,7.9126,7.8585,7.7468,7.7435,7.7435,7.7435,7.7435,7.7638,7.7976,7.8382,7.8551,7.8585,7.9329,7.987,8.0209,8.0581,8.0953,8.1291,8.1291,8.1291,8.1291,8.1291,8.0851,8.0175,7.9803,7.987,8.0209,5.6014,5.5427,5.5023,5.55,5.506,5.5133,5.6602,5.6822,5.8547,6.3466,6.409,6.5925,7.077,7.1321,7.1578,7.2202,7.2716,7.3854,7.5946,7.7965,8.0424,8.3508,8.5013,8.5857,8.604,8.6664,8.7325,8.7986,8.8133,8.9381,9.162,9.1106,9.173,9.3272,9.1583,9.0849,9.0739,8.894,8.8206,8.8133,8.7325,8.6995,8.6811,8.4866,8.4022,8.3654,8.2039,8.0534,7.914,7.8148,7.6937,7.5763,7.5285,7.5249,7.5249,7.4588,7.3817,0.0,0.0,0.0,0.0,0.0,0.0,0.0,0.0,7.0469,6.9301,6.8531,6.8715,6.9447,7.0812,7.165,7.3003,7.5506,7.6183,7.6995,7.8855,7.9228,7.8991,7.8077,7.916,7.9701,7.8957,7.9431,7.9837,7.9972,8.0006,7.9735,7.916,7.8957,7.8619,7.801,7.7841,7.7841,7.7976,7.7976,7.7976,7.801,7.8585,7.8653,7.8247,7.9431,8.0073,8.0242,8.0818,8.1426,8.1968,8.1968,8.1968,8.1934,8.1325,8.0716,8.0141,7.9532,7.9701,8.0209,5.7593,5.7079,5.6345,5.5684,5.5537,5.5757,5.6675,5.6822,5.8547,6.3466,6.409,6.5925,7.077,7.1321,7.1358,7.1431,7.3413,7.5065,7.6056,7.9029,8.1856,8.4352,8.5306,8.6114,8.6848,8.6958,8.7031,8.7142,8.7839,8.9087,9.0776,9.1363,9.2574,9.4079,9.2464,9.173,9.151,8.9197,8.8206,8.8133,8.7325,8.6995,8.6995,8.6701,8.6151,8.5306,8.3728,8.2553,8.1562,8.0021,7.9396,7.8846,7.6644,7.646,7.7047,7.6937,7.635,7.6056,7.7598,7.6754,7.5139,7.3891,7.4111,7.4348,0.0,7.2831,7.2705,7.2949,7.2501,7.2406,7.3815,7.4728,7.554,7.6589,7.7874,7.8822,7.9058,7.9667,7.9566,7.8145,7.872,7.8923,7.8179,7.8179,7.8517,7.9194,7.9228,7.9194,7.9126,7.8483,7.8077,7.7976,7.7367,7.7333,7.7976,7.7976,7.7976,7.7976,7.8077,7.8416,7.8991,7.916,7.96,8.0209,8.0276,8.0378,8.0445,8.0445,8.0445,8.0445,8.0344,8.0276,8.0175,8.0107,8.0141,8.0209,5.7923,5.774,5.7373,5.7042,5.6602,5.6565,5.7373,5.7483,5.8731,6.2181,6.2658,6.4127,6.8091,6.8935,6.9192,6.9192,7.1835,7.4037,7.5322,7.8919,8.2076,8.4499,8.538,8.6187,8.6995,8.6995,8.7252,8.7692,8.8059,8.9014,9.0629,9.0959,9.173,9.2794,9.1657,9.1143,9.0959,8.9014,8.8206,8.8133,8.7325,8.6995,8.6995,8.6995,8.6518,8.56,8.3985,8.2884,0.0,8.0865,8.0167,7.9764,7.969,7.8919,7.8332,7.9764,7.8222,7.635,7.7524,7.8405,7.839,7.6162,7.5851,7.5634,7.3991,7.323,7.287,7.2946,7.3311,7.4018,7.5067,7.6217,7.7299,7.8077,7.872,7.9126,7.9126,7.9735,7.9498,7.757,7.801,7.8179,7.7435,7.7739,7.8314,7.9058,7.9498,7.9735,7.9735,7.9431,7.9092,7.8653,7.7908,7.7874,7.8619,7.8653,7.8855,7.9261,7.9261,7.9431,7.9735,7.9735,7.9904,8.0209,8.0209,8.0209,8.0209,8.0209,8.0209,8.0209,8.0209,8.0209,8.0209,8.0209,8.0209,8.0209,5.7997,5.7997,5.7997,5.7997,5.7519,5.7336,5.7923,5.7997,5.8877,6.1263,6.1594,6.2768,6.5815,6.688,6.7357,6.7357,7.011,7.2716,7.4771,7.8332,8.1525,8.4168,8.5233,8.6077,8.6664,8.6885,8.7288,8.7876,8.8096,8.8793,8.9931,9.0188,9.0592,9.1106,9.0555,9.0298,9.0188,8.8793,8.8206,8.8133,8.7325,8.6885,8.6664,8.6664,8.604,8.5013,8.4058,8.2751,8.1373,8.0617,7.9783,7.9251,8.0214,7.9617,7.8966,8.0898,7.9596,7.7632,7.7443,7.896,8.0011,7.7803,7.7413,7.7163,7.5685,7.4983,7.4599,7.4024,7.4796,7.5777,7.6487,7.7536,7.8551,7.9295,7.9397,7.9397,7.9397,7.987,7.9464,7.7435,7.7671,7.7604,7.6657,7.7029,7.7739,7.872,7.9498,8.0073,8.0479,8.0513,8.0242,7.9735,7.8991,7.8855,7.9397,7.9397,7.9667,8.0209,8.0209,8.0209,8.0209,8.0209,8.0209,8.0209,8.0209,8.0209,8.0209,8.0412,8.0378,8.0209,8.0412,8.0378,8.0209,8.0209,8.0209,8.0209,5.7997,5.7997,5.7997,5.7997,5.796,5.796,5.7997,5.7997,5.8877,6.1263,6.1594,6.2548,6.5081,6.6035,6.6549,6.6549,6.8752,7.1505,7.4698,7.7268,8.0094,8.3324,8.4939,8.5783,8.582,8.6591,8.7031,8.7031,8.7839,8.8206,8.828,8.9087,8.9454,8.9491,8.9454,8.9454,8.9381,8.8573,8.8206,8.8133,8.7325,8.6518,8.582,8.582,8.4866,8.3581,8.4315,8.2486,7.9605,7.8885,7.8005,7.7072,7.647,7.7341,7.8693,7.9281,8.0515,8.1053,7.8448,7.8588,7.9215,7.8421,7.8782,7.9214,7.8859,7.9362,7.9472,7.8088,7.7841,7.8111,7.8855,7.9058,7.9329,8.004,8.0175,8.0175,8.0175,8.0175,7.9634,7.8145,7.7976,7.7401,7.5879,7.5743,7.6386,7.7908,7.872,7.9769,8.119,8.1257,8.1257,8.1224,8.0513,8.0141,8.0175,8.0175,8.0175,8.0209,8.0209,8.0209,8.0209,8.0209,8.0209,8.0209,8.0209,8.0209,8.0242,8.0953,8.0851,8.0276,8.0987,8.0818,8.0209,8.0209,8.0209,8.0209,5.7997,5.7997,5.7997,5.7997,5.7997,5.7997,5.7997,5.7997,5.8474,5.9832,6.1924,0.0,0.0,0.0,0.0,0.0,6.8238,7.044,7.312,7.6093,7.8956,8.1709,8.3361,8.4462,8.4976,8.5783,8.6187,8.6187,8.7031,8.7399,8.7435,8.8243,8.8316,8.7839,8.839,8.8316,8.7802,8.7545,8.7105,8.6554,8.6297,8.571,8.5013,8.5013,8.3281,8.083,0.0,7.9315,7.7697,7.6336,7.5693,7.5513,7.6338,7.623,7.598,7.6545,7.8289,7.9929,7.9453,8.0161,8.0724,7.9446,7.9857,8.0268,7.8646,7.8499,7.8759,7.8748,7.8348,7.8213,7.8957,7.9126,7.9025,7.8788,7.9566,7.987,7.8855,7.916,7.8923,7.7435,7.7266,7.686,7.5811,7.6183,7.6893,7.7908,7.9566,8.0987,8.1968,8.2475,8.2543,8.2035,8.1291,8.0682,8.0209,8.0209,8.0209,8.0209,8.0209,8.0209,8.0209,8.0209,8.0209,8.0209,8.0209,8.0209,8.0209,8.0479,8.0716,8.0885,8.0648,8.0716,8.0851,8.0378,8.0209,8.0209,5.8364,5.8437,5.8437,5.8437,5.8437,0.0,0.0,0.0,0.0,0.0,0.0,0.0,0.0,0.0,0.0,0.0,0.0,6.9082,7.1468,7.3854,7.6533,7.9543,8.0975,8.2223,8.3287,8.3801,8.4352,8.4939,8.5159,8.5747,8.6591,8.7105,8.7215,8.7031,8.7545,8.7472,8.6995,8.6995,8.6701,8.6187,8.56,8.4625,8.3545,8.2961,8.069,0.0,7.6369,7.5296,7.426,7.347,7.3173,7.3411,7.5187,7.5726,7.5757,7.5803,7.7844,7.9993,7.9681,8.0607,8.1477,8.077,8.0894,8.0789,7.9617,7.9337,7.9342,7.9158,7.872,7.845,7.8686,7.872,7.8653,7.8416,7.8957,7.916,7.8483,7.8585,7.8247,7.7029,7.713,7.6995,7.6183,7.7063,7.7773,7.7976,7.9803,8.1325,8.2374,8.3084,8.3152,8.2441,8.1934,8.1224,8.0209,8.0209,8.0209,8.0209,8.0209,8.0209,8.0209,8.0209,8.0209,8.0209,8.0479,8.0581,8.0615,8.1156,8.1494,8.1663,8.146,8.1359,8.1224,8.075,8.0412,8.0209,5.9098,5.9281,5.9281,0.0,0.0,0.0,0.0,0.0,0.0,0.0,0.0,0.0,0.0,0.0,0.0,0.0,0.0,0.0,6.9816,7.0807,7.3046,7.69,7.7965,7.9176,8.0718,8.0828,8.1636,8.3177,8.2443,8.3251,8.5527,8.5527,8.5967,8.6775,8.6738,8.6701,8.6701,8.6701,8.6664,8.6444,8.4872,8.322,8.1454,7.9937,7.7198,7.4017,7.2415,7.0798,6.9558,7.0402,7.0739,7.0976,7.2901,7.561,7.7883,7.6802,7.89,8.122,7.9301,8.0033,8.1615,8.2395,8.1752,8.1101,8.1702,8.1875,8.1267,7.9559,7.9126,7.8889,7.8179,7.8044,7.8247,7.8957,7.8483,7.828,7.8957,7.8416,7.7705,7.7029,7.7536,7.7671,7.7029,7.828,7.8822,7.8111,0.0,8.0885,8.2272,8.305,8.3118,8.2374,8.234,8.1663,8.0209,8.0209,8.0209,8.0209,8.0209,8.0209,8.0209,8.0242,8.0242,8.031,8.1021,8.1359,8.146,8.2847,8.305,8.2543,8.3186,8.2611,8.1393,8.1359,8.0885,8.031,0.0,0.0,0.0,0.0,0.0,0.0,0.0,0.0,0.0,0.0,0.0,0.0,0.0,0.0,0.0,0.0,0.0,0.0,6.8164,7.0183,7.2055,7.367,7.5652,7.6937,7.7341,7.8589,7.9396,7.9837,8.0204,8.1012,8.2223,8.2223,8.2663,8.3398,8.281,8.2553,8.2553,8.2553,8.1856,8.069,8.0131,7.9209,7.8133,7.6979,7.4906,7.2415,7.2001,7.0347,6.8368,6.8549,6.9899,7.1642,7.2643,7.4511,7.624,7.6257,7.7907,7.9949,8.0434,8.1978,8.3438,8.3377,8.3132,8.2682,8.2026,8.1222,8.0474,8.0039,7.9498,7.9058,7.8855,7.8822,7.872,7.8348,7.8585,7.8686,7.8314,7.7638,7.7299,7.7671,7.7401,7.7299,7.7671,7.8551,7.9025,0.0,8.0175,8.1156,8.1562,8.2272,8.234,8.1596,8.1562,8.1122,8.0209,8.0209,8.0209,8.0209,8.0209,8.0209,8.0209,8.075,8.1021,8.1054,8.1799,8.2137,8.2171,8.2543,8.2881,8.3186,8.2813,8.278,8.2847,8.2306,8.2002,8.1832,0.0,0.0,0.0,0.0,0.0,0.0,0.0,0.0,0.0,0.0,0.0,0.0,0.0,0.0,0.0,0.0,0.0,0.0,0.0,6.8752,7.0257,7.1394,7.2753,7.3817,7.4515,7.4735,7.5395,7.646,7.5836,7.668,7.8846,7.8479,7.8772,7.9507,7.9066,7.8662,7.8369,7.8699,7.829,0.0,0.0,7.6123,7.5103,7.3899,7.1976,7.0065,7.0065,6.9373,6.859,6.968,7.1317,7.3002,7.3205,7.5117,7.729,7.7392,7.9009,8.1091,8.2227,8.363,8.466,8.4425,8.3958,8.3277,8.2152,8.1379,8.0702,7.9869,7.9667,7.9397,7.8754,7.8619,7.8585,7.8483,7.7976,7.7705,7.7942,7.7063,7.6657,7.7435,7.7435,7.7671,7.8416,7.916,7.96,7.96,8.0344,8.0953,8.1257,8.1697,8.1731,8.1291,8.1291,8.0953,8.0209,8.0209,8.0209,8.0209,8.0209,8.0209,8.0209,8.0615,8.0987,8.1325,0.0,8.2577,8.2915,8.3253,8.3625,8.3964,8.3558,8.3422,8.3456,8.305,8.2678,8.2408,0.0,0.0,0.0,0.0,0.0,0.0,0.0,0.0,0.0,5.7703,5.9208,6.0456,0.0,0.0,0.0,0.0,0.0,0.0,0.0,0.0,6.8091,6.9412,6.9559,7.0293,7.1688,7.044,7.0807,7.2899,7.0807,7.1615,7.5139,7.4551,7.4698,7.5469,7.5469,7.5028,7.4331,7.5139,7.5223,7.4735,7.4132,7.3294,7.2198,0.0,6.9227,6.7895,6.803,6.8504,6.949,7.1866,7.3542,7.4463,7.4308,7.6552,7.932,7.8992,8.087,8.3188,8.3982,8.4853,8.5544,8.5544,8.4693,8.35,8.2286,8.1898,8.1328,7.9525,7.9701,7.9803,7.8517,7.828,7.8483,7.916,7.7502,7.6589,7.7807,7.6758,7.6149,7.6961,7.7604,7.8314,7.916,7.9837,8.0209,8.0209,8.0209,8.0479,8.1088,8.1122,8.1122,8.1122,8.1122,8.0851,8.0209,8.0209,8.0209,8.0209,8.0209,8.0242,8.0344,8.0445,8.0885,8.1629,8.2374,0.0,8.3693,8.437,8.464,8.464,8.464,8.4234,8.3659,8.3659,8.3253,8.2712,0.0,0.0,0.0,0.0,0.0,0.0,0.0,0.0,0.0,0.0,5.8253,5.9245,0.0,0.0,0.0,0.0,0.0,0.0,0.0,0.0,0.0,6.6145,6.6769,6.7247,6.754,6.7907,6.8311,6.8715,6.8311,6.8788,7.0146,7.0697,7.1358,7.2129,7.2129,7.1688,7.0991,7.1798,7.0953,6.911,6.9511,6.9419,6.8907,6.7885,6.7624,0.0,6.8639,6.8977,6.9417,7.1749,7.3619,7.5025,7.5534,7.7298,7.9028,7.8675,8.0658,8.3188,8.3907,8.5373,8.6679,8.6679,8.5806,8.4514,8.2771,8.2117,8.1328,7.9525,7.9701,8.0107,7.987,7.9803,7.987,8.0006,7.916,7.8382,7.8044,7.7232,7.6961,7.7705,7.7908,7.8517,7.987,8.0107,8.0209,8.0209,8.0209,8.0242,8.0378,8.0378,8.0378,8.0378,8.0378,8.031,8.0209,8.0209,8.0209,8.0209,8.0209,8.0513,8.1122,8.1731,8.2408,8.3152,8.393,0.0,8.4437,8.4573,8.464,8.464,8.464,8.4539,8.4437,8.4437,8.4336,8.4234,0.0,0.0,0.0,0.0,0.0,0.0,0.0,5.6565,5.7409,5.9024,5.9979,6.0933,6.2108,6.2989,6.4016,0.0,0.0,0.0,0.0,0.0,0.0,0.0,6.5668,6.5888,6.5888,6.5852,6.6035,6.6439,0.0,6.5778,6.7026,6.699,6.7173,6.754,6.754,6.7357,6.7026,6.7834,6.7684,6.6931,6.7176,6.7199,6.6892,6.6004,6.6102,0.0,6.8064,6.8741,6.9383,7.121,7.313,7.4933,7.5219,7.6937,7.8761,7.9039,8.0866,8.3037,8.4331,8.5846,8.6995,8.6995,8.6571,8.5513,8.3045,8.2627,8.2126,7.959,8.0006,8.0648,8.0276,8.0209,8.0209,8.0209,7.8957,7.7976,7.7976,7.6995,7.669,7.7841,7.7976,7.8551,8.0073,8.0209,8.0209,8.0209,8.0209,8.0209,8.0209,8.0209,8.0378,8.075,8.0412,8.0209,8.0209,8.0209,8.0378,8.075,8.075,8.1156,8.1866,8.2238,8.2813,8.3524,8.3862,0.0,8.464,8.464,8.464,8.464,8.464,8.464,8.464,8.464,8.464,8.464,0.0,0.0,0.0,0.0,0.0,0.0,5.7152,5.785,5.9024,6.119,6.2548,6.3466,6.3833,6.4567,6.5448,0.0,0.0,0.0,0.0,0.0,0.0,0.0,0.0,0.0,6.4787,0.0,0.0,6.4787,6.3466,0.0,0.0,0.0,0.0,0.0,6.4457,6.453,6.442,6.5411,6.5786,0.0,0.0,6.5865,6.5378,0.0,0.0,0.0,0.0,6.8301,6.9079,7.0737,7.2563,7.4187,7.4525,7.6232,7.8327,7.912,8.0754,8.2667,8.4442,8.5991,8.6995,8.6995,8.6995,8.6209,8.3208,8.3054,8.2717,7.9688,8.0141,8.0885,8.031,8.0209,8.0209,8.0209,7.8754,7.7705,7.7942,7.7096,7.6826,7.7874,7.8145,7.8754,8.0073,8.0209,8.0209,8.0209,8.0209,0.0,8.0412,8.0445,8.075,8.1494,8.0953,8.0682,8.0682,8.0682,8.0953,8.1528,8.1528,8.19,8.2644,8.2644,8.305,8.3727,8.3727,0.0,0.0,8.464,8.464,8.464,8.464,8.464,8.464,8.464,8.464,8.464,0.0,0.0,0.0,0.0,0.0,0.0,5.8767,5.9061,6.0493,6.4347,6.5007,6.5632,6.7063,6.5411,6.4824,0.0,0.0,0.0,0.0,0.0,0.0,0.0,0.0,0.0,0.0,0.0,0.0,6.3025,6.2879,0.0,0.0,0.0,0.0,0.0,0.0,6.5888,6.5301,6.6843,0.0,0.0,0.0,0.0,0.0,0.0,0.0,0.0,0.0,6.7963,6.8335,7.0567,7.1887,7.2834,7.4187,7.5737,7.7222,7.7934,7.9783,8.1827,8.3365,8.5314,8.6995,8.6995,8.6995,8.6209,8.3208,8.3054,8.2717,7.9688,7.9735,8.0276,8.0209,8.0209,8.0209,8.0209,8.004,7.9431,7.8179,7.845,7.8585,7.8044,7.8585,7.9329,8.0107,8.0209,8.0209,8.0209,0.0,0.0,8.1156,8.119,8.1528,8.2272,8.2238,8.2205,8.2205,8.2205,8.2238,8.2306,8.2306,8.2678,8.3389,8.3389,8.3795,8.4539,8.4539,0.0,0.0,8.464,8.464,8.464,8.464,8.464,8.464,8.464,8.464,8.464,0.0,0.0,0.0,0.0,0.0,0.0,5.9612,6.075,6.2842,6.6953,6.7467,6.7907,6.9009,6.7393,6.6512,6.7173,0.0,0.0,0.0,0.0,0.0,0.0,0.0,0.0,0.0,0.0,6.2805,6.2805,6.2805,0.0,0.0,0.0,0.0,0.0,0.0,6.4677,6.5338,6.5999,0.0,0.0,0.0,0.0,0.0,0.0,0.0,0.0,0.0,0.0,6.8098,6.9519,7.1075,7.2563,7.3612,7.4661,7.5845,7.7502,7.9486,8.1208,8.2292,8.4289,8.5991,8.5991,8.6135,8.5589,8.3101,8.2665,8.2155,7.9586,7.9701,8.0209,8.0209,8.0209,8.0209,8.0209,7.9837,7.9194,7.8145,7.8247,7.8314,7.801,7.8653,7.9397,8.0141,8.0209,8.0209,8.0209,0.0,0.0,8.19,8.1528,8.1832,8.3016,8.2644,8.2408,8.2408,8.2408,8.2644,8.305,8.305,8.3456,8.4167,8.4167,8.4336,8.464,8.464,0.0,0.0,8.464,8.464,8.464,8.464,8.464,8.464,8.464,8.464,8.464,0.0,0.0,0.0,0.0,0.0,5.7629,6.0052,6.1557,6.3906,6.8017,6.8568,6.8862,6.9669,6.8495,6.7577,6.7357,6.6109,0.0,0.0,0.0,0.0,0.0,0.0,0.0,0.0,0.0,6.2805,6.2805,6.3062,6.3062,0.0,0.0,6.3062,6.2805,0.0,0.0,0.0,0.0,0.0,0.0,0.0,0.0,0.0,0.0,0.0,0.0,0.0,0.0,0.0,0.0,0.0,7.1921,7.2868,7.368,7.4728,7.6995,7.9008,8.0628,8.1355,8.3329,8.506,8.4844,8.4958,8.4636,8.2771,8.2259,8.1678,7.9858,7.9837,8.0209,8.0209,8.0378,8.0445,8.0242,7.9938,7.9431,7.845,7.8686,7.8788,7.8382,7.9363,8.0107,8.0175,8.0209,8.0209,0.0,0.0,0.0,8.234,8.2103,8.2509,8.3795,8.3321,8.305,8.305,8.305,8.3321,8.3828,8.3828,8.4099,8.464,8.464,8.464,8.464,8.464,0.0,0.0,8.4708,8.4776,8.4945,8.4708,8.464,8.464,8.464,8.464,8.464,0.0,0.0,0.0,0.0,0.0,0.0,6.0052,6.108,6.3062,6.7173,6.7687,6.8017,6.8825,6.8201,6.7357,6.6586,6.5778,0.0,0.0,0.0,0.0,0.0,0.0,0.0,0.0,0.0,6.2805,6.2805,6.3649,6.3649,6.2842,6.3686,6.3613,6.2842,0.0,0.0,0.0,0.0,0.0,0.0,0.0,0.0,0.0,0.0,0.0,0.0,0.0,0.0,0.0,0.0,0.0,0.0,0.0,7.2902,7.395,7.6251,7.8255,7.9831,8.0593,8.2715,8.4541,8.3798,8.3585,8.3329,8.2118,8.1875,8.1535,8.0442,8.0175,8.0209,8.0209,8.0784,8.1021,8.031,8.0784,8.075,7.9295,8.0344,8.0716,7.9261,8.1054,8.1799,8.0344,8.0209,8.0209,0.0,0.0,0.0,8.2374,8.3084,8.3828,8.4606,8.4606,8.4606,8.4606,8.4606,8.4606,8.4606,8.4606,8.4606,8.464,8.464,8.464,0.0,0.0,0.0,0.0,8.4945,8.508,8.5689,8.4911,8.464,8.464,8.464,8.464,8.464,0.0,0.0,0.0,0.0,0.0,0.0,6.0199,6.1557,6.3686,6.7247,6.7687,6.8201,6.9559,6.8495,6.7577,6.732,6.6586,0.0,0.0,0.0,0.0,0.0,0.0,0.0,0.0,6.2805,6.3099,6.3686,6.3943,6.3943,6.3686,6.398,6.3613,6.2805,6.3099,6.3401,0.0,0.0,0.0,0.0,0.0,0.0,0.0,0.0,0.0,0.0,0.0,0.0,0.0,0.0,0.0,0.0,0.0,0.0,0.0,7.483,7.6503,7.8218,8.0501,8.1948,8.2949,8.3751,8.3367,8.2749,8.2674,8.1875,8.0948,8.034,8.0209,8.0209,8.0209,8.0378,8.0648,8.0885,8.0716,8.0378,7.9938,8.0242,8.0175,7.9228,8.0175,8.0716,8.0242,0.0,0.0,0.0,0.0,0.0,8.2374,8.3084,8.3862,8.4606,8.464,8.464,8.464,8.464,8.464,8.464,8.464,8.464,8.464,8.464,8.464,0.0,0.0,0.0,0.0,8.4945,8.508,8.5723,8.4911,8.464,8.464,8.464,8.464,8.464,0.0,0.0,0.0,0.0,0.0,0.0,6.0676,6.1447,6.3062,6.6366,6.6769,6.7393,6.9009,6.8274,6.7467,6.6843,6.6623,0.0,0.0,0.0,0.0,0.0,0.0,0.0,6.2324,6.2618,6.335,6.4529,6.516,6.5448,6.5448,6.5778,6.4971,6.3282,6.3282,6.3048,0.0,0.0,0.0,0.0,0.0,0.0,6.4343,0.0,0.0,0.0,0.0,0.0,0.0,0.0,0.0,0.0,0.0,0.0,0.0,0.0,7.5709,7.6961,7.9397,8.0842,8.1771,8.2458,8.2069,8.1609,8.1861,8.1187,8.0481,8.0274,8.0209,8.0209,8.0209,8.0412,8.075,8.1224,8.1156,8.0919,8.0648,8.0851,8.0851,8.0412,8.0276,8.031,0.0,0.0,0.0,0.0,0.0,0.0,8.278,8.3524,8.4133,8.4606,8.464,8.464,8.464,8.464,8.464,8.464,8.464,8.464,8.464,8.464,8.464,0.0,0.0,0.0,0.0,8.4945,8.508,8.5723,8.4911,8.464,8.464,8.464,8.464,8.464,0.0,0.0,0.0,0.0,0.0,0.0,0.0,6.0896,6.1557,6.4714,6.5118,6.5778,6.743,6.7614,6.7026,6.5595,0.0,0.0,0.0,0.0,0.0,0.0,0.0,0.0,6.1787,6.2412,6.3633,6.5316,6.6866,6.765,6.7797,6.8495,6.7173,6.4163,6.4127,6.2749,6.0485,0.0,0.0,0.0,0.0,0.0,0.0,0.0,0.0,0.0,0.0,0.0,0.0,0.0,0.0,0.0,0.0,0.0,0.0,0.0,0.0,0.0,0.0,7.9498,8.1021,8.0479,8.0276,8.0209,8.0276,8.0242,0.0,8.0209,8.0209,8.0209,8.0276,8.0784,8.1257,8.1359,8.19,8.2069,8.1393,8.1832,8.2306,8.2408,8.1088,8.0479,8.1224,0.0,0.0,0.0,0.0,0.0,8.3456,8.42,8.464,8.464,8.464,8.464,8.464,8.464,8.464,8.464,8.464,8.464,8.464,8.464,8.464,0.0,0.0,0.0,0.0,8.5012,8.5148,8.5723,8.4911,8.464,8.464,8.464,8.464,8.464,0.0,0.0,0.0,0.0,0.0,0.0,0.0,0.0,0.0,0.0,6.3392,6.4273,6.6512,6.6769,6.688,0.0,0.0,0.0,0.0,0.0,0.0,0.0,0.0,0.0,6.3518,6.3035,6.3877,6.6225,6.6606,6.7393,6.8605,6.8164,6.6916,6.5007,6.4347,6.3039,6.1227,6.1155,0.0,0.0,0.0,0.0,0.0,0.0,0.0,0.0,6.6542,6.7184,0.0,0.0,0.0,0.0,0.0,0.0,0.0,0.0,7.5709,7.669,7.7063,0.0,7.9972,8.1494,8.1021,8.0344,0.0,8.0615,8.0209,8.0209,8.0209,8.0378,8.0919,8.0716,8.0818,8.1968,8.1799,8.1494,8.1291,8.0953,8.1156,8.2272,8.1088,8.0479,8.1224,0.0,0.0,0.0,0.0,8.3321,8.349,8.42,8.464,8.464,8.464,8.464,8.464,8.464,8.464,8.464,8.464,8.464,8.464,8.464,8.464,0.0,0.0,0.0,8.5757,8.5587,8.5621,8.5723,8.4911,8.464,8.464,8.464,8.464,8.464,0.0,0.0,0.0,0.0,0.0,0.0,0.0,0.0,0.0,0.0,6.2475,6.3319,6.6182,6.6512,0.0,0.0,0.0,0.0,0.0,0.0,0.0,0.0,0.0,6.3779,6.345,6.345,6.4595,6.7064,6.7415,6.8605,7.055,7.011,6.8641,6.6239,6.3584,6.2032,6.1475,6.0981,6.0972,0.0,6.255,0.0,0.0,0.0,0.0,0.0,6.6406,6.7286,0.0,6.9214,7.0364,7.1548,0.0,0.0,0.0,0.0,7.5709,7.642,7.6792,7.8213,7.9904,8.1088,8.1054,8.0784,8.119,8.0716,8.0209,8.0209,8.0209,8.031,8.0716,8.075,8.1088,8.2238,8.234,8.2306,8.2306,8.1359,8.0987,8.1799,8.119,8.0716,0.0,0.0,0.0,0.0,0.0,8.3659,8.3998,8.4403,8.464,8.464,8.464,8.464,8.464,8.464,8.464,8.464,8.464,8.464,8.464,8.464,8.464,0.0,0.0,0.0,8.5283,8.5621,8.5587,8.5215,8.4776,8.464,8.464,8.464,8.464,8.464,0.0,0.0,0.0,0.0,0.0,0.0,0.0,0.0,0.0,0.0,0.0,0.0,0.0,0.0,0.0,0.0,0.0,0.0,0.0,0.0,0.0,0.0,0.0,6.453,6.2959,6.3675,6.5294,6.7715,6.8511,7.022,7.2679,7.2679,7.0881,6.7486,6.2749,6.0892,6.1298,6.0347,6.0452,6.1366,6.1975,0.0,0.0,0.0,0.0,0.0,0.0,0.0,0.0,6.9755,7.0838,7.1954,7.3849,0.0,0.0,0.0,0.0,0.0,7.6826,7.8517,8.004,8.004,8.0648,8.1257,8.1156,8.0648,8.0209,8.0209,8.0209,8.0276,8.0479,8.0851,8.1393,8.2272,8.2746,8.3118,8.3456,8.2205,8.1359,8.1596,8.1426,0.0,0.0,0.0,0.0,0.0,0.0,8.3964,8.4606,8.464,8.464,8.464,8.464,8.464,8.464,8.464,8.464,8.464,8.464,8.464,8.464,8.464,8.464,8.4674,0.0,0.0,8.4674,8.5452,8.5317,8.464,8.464,8.464,8.464,8.464,8.464,8.464,0.0,0.0,0.0,0.0,0.0,0.0,0.0,0.0,0.0,0.0,0.0,0.0,0.0,0.0,0.0,0.0,0.0,0.0,0.0,0.0,0.0,0.0,6.4694,6.4867,6.3889,6.4024,6.5249,6.7671,6.8513,7.0477,7.3523,7.3523,7.1431,6.7523,6.3287,6.1069,6.0521,5.9558,6.0013,6.1332,6.1434,0.0,0.0,0.0,0.0,0.0,0.0,0.0,0.0,7.0094,7.1515,7.3206,7.3544,0.0,0.0,0.0,0.0,0.0,7.7435,7.8517,7.9295,7.9295,8.0276,8.1122,8.0513,8.0276,8.0209,8.0209,8.0209,8.0581,8.1832,8.1122,8.0818,8.2205,8.146,8.1359,8.3219,8.2205,8.1731,8.3016,0.0,0.0,0.0,0.0,0.0,0.0,0.0,8.4505,8.4606,8.464,8.464,8.464,8.464,8.464,8.464,8.464,8.464,8.464,8.464,8.464,8.464,8.464,8.464,8.4674,0.0,8.5351,8.4674,8.5452,8.5317,8.464,8.464,8.464,8.464,8.464,8.464,8.464,0.0,0.0,0.0,0.0,0.0,0.0,0.0,0.0,0.0,0.0,0.0,0.0,0.0,0.0,0.0,0.0,0.0,0.0,0.0,0.0,0.0,0.0,6.4851,6.4872,6.4021,6.4469,6.5925,6.8348,6.9596,7.1835,7.4955,7.367,7.1358,6.8147,6.4058,6.1568,6.0379,6.0359,6.0666,6.1366,0.0,0.0,0.0,0.0,0.0,0.0,0.0,0.0,0.0,0.0,7.1988,7.3544,7.395,0.0,0.0,0.0,0.0,0.0,7.7096,7.8247,7.9194,7.96,8.0818,8.1799,8.146,8.1899,8.2163,8.1563,8.1899,8.2368,8.2376,8.1866,8.1629,8.2306,8.1832,8.1866,8.3287,8.2915,8.2577,0.0,0.0,0.0,0.0,0.0,0.0,0.0,0.0,0.0,8.464,8.464,8.464,8.464,8.464,8.464,8.464,8.464,8.464,8.464,8.464,8.464,8.464,8.464,8.464,8.4674,0.0,8.5351,8.4674,8.5452,8.5317,8.464,8.464,8.464,8.464,8.464,8.464,8.464,0.0,0.0,0.0,0.0,0.0,0.0,0.0,0.0,0.0,0.0,0.0,0.0,0.0,0.0,0.0,0.0,0.0,0.0,0.0,0.0,6.5139,6.414,6.4636,6.4658,6.3961,6.5221,6.7063,6.9486,7.1284,7.3707,7.6644,7.4221,7.1762,6.9284,6.5618,6.2928,6.1255,6.1708,6.1998,6.2178,0.0,0.0,0.0,0.0,0.0,0.0,0.0,0.0,0.0,0.0,0.0,0.0,0.0,0.0,0.0,7.5642,7.5709,7.5946,7.7096,7.8111,7.9092,8.0175,8.1291,8.2137,8.2137,8.2713,8.3036,8.2072,8.2576,8.3139,8.2513,8.2543,8.2543,8.2205,8.2306,8.2678,8.3389,8.349,0.0,0.0,0.0,0.0,0.0,0.0,0.0,0.0,0.0,0.0,8.464,8.464,8.464,8.464,8.464,8.464,8.464,8.464,8.464,8.464,8.464,8.464,8.464,8.464,8.464,8.464,8.5249,8.5182,8.4674,8.5249,8.5182,8.464,8.464,8.464,8.464,8.464,8.464,8.464,0.0,0.0,0.0,0.0,0.0,0.0,0.0,0.0,0.0,0.0,0.0,0.0,0.0,0.0,0.0,0.0,0.0,0.0,0.0,0.0,6.5696,6.4085,0.0,6.4001,6.4061,6.6366,6.8715,7.1138,7.3487,7.5946,7.8369,7.5909,7.345,7.1007,6.845,6.5966,6.3524,6.359,6.3927,6.4309,6.3734,0.0,0.0,0.0,0.0,0.0,0.0,0.0,0.0,0.0,0.0,0.0,0.0,0.0,7.483,7.5506,7.5709,7.6183,7.8348,7.8517,7.8551,8.0682,8.1291,8.1359,8.1359,8.0919,8.0445,8.0344,8.0445,8.0851,8.2137,8.2949,8.2949,8.1596,8.1968,8.2678,8.3389,0.0,0.0,0.0,0.0,0.0,0.0,0.0,0.0,0.0,0.0,0.0,8.464,8.464,8.464,8.464,8.464,8.464,8.464,8.464,8.464,8.464,8.464,8.464,8.464,8.464,8.464,8.464,8.4674,8.4674,8.464,8.4674,8.4674,8.464,8.464,8.464,8.464,8.464,8.464,8.464,0.0,0.0,0.0,0.0,0.0,0.0,0.0,0.0,0.0,0.0,0.0,0.0,0.0,0.0,0.0,0.0,0.0,0.0,0.0,0.0,6.494,6.4821,6.3782,6.3925,6.5558,6.6955,6.9581,7.356,7.6497,7.8442,7.9286,7.6313,7.3891,7.1945,6.8986,6.6247,6.3902,6.428,6.4235,6.3971,6.4613,6.5493,0.0,0.0,0.0,0.0,0.0,0.0,0.0,0.0,7.2326,7.3105,7.3206,7.4187,7.5236,7.5067,7.5337,7.6082,7.7908,7.8213,7.8517,8.0716,8.1291,8.1291,8.1291,8.2408,8.3152,8.2445,8.251,8.2604,8.2376,8.2644,8.2644,8.2069,8.2611,8.3186,0.0,0.0,0.0,0.0,0.0,0.0,0.0,0.0,0.0,0.0,0.0,0.0,0.0,8.464,8.464,8.464,8.464,8.464,8.464,8.464,8.464,8.464,8.464,8.464,8.464,8.464,8.464,8.464,8.464,8.464,8.464,8.464,8.464,8.464,8.464,8.464,8.464,8.464,8.464,8.464,0.0,0.0,0.0,0.0,0.0,0.0,0.0,0.0,0.0,0.0,0.0,0.0,0.0,0.0,0.0,0.0,0.0,0.0,6.4934,6.464,6.4501,6.451,6.3617,6.4164,6.6409,6.7715,7.0593,7.5285,7.8552,7.991,7.936,7.6864,7.4551,7.2386,7.0183,6.7751,6.5353,6.5817,6.5503,6.4647,6.5628,6.6339,0.0,0.0,0.0,0.0,0.0,0.0,0.0,0.0,7.2157,7.2834,7.3037,7.3984,7.4999,7.4965,7.5642,7.669,7.801,7.8517,7.916,8.1156,8.146,8.1291,8.1291,8.2681,8.3731,8.2682,8.2952,8.2943,8.1936,8.2272,8.2678,8.2441,8.3219,8.3862,0.0,0.0,0.0,0.0,0.0,0.0,0.0,0.0,0.0,0.0,0.0,0.0,0.0,8.464,8.464,8.464,8.464,8.464,8.464,8.464,8.464,8.464,8.464,8.464,8.464,8.464,8.464,8.464,8.464,8.464,8.464,8.464,8.464,8.464,8.464,8.464,8.464,8.464,8.464,8.464,0.0,0.0,0.0,0.0,0.0,0.0,0.0,0.0,0.0,0.0,0.0,0.0,0.0,0.0,0.0,0.0,0.0,0.0,6.409,6.4861,6.4546,6.2888,6.3517,6.4671,6.6319,6.8775,7.2035,7.613,7.9396,8.0167,7.8552,7.7708,7.5579,7.2496,7.2496,7.1014,6.8504,6.8504,6.7835,6.6812,6.6812,6.6812,6.6812,0.0,0.0,0.0,0.0,0.0,0.0,0.0,7.1921,7.1718,7.3883,7.4086,7.3781,7.5236,7.6758,7.8145,7.8889,7.9634,8.0547,8.2035,8.1832,8.1291,8.1291,8.1291,8.1088,8.0344,8.0784,8.1088,8.0344,8.2002,8.3253,8.2543,8.3659,0.0,0.0,0.0,0.0,0.0,0.0,0.0,0.0,0.0,0.0,0.0,0.0,0.0,0.0,8.464,8.464,8.464,8.464,8.464,8.464,8.464,8.464,8.464,8.464,8.464,8.464,8.464,8.464,8.464,8.464,8.464,8.464,8.464,8.464,8.464,8.464,8.464,8.464,8.464,8.464,8.464,0.0,0.0,0.0,0.0,0.0,0.0,0.0,0.0,0.0,0.0,0.0,0.0,0.0,0.0,0.0,0.0,0.0,0.0,6.4053,6.3759,6.3584,6.3669,6.3341,6.3925,6.5569,6.9624,7.3726,7.7855,7.7539,7.7502,7.7671,7.5607,7.415,7.3303,7.2753,7.1417,6.9519,6.8816,6.7931,6.6986,6.6874,6.6812,6.6812,0.0,0.0,0.0,0.0,0.0,0.0,0.0,0.0,0.0,7.2259,7.3544,7.4931,7.4322,7.5608,7.7401,7.8111,7.8855,7.9667,8.0615,8.146,8.1799,8.075,8.0919,8.1088,8.0344,8.119,8.2002,8.1799,8.2712,8.3592,8.393,0.0,0.0,0.0,0.0,0.0,0.0,0.0,0.0,0.0,0.0,0.0,0.0,0.0,0.0,0.0,8.464,8.464,8.464,8.464,8.464,8.464,8.464,8.464,8.464,8.464,8.464,8.464,8.464,8.464,8.464,8.464,8.464,8.464,8.464,8.464,8.464,8.464,8.464,8.464,8.464,8.464,8.464,0.0,0.0,0.0,0.0,0.0,0.0,0.0,0.0,0.0,0.0,6.2805,6.2805,0.0,0.0,0.0,0.0,0.0,0.0,6.3539,6.3099,6.3025,6.3576,6.3099,6.3863,6.6097,7.0014,7.3493,7.661,7.5798,7.5713,7.6289,7.5386,7.4506,7.3707,7.4221,7.3106,7.0843,6.9557,6.8645,6.8055,6.7462,6.7267,6.7325,0.0,0.0,0.0,0.0,0.0,0.0,0.0,0.0,0.0,7.2225,7.3612,7.5202,7.4931,7.6251,7.801,7.9025,7.9837,8.0615,8.1325,8.1731,8.1731,8.0818,8.0953,8.1257,8.1122,8.1799,8.2408,8.2408,8.3016,0.0,0.0,0.0,0.0,0.0,0.0,0.0,0.0,0.0,0.0,0.0,0.0,0.0,0.0,0.0,0.0,0.0,8.464,8.464,8.464,8.464,8.464,8.464,8.464,8.464,8.464,8.464,8.464,8.464,8.464,8.464,8.464,8.464,8.464,8.464,8.464,8.464,8.464,8.464,8.464,8.464,8.464,8.464,8.464,0.0,0.0,0.0,0.0,0.0,0.0,0.0,0.0,0.0,6.2805,6.2805,6.2805,0.0,0.0,0.0,6.2805,6.2805,6.2805,6.2805,6.2805,6.2805,6.2805,6.2879,6.44,6.7439,6.9821,7.1719,7.3074,7.3946,7.4486,7.4845,7.6155,7.5749,7.4001,7.6313,7.5552,7.2496,7.08,6.9955,6.9672,6.8567,6.8104,6.8215,6.791,0.0,0.0,0.0,0.0,0.0,0.0,0.0,0.0,7.324,7.4052,7.4965,7.6318,7.7841,7.9397,8.0716,8.1731,8.2543,8.3152,8.2272,8.1291,8.1359,8.1426,8.1663,8.2272,8.2475,8.2509,8.2509,8.3118,0.0,0.0,0.0,0.0,0.0,0.0,0.0,0.0,0.0,0.0,0.0,0.0,0.0,0.0,0.0,0.0,0.0,8.464,8.464,8.464,8.464,8.464,8.464,8.464,8.464,8.464,8.464,8.464,8.464,8.464,8.464,8.464,8.464,8.464,8.464,8.464,8.464,8.464,8.464,8.464,8.464,8.464,8.464,8.464,0.0,0.0,0.0,0.0,0.0,0.0,0.0,0.0,6.2805,6.2805,6.2805,6.2805,6.2805,6.2805,0.0,6.2805,6.2805,6.2805,6.2805,6.2805,6.2805,6.2805,6.3466,6.5029,6.7616,6.8788,6.9529,6.9823,7.1079,7.2485,7.4001,7.4104,7.4604,7.5616,7.679,7.6521,7.5165,7.3428,7.195,7.074,6.9596,6.8794,6.8068,6.7331,6.6948,0.0,0.0,0.0,0.0,0.0,0.0,0.0,7.3071,7.439,7.5405,7.5168,7.6995,7.9194,7.9498,8.0953,8.2306,8.1866,8.1528,8.1426,8.2035,8.2611,8.2915,8.2509,8.2881,8.3253,8.3253,0.0,0.0,0.0,0.0,0.0,0.0,0.0,0.0,0.0,0.0,0.0,0.0,0.0,0.0,0.0,0.0,0.0,8.464,8.464,8.464,8.464,8.464,8.464,8.464,8.464,8.464,0.0,8.464,8.464,8.464,8.464,8.464,8.464,8.464,8.464,8.464,8.464,8.464,8.464,8.464,8.464,8.464,8.464,8.464,8.464,0.0,0.0,0.0,0.0,0.0,0.0,0.0,0.0,6.2805,6.2805,6.2805,6.2658,6.2291,6.2218,0.0,0.0,6.1998,6.2218,6.2218,6.2585,6.2989,6.3392,6.4237,6.5437,6.6988,6.7825,6.8416,6.8678,6.942,7.0503,7.2,7.4104,7.5489,7.6203,7.8185,7.8185,7.6546,7.4776,7.3414,7.2289,7.1161,7.0261,6.9458,6.8438,6.7762,6.7454,6.6946,0.0,0.0,0.0,0.0,0.0,0.0,0.0,7.5709,7.5709,7.7063,7.8788,7.987,8.0987,8.1765,8.1393,8.1291,8.1494,8.2238,8.2983,8.349,8.349,8.3761,8.4031,0.0,0.0,0.0,0.0,0.0,0.0,0.0,0.0,0.0,0.0,0.0,0.0,0.0,0.0,0.0,0.0,0.0,8.464,8.464,8.464,8.464,8.464,8.464,8.464,8.464,8.464,8.464,8.464,8.464,8.464,8.464,8.464,8.464,8.464,8.464,8.464,8.464,8.464,8.464,8.464,8.464,8.464,8.464,8.464,8.464,8.4674,0.0,0.0,0.0,0.0,0.0,0.0,0.0,0.0,0.0,6.2805,6.2805,6.2511,6.1704,6.1594,6.1263,0.0,0.0,0.0,6.1594,6.2365,6.3209,6.4053,6.4861,6.5532,6.6089,6.7234,6.7779,6.7725,6.8599,6.9215,6.9669,7.4271,7.6505,7.6644,7.9213,7.9396,7.7609,7.5916,7.467,7.3809,7.2824,7.2009,7.1218,7.0117,6.9115,6.8378,6.7616,6.757,6.8048,6.8999,0.0,0.0,0.0,0.0,7.5506,7.642,7.7299,7.8382,8.0209,8.0919,8.1122,8.1257,8.1291,8.1494,8.2238,8.2983,8.3693,8.4471,8.464,0.0,0.0,0.0,0.0,0.0,0.0,0.0,0.0,0.0,0.0,0.0,0.0,0.0,0.0,0.0,0.0,0.0,0.0,8.464,8.464,8.464,8.464,8.464,8.464,8.464,8.464,8.464,8.464,8.464,8.464,8.464,8.464,8.464,8.464,8.464,8.464,8.464,8.464,8.464,8.464,8.464,8.464,8.464,8.464,8.464,8.464,8.4708,0.0,0.0,0.0,0.0,0.0,0.0,0.0,0.0,0.0,0.0,6.2805,6.2511,6.1704,6.1594,6.1263,6.0456,6.1153,6.1594,6.1594,0.0,0.0,6.4053,6.4861,6.5359,6.5437,6.7598,6.7316,6.4402,6.8753,6.9828,6.782,7.2022,7.5524,7.8259,7.7965,7.8442,7.936,7.7657,7.6081,7.4749,7.4464,7.3483,7.204,7.1091,7.0236,6.9458,6.9349,6.8793,6.8369,6.982,6.9951,0.0,0.0,0.0,7.4052,7.5439,7.686,7.8044,7.8348,7.9363,8.0479,8.1122,8.1291,8.1494,8.2238,8.2983,8.3693,8.4471,8.464,0.0,0.0,0.0,0.0,0.0,0.0,0.0,0.0,0.0,0.0,0.0,0.0,0.0,0.0,0.0,0.0,0.0,8.464,8.464,8.464,8.464,8.464,8.464,8.464,8.464,8.464,8.464,8.464,8.464,8.464,8.464,8.464,8.464,8.464,8.464,8.464,8.464,8.464,8.464,8.464,8.464,8.464,8.464,8.464,8.464,8.464,8.464,0.0,0.0,0.0,0.0,0.0,0.0,0.0,0.0,0.0,0.0,0.0,6.2511,6.1704,6.1594,6.108,5.9832,6.0896,6.1777,6.2254,6.2622,6.3209,6.4053,6.442,6.4861,6.5301,6.6281,6.5983,6.4438,6.7605,6.9074,6.882,7.1621,7.4665,7.7855,7.7488,7.8222,7.969,7.8038,7.6644,7.5555,7.5541,7.5316,7.4888,7.306,7.2433,7.2329,7.0878,6.9774,6.9266,7.081,7.1063,7.0995,7.3069,0.0,0.0,0.0,7.5845,7.6995,7.828,7.9397,8.0276,8.0581,8.0987,8.1494,8.2238,8.2983,8.3592,8.393,0.0,0.0,0.0,0.0,0.0,0.0,0.0,0.0,0.0,0.0,0.0,0.0,0.0,0.0,0.0,0.0,0.0,0.0,8.464,8.464,8.464,8.464,8.464,8.464,8.464,8.464,8.464,8.464,8.464,8.464,8.464,8.464,8.464,8.464,8.464,8.464,8.464,8.464,8.464,8.464,8.464,8.464,8.464,8.464,8.464,8.464,8.464,8.4674,0.0,0.0,0.0,0.0,0.0,0.0,0.0,0.0,0.0,0.0,0.0,6.2511,6.1704,0.0,0.0,0.0,6.0493,6.163,6.2438,6.2511,6.2879,6.3723,6.398,6.4383,6.4971,6.5313,6.5154,6.465,6.6648,6.8135,6.9176,7.1431,7.4287,7.7541,7.7364,7.8222,7.969,7.8259,7.7157,7.646,7.6864,7.7268,7.7499,7.5952,7.5647,7.569,7.3141,7.1833,7.1374,7.1659,7.1693,7.1858,7.3273,7.3517,0.0,0.0,0.0,7.5845,7.7739,7.8923,7.9701,7.987,8.0479,8.1257,8.2205,8.2678,8.305,0.0,0.0,0.0,0.0,0.0,0.0,0.0,0.0,0.0,0.0,0.0,0.0,0.0,0.0,0.0,0.0,0.0,0.0,0.0,8.464,8.464,8.464,8.464,8.464,8.464,8.464,8.464,8.464,8.464,8.464,8.464,8.464,8.464,8.464,8.464,8.464,8.464,8.464,8.464,8.464,8.464,8.464,8.464,8.464,8.464,8.464,8.464,8.464,8.4708,0.0,0.0,0.0,0.0,0.0,0.0,0.0,0.0,0.0,0.0,0.0,6.2511,6.1704,6.1594,6.0933,5.9355,5.9979,6.0786,6.1594,6.1667,6.2034,6.2842,6.3649,0.0,6.4163,6.5616,6.5597,6.3836,6.6397,6.7486,6.7336,7.0793,7.4441,7.8128,7.755,7.8222,7.9727,7.8883,7.8038,7.7414,7.8956,7.9176,7.8699,8.0067,8.014,7.9187,7.6704,7.5689,7.5101,7.2113,7.1076,7.1195,7.2678,7.2442,7.216,0.0,0.0,0.0,7.5642,7.6961,7.828,7.8991,7.9701,8.0615,8.2069,8.19,8.1799,8.3219,0.0,0.0,0.0,0.0,0.0,0.0,0.0,0.0,0.0,0.0,0.0,0.0,0.0,0.0,0.0,0.0,0.0,0.0,8.464,8.464,8.464,8.464,8.464,8.464,8.464,8.464,8.464,8.464,8.464,8.464,8.464,8.464,8.464,8.464,8.464,8.464,8.464,8.464,8.464,8.464,8.464,8.464,8.464,8.464,8.464,8.464,8.464,8.464,0.0,0.0,0.0,0.0,0.0,0.0,0.0,0.0,0.0,0.0,0.0,0.0,0.0,6.1924,6.1153,6.0089,6.0236,6.097,6.2291,6.2365,6.2511,6.2805,6.3099,6.3539,6.409,6.5154,6.5368,6.4624,6.6649,6.8126,6.9019,7.1376,7.4311,7.7632,7.7987,7.9029,8.0461,7.9176,7.8405,7.8222,7.9323,8.0571,8.1709,8.1746,8.1929,8.1856,7.9947,7.818,7.661,7.5479,7.4378,7.3523,7.3931,7.3833,7.368,7.41,7.4878,7.5446,7.5085,7.6115,7.7468,7.8213,7.8957,8.0006,8.1968,8.1832,8.1562,8.2577,0.0,0.0,0.0,0.0,0.0,0.0,0.0,0.0,0.0,0.0,0.0,0.0,0.0,0.0,0.0,0.0,0.0,0.0,0.0,8.464,8.464,8.464,8.464,8.464,8.464,8.464,8.464,8.464,8.464,8.464,8.464,8.464,8.464,8.464,8.464,8.464,8.464,8.464,8.464,8.464,8.464,8.464,8.464,8.464,8.464,8.464,8.464,8.464,0.0,0.0,0.0,0.0,0.0,0.0,0.0,0.0,6.2805,6.2805,0.0,0.0,0.0,0.0,6.1667,6.086,6.0566,6.108,6.2695,6.2805,6.3062,6.3613,6.3649,6.4053,6.4897,6.5448,6.5624,6.5538,6.6713,6.7846,6.9125,7.1162,7.3788,7.6829,7.806,7.9176,8.0131,7.9323,7.8662,7.8295,7.9947,8.1232,8.2296,8.3104,8.3251,8.2884,8.1782,8.0351,7.8883,7.8332,7.7781,7.7181,7.6207,7.5484,7.4865,7.4229,7.4851,7.5517,7.4637,7.5586,7.7029,7.7502,7.8382,7.9634,8.1596,8.1629,8.1494,0.0,0.0,0.0,0.0,0.0,0.0,0.0,0.0,0.0,0.0,0.0,0.0,0.0,0.0,0.0,0.0,0.0,0.0,0.0,0.0,0.0,8.464,8.464,8.464,8.464,8.464,8.464,8.464,8.464,8.464,8.464,8.464,8.464,8.464,8.464,8.464,8.464,8.464,8.464,8.464,8.464,8.464,8.464,8.464,8.464,8.464,8.464,8.4776,8.4979,0.0,0.0,0.0,0.0,0.0,0.0,6.2879,0.0,6.2879,6.2842,0.0,0.0,0.0,0.0,0.0,6.1741,6.097,6.119,6.2768,6.2879,6.3613,6.5228,6.5301,6.5705,6.6476,6.6512,6.6519,6.6464,6.6464,6.6729,6.7406,7.0015,7.2886,7.5855,7.7733,7.8589,7.8662,7.9433,7.8846,7.7671,8.0865,8.1269,8.0351,8.4278,8.4352,8.2333,8.2333,8.2296,0.0,8.0424,8.0901,8.1709,7.9323,7.7283,7.5649,7.461,7.4657,7.4876,0.0,0.0,0.0,7.6792,7.7908,7.9397,8.0885,8.1224,8.146,0.0,0.0,0.0,0.0,0.0,0.0,0.0,0.0,0.0,0.0,0.0,0.0,0.0,0.0,0.0,0.0,0.0,0.0,0.0,8.464,8.464,8.464,8.464,8.464,8.464,8.464,8.464,8.464,8.464,8.464,8.464,8.464,8.464,8.464,8.464,8.464,8.464,8.464,8.464,8.464,8.464,8.464,8.464,8.464,8.464,8.464,8.464,8.5114,8.5655,0.0,0.0,0.0,0.0,0.0,6.5301,6.4714,6.4604,6.442,0.0,0.0,0.0,6.2952,6.2805,6.2952,6.3356,6.3209,6.3503,6.4567,6.4604,6.4824,6.5301,6.5301,6.5705,6.6476,6.6512,6.6773,6.7341,6.7341,6.8033,6.9368,7.1245,7.3227,7.5212,7.7547,7.8589,7.8589,7.8846,7.8993,7.925,8.0718,8.2113,8.3471,8.5159,8.5747,0.0,0.0,8.4939,8.3765,0.0,8.1525,8.0131,7.8259,7.7302,7.6563,7.483,7.5747,7.6518,7.2932,0.0,0.0,0.0,0.0,0.0,7.9228,0.0,0.0,0.0,0.0,0.0,0.0,0.0,0.0,0.0,0.0,0.0,0.0,0.0,0.0,0.0,0.0,0.0,0.0,0.0,0.0,0.0,8.464,8.464,8.464,8.464,8.464,8.464,8.464,8.464,8.464,8.464,8.464,8.464,8.464,8.464,8.464,8.464,8.464,8.464,8.464,8.464,8.464,8.464,8.464,8.464,8.464,8.464,8.464,8.464,8.4776,8.4979,0.0,0.0,6.8898,6.7283,6.699,6.6733,6.5925,6.6109,6.5999,0.0,0.0,0.0,6.4457,6.4934,6.5301,6.5118,6.5081,6.5301,6.5778,6.5815,6.5962,6.6292,6.6292,6.6696,6.7467,6.7173,6.7393,6.8201,6.7834,6.8348,6.9633,7.1248,7.2863,7.4478,7.6607,7.7928,7.8589,7.8222,7.8736,7.9874,8.1048,8.215,8.3287,8.5086,8.5453,0.0,0.0,0.0,8.4168,8.4719,8.3067,0.0,7.9653,7.8405,7.7082,7.5891,7.6802,7.7486,7.4391,7.5016,7.6311,7.4737,0.0,0.0,7.8991,7.9329,0.0,0.0,0.0,0.0,0.0,0.0,0.0,0.0,0.0,0.0,0.0,0.0,0.0,0.0,0.0,0.0,0.0,0.0,8.464,8.464,8.464,8.464,8.464,8.464,8.464,8.464,8.464,8.464,8.464,8.464,8.464,8.464,8.464,8.464,8.464,8.464,8.464,8.464,8.464,8.464,8.464,8.464,8.464,8.464,8.464,8.464,8.464,8.464,8.4843,8.5114,0.0,0.0,6.9926,6.8458,6.8201,6.7981,6.7283,6.7687,6.7797,0.0,6.6806,6.688,6.7136,6.8274,6.8495,6.7136,6.688,6.6769,6.6769,6.6696,6.6953,6.765,6.7797,6.8128,6.8752,6.8128,6.8128,6.8788,6.8054,6.8164,6.9082,7.0697,7.2312,7.3891,7.5506,7.7157,7.8662,7.7708,7.8442,8.0314,8.1562,8.1782,0.0,0.0,8.4499,8.2994,8.5159,8.5013,8.4095,8.6077,8.4829,0.0,8.215,8.0131,7.7756,7.7511,7.7983,7.8386,7.6956,7.7017,7.7213,7.5968,7.5669,0.0,7.9194,7.9397,0.0,0.0,0.0,0.0,0.0,0.0,0.0,0.0,0.0,0.0,0.0,0.0,0.0,0.0,0.0,0.0,0.0,8.4437,8.4505,8.4505,8.4573,8.464,8.464,8.464,8.464,8.464,8.464,8.464,8.464,8.464,8.464,8.464,8.464,8.464,8.464,8.464,8.464,8.464,8.464,8.464,8.464,8.464,8.464,8.464,8.464,8.464,8.464,8.464,8.5046,8.5587,7.0734,7.1505,7.1945,7.1615,7.1578,7.1505,7.1358,7.0917,7.033,6.9486,6.8825,6.9192,7.1138,7.044,7.0,7.033,6.9192,6.8421,6.8421,6.7834,6.754,6.7687,6.8311,6.8458,6.7944,6.8421,6.8421,6.7907,6.776,6.8421,6.9889,7.1505,7.312,7.4735,7.635,7.8002,7.947,7.7965,7.9396,8.2627,8.1636,8.2296,8.4058,8.5306,8.5894,8.6151,8.6591,8.6554,8.6187,8.5343,8.4646,8.3801,8.1856,8.1232,8.0809,7.8654,7.9657,8.0709,7.758,7.7665,7.8095,7.5812,7.547,0.0,7.7266,7.7874,7.8855,0.0,0.0,0.0,0.0,0.0,0.0,0.0,0.0,0.0,0.0,0.0,0.0,0.0,0.0,0.0,0.0,8.3389,8.3727,8.3727,8.4268,8.464,8.464,8.464,8.464,8.464,8.464,8.464,8.464,8.464,8.464,8.464,8.464,8.464,8.464,8.464,8.464,8.464,8.464,8.464,8.464,8.464,8.464,8.464,8.464,8.464,8.464,8.464,8.4708,8.4911,7.1138,7.1945,7.2496,7.2496,7.3156,7.356,7.3156,7.345,7.3266,7.2055,7.1908,7.2055,7.2459,7.2496,7.2165,7.1394,7.0587,6.9779,6.8972,6.8531,6.8128,6.7724,6.8458,6.8898,6.8898,6.9302,6.9302,6.8898,6.8495,6.8715,6.9559,7.1578,7.356,7.5542,7.679,7.8699,8.0828,7.8369,7.9433,8.2737,8.1929,0.0,8.5343,8.6518,8.7252,8.7655,8.8059,8.8206,8.7949,8.6334,8.5527,0.0,8.2847,8.2186,8.1791,7.9609,8.0246,8.108,7.8674,7.8588,7.8966,7.7896,7.6782,0.0,0.0,7.8394,7.828,0.0,0.0,0.0,0.0,0.0,0.0,0.0,0.0,0.0,0.0,0.0,0.0,0.0,0.0,0.0,0.0,8.3828,8.4065,8.4065,8.4403,8.464,8.464,8.464,8.464,8.464,8.464,8.464,8.464,8.464,8.464,8.464,8.464,8.464,8.464,8.464,8.464,8.464,8.464,8.464,8.464,8.464,8.464,8.464,8.464,8.464,8.464,8.464,8.464,8.4674,7.1358,7.2055,7.2569,7.2716,7.3927,7.4735,7.4221,7.5285,7.5616,7.4331,7.4882,7.4992,7.4001,7.4918,7.4918,7.3083,7.2496,7.1541,6.9926,6.9816,6.9486,6.8641,6.9265,6.9889,7.055,7.0403,7.0257,7.011,6.9302,6.9155,6.9633,7.1578,7.3891,7.6387,7.7378,7.925,8.1562,7.8919,7.958,8.2406,0.0,8.3544,8.5747,8.7545,8.8206,8.8316,8.9124,8.9417,8.9197,8.7729,8.6811,8.5967,8.4389,8.3508,8.2774,8.1012,8.1048,8.1505,8.047,8.0117,8.0115,8.0463,7.8644,7.7613,0.0,0.0,0.0,0.0,0.0,0.0,0.0,0.0,0.0,0.0,0.0,0.0,0.0,0.0,0.0,0.0,0.0,0.0,0.0,8.42,8.4302,8.4606,8.4505,8.4471,8.4606,8.464,8.464,8.464,8.464,8.464,8.464,8.464,8.464,8.464,8.464,8.464,8.464,8.464,8.464,8.464,8.464,8.464,8.464,8.464,8.464,8.464,8.464,8.464,8.464,8.464,8.464,8.464,7.2055,7.2459,7.2716,7.345,7.4294,7.5139,7.5726,7.5983,7.6019,7.5836,7.6533,7.7524,7.8809,7.8479,7.8369,7.8772,7.6827,0.0,7.3266,7.3156,7.2789,7.1982,7.2055,7.2129,7.2239,7.1541,7.0807,7.011,6.9302,7.0,7.2092,7.2386,7.4184,7.7268,7.8809,7.969,8.0021,7.9653,8.0975,8.3214,8.248,8.3214,0.0,8.7325,8.8206,8.8316,8.9124,8.9417,8.9271,0.0,8.7986,8.7655,8.604,8.5967,8.6004,8.3691,8.3581,8.4022,8.3154,8.2754,8.2316,8.1737,8.0459,7.9207,7.8965,0.0,7.8179,7.9261,0.0,0.0,0.0,0.0,0.0,0.0,0.0,0.0,8.2644,0.0,0.0,0.0,0.0,0.0,0.0,0.0,8.3219,8.4539,8.3998,8.393,8.4606,8.464,8.464,8.464,8.464,8.464,8.464,8.464,8.464,8.464,8.464,8.464,8.464,8.464,8.464,8.464,8.464,8.464,8.464,8.464,8.464,8.464,8.464,8.464,8.464,8.464,8.464,8.464,7.2165,7.2496,7.2753,7.356,7.4735,7.5726,7.6056,7.6497,7.6974,7.7488,7.7855,7.8516,7.9653,7.8626,7.8369,7.969,0.0,7.6313,0.0,0.0,7.3817,7.2569,7.2055,7.2239,7.3193,7.2422,7.1835,7.1505,7.0697,7.0807,7.1835,7.2753,7.4661,7.7378,7.9029,8.0571,8.1819,8.0901,8.1636,0.0,0.0,0.0,0.0,8.7986,8.9491,9.0335,9.0665,9.0812,9.0665,0.0,8.9271,0.0,8.8096,8.7472,8.6628,8.4682,8.4022,8.3654,8.237,8.2617,8.3077,8.2855,8.2205,8.1378,8.0394,7.9158,7.8298,7.8477,0.0,0.0,0.0,0.0,0.0,0.0,8.0378,0.0,0.0,0.0,8.2171,0.0,0.0,0.0,0.0,0.0,0.0,0.0,0.0,8.4302,8.4606,8.464,8.464,8.464,8.464,8.464,8.464,8.464,8.464,8.464,8.464,8.464,8.464,8.464,8.464,8.464,8.464,8.464,8.464,8.464,8.464,8.464,8.464,8.464,8.464,8.464,8.464,8.464,7.2165,7.2496,7.2679,7.3266,7.4698,7.5909,7.635,7.6937,7.7635,7.8479,7.8772,7.9396,8.0645,7.9727,7.9653,8.1305,8.0131,7.8883,0.0,0.0,7.6166,7.5212,7.3523,0.0,7.5322,7.3927,7.3156,7.3156,7.2349,7.2202,7.2642,7.3597,7.5322,7.7745,7.9396,8.1085,8.27,8.1966,8.248,8.3765,8.3985,8.5306,8.7325,8.9087,9.0592,9.1803,9.1803,9.1803,9.1693,9.0886,9.0225,0.0,8.9491,8.8463,8.7068,8.5673,8.4682,8.3801,8.2627,8.3177,8.4022,8.3801,8.3334,8.271,8.1684,8.0224,7.9108,7.9091,7.9457,0.0,0.0,0.0,7.9532,7.9837,0.0,7.9972,0.0,8.1325,0.0,0.0,0.0,0.0,0.0,0.0,0.0,0.0,0.0,0.0,8.4606,8.464,8.464,8.464,8.464,8.464,8.464,8.464,8.464,8.464,8.464,8.464,8.464,8.464,8.464,8.464,8.464,8.464,8.464,8.464,8.464,8.464,8.464,8.464,8.464,8.464,8.464,8.464,7.2165,7.2496,7.2496,7.2532,7.3891,7.5469,7.7047,7.7304,7.7635,7.8479,0.0,0.0,0.0,0.0,0.0,0.0,0.0,8.3691,8.2113,0.0,8.1122,0.0,0.0,7.7084,0.0,7.646,7.4845,7.4845,7.4037,7.4404,7.5946,7.5212,7.6203,7.8626,8.0241,8.1012,8.1195,8.27,8.3801,8.4646,8.5416,8.7619,9.0445,0.0,9.1069,9.1803,9.1803,0.0,0.0,9.0886,9.0592,0.0,0.0,0.0,8.7986,8.7178,8.6371,8.571,8.5637,8.5673,8.5527,8.4756,8.3735,8.2827,8.1958,8.1153,8.0813,8.1574,8.1479,8.119,8.119,8.0615,7.9938,7.9261,7.9735,0.0,0.0,8.0242,0.0,0.0,0.0,0.0,0.0,0.0,0.0,0.0,0.0,0.0,8.4539,8.464,8.464,8.464,8.464,8.464,8.464,8.464,8.464,8.464,8.464,8.464,8.464,8.464,8.464,8.464,8.464,8.464,8.464,8.464,8.464,8.464,8.464,8.464,8.464,8.464,8.464,8.464,7.3162,7.3707,7.3744,7.2679,7.3854,7.5652,7.7855,7.8148,0.0,0.0,0.0,0.0,0.0,0.0,8.4278,0.0,0.0,8.4389,8.3838,8.2553,0.0,0.0,0.0,7.7818,0.0,7.7084,7.5689,7.5689,7.4882,7.5065,7.6093,7.5836,7.6423,7.7818,7.947,8.0791,8.1856,8.2957,8.4499,8.6334,0.0,8.883,8.9931,0.0,0.0,9.1803,9.1803,9.1803,0.0,9.1473,9.1033,9.0665,9.0922,9.0078,8.894,8.8683,8.8023,0.0,0.0,0.0,8.7729,8.5857,8.5943,8.5809,8.3192,8.2793,8.2714,8.1797,8.226,8.2313,8.0578,8.0424,8.0241,7.9226,7.8889,7.8889,0.0,7.9464,0.0,0.0,0.0,0.0,0.0,0.0,0.0,0.0,0.0,0.0,0.0,8.4167,8.4099,8.4606,8.464,8.464,8.464,8.464,8.464,8.464,8.464,8.464,8.464,8.464,8.464,8.464,8.464,8.464,8.464,8.464,8.464,8.464,8.464,8.464,8.464,8.464,8.464,8.464,7.4811,7.5095,7.4992,7.3964,7.5139,7.6754,7.8369,7.9103,0.0,0.0,8.2443,0.0,8.5563,0.0,8.5013,0.0,8.604,8.5453,8.5453,8.3948,0.0,8.3875,8.0791,0.0,0.0,0.0,7.7708,7.7414,7.6607,7.6313,7.6533,7.6533,7.6827,7.7378,7.8736,8.0424,8.226,8.3067,8.4976,8.7582,0.0,9.0005,0.0,0.0,9.162,9.14,0.0,9.1803,9.1803,9.1803,9.1473,9.1106,9.1657,9.0886,8.9858,8.9858,8.9271,8.85,8.7986,8.861,0.0,8.7105,8.7435,0.0,8.5373,8.5149,8.5159,8.4237,8.4278,8.4051,8.2556,8.1722,8.1007,8.0624,7.9525,7.8855,0.0,7.9126,0.0,0.0,0.0,0.0,0.0,0.0,0.0,0.0,0.0,0.0,0.0,0.0,8.3862,8.4606,8.437,8.4336,8.464,8.464,8.464,8.464,8.464,8.464,8.464,8.464,8.464,8.464,8.464,8.464,8.464,8.464,8.464,8.464,8.464,8.464,8.464,8.464,8.464,8.464,7.708,7.677,7.6387,7.6313,7.7561,7.8626,7.8699,0.0,8.1379,0.0,8.303,8.4132,8.5673,8.5857,8.6151,8.6921,8.6995,0.0,8.6995,8.5527,0.0,0.0,8.3985,8.303,8.4572,0.0,0.0,7.9837,7.8993,7.8185,7.7378,7.7378,7.7378,7.7414,7.8259,7.9984,8.2296,8.3104,8.5306,8.839,9.0005,9.1106,9.173,9.1767,9.1289,9.0702,9.151,9.1803,9.1803,9.1803,9.1803,9.1803,9.1803,9.1289,9.0665,9.0665,9.0115,8.9528,8.9528,8.9528,8.9344,8.8536,0.0,0.0,0.0,0.0,8.7992,8.8678,8.7396,8.6344,8.6895,8.4347,8.2338,8.2974,8.141,7.9904,7.9261,7.9126,7.8855,0.0,0.0,0.0,0.0,0.0,0.0,0.0,0.0,0.0,0.0,0.0,8.3795,8.4606,8.3964,8.393,8.4606,8.4674,8.4674,8.464,8.464,8.464,8.464,8.464,8.464,8.464,8.464,8.464,8.464,8.464,8.464,8.464,8.464,8.464,8.464,8.464,8.464,8.464,7.8906,7.9889,8.0241,7.9066,7.8699,7.8993,0.0,0.0,0.0,0.0,8.4682,8.5563,8.6591,8.6701,8.6775,8.6995,8.6995,0.0,0.0,0.0,0.0,8.6958,8.5049,8.4168,8.4609,8.281,0.0,8.0681,7.9286,7.8479,7.8259,7.8259,7.8259,7.8295,7.914,8.0828,8.3104,8.3324,8.56,8.9234,9.0849,9.1253,9.0959,0.0,9.1289,9.0702,9.151,9.1803,9.1803,9.1803,9.1803,9.1803,9.1803,9.1657,9.1473,9.1473,9.1363,9.1179,9.1179,9.1179,9.0996,9.0188,8.9968,8.9821,0.0,0.0,0.0,0.0,8.931,8.8858,8.6989,8.5903,8.4669,8.2592,8.0624,7.9532,7.987,7.9464,0.0,7.96,0.0,0.0,0.0,0.0,0.0,0.0,0.0,0.0,0.0,0.0,0.0,8.4573,8.5012,8.5012,8.464,8.5182,8.5182,8.464,8.464,8.464,8.464,8.464,8.464,8.464,8.464,8.464,8.464,8.464,8.464,8.464,8.464,8.464,8.464,8.464,8.464,8.464,8.1178,8.1745,8.1893,8.1012,8.0755,0.0,8.1452,0.0,0.0,8.5013,8.6114,0.0,8.7472,8.7839,8.7912,8.7582,8.7876,0.0,0.0,0.0,0.0,8.7509,8.6664,8.6004,8.5673,8.4425,0.0,8.2076,8.0461,7.947,7.9103,7.8772,7.8772,7.914,7.958,8.0938,8.2994,8.4756,8.7031,8.9564,9.1143,9.1546,0.0,9.162,9.151,9.1179,9.1657,9.1803,9.1803,9.1803,9.1803,9.1803,9.1803,9.1803,9.1803,9.1803,9.1803,9.1803,9.1803,9.1803,9.1693,9.1253,9.1106,9.1033,9.0555,9.0812,9.0996,0.0,9.0812,9.0667,0.0,8.7539,8.5356,8.1896,8.0145,7.9261,7.9667,7.9363,0.0,0.0,8.0547,0.0,0.0,0.0,0.0,0.0,0.0,0.0,0.0,0.0,0.0,8.4573,8.4742,8.4742,8.464,8.5046,8.5046,8.464,8.464,8.464,8.464,8.464,8.464,8.464,8.464,8.464,8.464,8.464,8.464,8.464,8.464,8.464,8.464,8.464,8.464,8.464,8.3527,8.3016,8.2627,8.2517,8.3177,0.0,0.0,8.4352,0.0,8.5783,0.0,8.7912,8.8023,8.8683,8.883,8.8096,0.0,8.8977,8.8243,8.8977,8.9087,8.839,8.8353,8.7986,8.7178,8.6371,0.0,0.0,8.1966,8.0755,7.991,7.925,7.9286,7.9947,8.0057,8.1012,8.2774,8.6591,8.8683,8.9564,9.1143,9.1803,9.1803,9.1803,9.1803,9.1803,9.1803,9.1803,9.1803,9.1803,9.1803,9.1803,9.1803,9.1803,9.1803,9.1803,9.1803,9.1803,9.1803,9.1803,9.1803,9.1803,9.1803,9.1803,9.1803,9.1803,9.1803,9.1803,9.1803,9.1767,0.0,8.8865,8.5473,8.1798,8.0234,7.9494,0.0,0.0,0.0,0.0,0.0,0.0,0.0,0.0,0.0,0.0,0.0,0.0,0.0,0.0,0.0,8.4573,8.4099,8.4065,8.4606,0.0,8.4708,8.464,8.464,8.464,8.464,8.464,8.464,8.464,8.464,8.464,8.464,8.464,8.464,8.464,8.464,8.464,8.464,8.464,8.464,8.464,8.4961,8.516,8.4939,8.4315,8.4829,8.5306,8.5196,8.4939,8.5049,8.571,8.604,0.0,8.7142,8.7362,8.7362,8.7215,8.7949,0.0,0.0,0.0,0.0,8.9197,8.9197,8.883,8.8023,8.7215,8.6004,0.0,8.2774,8.1562,8.0791,8.0645,8.0645,8.0828,8.1489,8.2663,8.4352,8.7068,8.8683,8.9564,9.1143,9.1803,9.1803,9.1803,9.1803,9.1803,9.1803,9.1803,9.1803,9.1803,9.1803,9.1803,9.1803,9.1803,9.1803,9.1803,9.1803,9.1803,9.1803,9.1803,9.1803,9.1803,9.1803,9.1803,9.1803,9.1803,9.1803,9.1803,9.1803,9.1583,9.0922,0.0,0.0,8.442,8.2635,0.0,0.0,0.0,0.0,0.0,0.0,8.1629,0.0,0.0,0.0,0.0,0.0,0.0,0.0,0.0,0.0,0.0,8.5114,0.0,0.0,0.0,8.5249,8.464,8.464,8.464,8.464,8.464,8.464,8.464,8.464,8.464,8.464,8.464,8.464,8.464,8.464,8.464,8.464,8.464,8.464,8.464,8.5499,8.5345,8.5049,8.4682,0.0,0.0,0.0,8.6077,0.0,8.6371,8.7142,8.7655,8.7619,8.7986,8.8096,8.7655,8.8757,8.9271,8.8867,8.9968,9.0482,9.0041,9.0041,0.0,8.8867,8.8023,8.6848,8.5233,8.3618,8.2406,8.1599,8.1195,8.1232,8.1672,8.248,8.3471,8.4756,8.7178,0.0,8.9564,9.1143,9.1803,9.1803,9.1803,9.1803,9.1803,9.1803,9.1803,9.1803,9.1803,9.1803,9.1803,9.1803,9.1803,9.1803,9.1803,9.1803,9.1803,9.1803,9.1803,9.1803,9.1803,9.1803,9.1803,9.1803,9.1803,9.1803,9.1803,9.217,9.2097,9.0849,8.8974,0.0,0.0,0.0,0.0,0.0,0.0,8.203,0.0,0.0,0.0,0.0,0.0,0.0,0.0,8.1562,0.0,0.0,0.0,8.3084,0.0,0.0,0.0,0.0,0.0,0.0,8.464,8.5046,8.5012,8.464,8.5046,8.5012,8.464,8.464,8.464,8.464,8.464,8.464,8.464,8.464,8.464,8.464,8.464,8.464,8.464,8.6536,8.6078,8.5826,8.5826,8.6738,0.0,8.771,8.761,8.7472,8.7288,8.8059,8.8463,8.7986,8.8536,8.8647,8.7986,8.9271,8.9895,8.9454,9.0739,9.1326,9.0886,9.0849,9.0482,8.9674,8.905,8.7839,0.0,0.0,8.3581,8.2443,8.1819,8.1929,8.2737,8.3361,8.4205,8.527,0.0,8.8683,8.9564,9.1143,9.1803,9.1803,9.1803,9.1803,9.1803,9.1803,9.1803,9.1767,9.1583,9.1657,9.1767,9.1583,9.1657,9.1767,9.1583,9.1657,9.1803,9.1803,9.1803,9.1803,9.1803,9.1803,9.1803,9.1803,9.1803,9.1803,9.1803,9.2354,9.2391,9.0886,8.9529,0.0,0.0,0.0,0.0,0.0,0.0,8.4049,8.3289,8.3535,0.0,8.2069,0.0,0.0,7.9803,8.1291,8.2238,8.2408,0.0,0.0,0.0,0.0,8.4403,8.4403,0.0,8.464,8.464,8.5249,8.5317,8.4877,8.5317,8.5283,8.4877,8.4708,8.464,8.464,8.464,8.464,8.464,8.464,8.464,8.464,8.464,8.464,8.464,8.8941,8.934,0.0,0.0,0.0,0.0,0.0,8.9602,8.894,8.8169,8.6958,8.6371,8.7031,8.7178,8.7215,8.7142,8.7912,8.872,8.9381,9.0225,9.0996,9.1657,9.1693,9.1326,9.0519,9.0408,8.9234,0.0,0.0,8.5527,8.3287,8.3214,8.3618,8.4389,8.4462,8.5343,0.0,8.7802,8.8683,8.9564,9.1143,9.1803,9.1803,9.1803,9.1803,9.1803,9.1803,9.1803,9.1693,9.0959,9.1216,9.1657,9.0959,9.1216,9.1657,9.0922,9.1216,9.1803,9.1803,9.1803,9.1803,9.1803,9.1803,9.1803,9.1803,9.1803,9.1803,9.1803,9.184,9.1657,9.0776,9.1033,9.0554,0.0,0.0,0.0,0.0,0.0,8.4934,8.5587,8.3529,8.2603,0.0,8.0492,0.0,8.19,8.1663,8.1697,0.0,0.0,0.0,8.3592,0.0,8.3592,8.3592,8.4302,8.464,8.464,8.4708,8.5046,8.5655,8.5012,8.508,8.5621,8.4945,8.464,8.464,8.464,8.464,8.464,8.464,8.464,8.464,8.464,8.464,8.4708,0.0,0.0,0.0,0.0,0.0,0.0,0.0,9.0224,8.9307,8.8977,8.7949,8.7178,8.7031,8.6995,8.7215,8.7692,8.8023,8.8757,9.0041,9.0445,9.0959,9.1767,9.1803,9.1657,9.1326,9.0849,8.9895,0.0,0.0,0.0,8.4829,8.4352,8.4278,8.4609,8.5086,8.5967,8.7105,8.839,8.9381,9.0225,9.1363,9.1803,9.1803,9.1803,9.1803,9.1803,9.1803,9.1803,9.1693,9.0886,9.0812,9.0959,9.0152,9.0445,9.1033,9.0702,9.1179,9.1803,9.1803,9.1803,9.1803,9.1803,9.1803,9.1803,9.1803,9.1803,9.1803,9.1803,9.1803,9.1693,9.1363,9.1583,9.14,9.0297,0.0,0.0,0.0,8.8267,8.7728,8.7356,8.6999,8.6418,8.5637,0.0,0.0,0.0,8.0479,0.0,0.0,0.0,0.0,8.2847,0.0,8.3964,8.349,8.4234,8.464,8.464,8.508,8.5249,8.508,8.5249,8.5249,8.508,8.4776,8.464,8.464,8.464,8.464,8.464,8.464,8.464,8.464,8.464,8.464,8.4742,9.2754,0.0,9.2317,0.0,9.2129,9.2007,9.2119,9.0943,8.9882,8.9454,8.872,8.7876,8.7105,8.6995,8.7325,8.8133,8.8206,8.8793,9.0188,9.0482,9.0849,9.1436,9.1657,0.0,9.1436,9.0886,9.0225,8.9417,8.8023,0.0,8.6151,8.5343,8.5086,8.5343,8.5894,8.6738,8.7802,8.894,8.9858,9.0665,9.1473,9.1803,9.1803,9.1803,9.1803,9.1803,9.1803,9.1803,9.1657,9.0592,9.0408,9.0445,8.9381,8.9784,9.0555,9.0335,9.0996,9.1803,9.1803,9.1803,9.1803,9.1803,9.1803,9.1803,9.1803,9.1803,9.1803,9.1803,9.1803,9.1803,9.1803,9.1803,9.1803,9.1803,0.0,0.0,0.0,9.0341,8.9762,8.8607,8.804,8.7508,8.6471,8.301,0.0,0.0,0.0,0.0,0.0,0.0,0.0,0.0,0.0,0.0,0.0,8.393,8.4302,8.4302,8.4843,8.5046,8.4979,8.552,8.5351,8.464,8.464,8.464,8.464,8.464,8.464,8.464,8.464,8.464,8.464,8.464,8.464,8.4776,9.2995,9.332,9.3846,9.3846,9.3277,9.2843,9.2965,9.2242,9.114,8.9632,8.872,8.7876,8.7105,8.6995,8.7325,8.8133,8.8206,8.8536,8.9381,9.0188,9.0592,0.0,0.0,9.1436,9.0629,9.0592,9.0225,8.9417,0.0,0.0,8.6995,8.6151,8.6224,8.6995,8.6995,8.7876,8.9381,8.9417,8.9858,9.0665,9.1473,9.1803,9.1803,9.1803,9.1803,9.1803,9.1803,9.1803,9.1546,8.9968,8.9968,9.0335,8.872,8.9307,9.0445,8.9674,9.0555,9.1803,9.1803,9.1803,9.1803,9.1803,9.1803,9.1803,9.1803,9.1803,9.1803,9.1803,9.1803,9.1803,9.1803,9.1803,9.1803,9.1803,0.0,0.0,9.1803,9.1106,9.019,8.9011,8.5238,8.3665,8.613,8.1278,0.0,0.0,0.0,0.0,0.0,0.0,0.0,8.3456,8.349,0.0,8.2441,8.3152,8.3524,8.3524,8.3524,8.4302,8.5757,8.579,8.5351,8.464,8.464,8.464,8.464,8.464,8.464,8.464,8.464,8.464,8.464,8.464,8.464,8.4843,9.5252,9.5367,9.5558,9.5558,9.4898,9.4276,9.3841,9.2091,9.0509,8.9559,8.8243,8.7288,8.7031,8.6995,8.7325,0.0,8.7692,8.7986,0.0,8.9124,8.9454,9.0555,9.0335,9.0298,9.0592,9.0592,9.0482,9.0225,0.0,0.0,0.0,8.7545,8.7288,8.7031,8.7582,8.8426,8.9454,9.0005,9.0702,9.1436,9.1693,9.1803,9.1803,9.1803,9.1803,9.1803,9.1803,9.1803,9.1546,8.9968,8.9931,9.0335,8.872,8.894,8.9748,8.9491,9.0152,9.0996,9.0996,9.1363,9.1803,9.1803,9.1803,9.1803,9.1803,9.1803,9.1803,9.1803,9.1803,9.1803,9.1803,9.2281,9.2501,9.1913,9.2758,0.0,9.195,9.2097,9.1913,9.1031,8.8981,8.7871,0.0,8.4665,0.0,0.0,0.0,0.0,0.0,0.0,0.0,0.0,8.3727,0.0,8.3152,8.3389,8.3761,8.4268,8.3727,8.4031,8.4979,8.4979,8.4843,8.464,8.464,8.464,8.464,8.464,8.464,8.464,8.464,8.4945,8.5418,8.5418,8.5757,8.6332,9.6288,9.6098,9.5862,9.5862,9.5533,9.4752,9.337,9.2142,9.0777,8.9154,8.8096,8.7362,8.7031,8.6995,0.0,8.8133,8.7729,8.7876,8.8904,8.8757,8.8977,8.9674,8.9528,8.9491,8.9711,8.9711,0.0,8.9711,9.0005,8.9491,8.8206,8.85,8.839,8.7949,8.8426,8.9124,8.9895,9.0408,9.1069,9.1803,9.1803,9.1803,9.1803,9.1803,9.1803,9.1803,9.1803,9.1803,9.1546,8.9968,9.0152,9.0776,8.916,8.9197,8.9858,8.9858,9.0445,9.1069,9.1069,9.1436,9.1803,9.1803,9.1803,9.1803,9.1803,9.1803,9.1803,9.1803,9.1803,9.1803,9.1803,9.2244,9.2537,9.2317,9.2905,9.3088,9.2391,9.2464,9.2133,9.0883,8.9579,0.0,0.0,8.5192,8.3547,0.0,0.0,0.0,0.0,0.0,0.0,8.3186,8.3862,0.0,8.349,8.3219,8.3456,8.42,8.4302,8.4437,8.464,8.4911,8.4911,8.464,8.464,8.464,8.464,8.464,8.464,8.464,8.464,8.4911,8.5384,8.5689,8.6095,8.6636,9.6288,9.5741,0.0,0.0,9.5273,0.0,9.2166,9.2296,9.1638,8.863,8.8133,8.7839,8.7178,8.7105,8.7435,8.8206,0.0,0.0,0.0,8.8904,8.9014,8.8316,8.8904,8.894,8.8206,8.8206,8.8243,8.8353,8.9197,8.916,8.839,8.916,8.9454,8.9417,8.9491,8.9931,9.0592,9.0665,9.1106,9.1803,9.1803,9.1803,9.1803,9.1803,9.1803,9.1803,9.1803,9.1767,9.1473,8.9931,9.0408,9.1363,8.9895,8.9968,9.0629,9.0665,9.1179,9.173,9.1767,9.1803,9.1803,9.1803,9.1803,9.1803,9.1803,9.1803,9.1803,9.1803,9.1803,9.1803,9.1803,9.1803,9.206,9.2868,9.2391,9.2134,9.2905,9.2354,9.1216,8.9277,0.0,0.0,0.0,8.3668,8.3512,0.0,0.0,0.0,0.0,0.0,8.0885,8.4437,8.3862,8.3524,8.3592,8.2813,8.2746,8.3422,8.4979,8.5351,8.4742,8.552,8.5452,8.4708,8.4708,8.4674,8.464,8.464,8.464,8.464,8.464,8.464,8.4776,8.552,8.5858,8.6129,0.0,0.0,9.602,9.602,9.602,9.5227,9.2932,9.2199,9.1,8.8557,8.7655,8.7472,8.7876,8.7912,8.8243,8.905,8.8573,8.8206,8.8206,8.839,8.8683,8.9124,8.8133,8.7766,8.8206,8.8206,8.8793,9.0041,9.0849,9.0812,9.0041,9.0225,9.0005,8.9454,9.0041,9.0445,9.0629,9.1253,9.162,9.1803,9.1803,9.1803,9.1803,9.1803,9.1803,9.1803,9.1803,9.14,9.0739,8.9748,8.9674,8.9931,8.9528,8.9968,9.0739,9.1326,9.1216,9.1033,9.162,9.1803,9.1803,9.1803,9.1803,9.1803,9.1803,9.1803,9.1803,9.1803,9.1803,9.1803,9.1803,9.1803,9.1877,9.206,9.2501,9.2648,9.217,9.2501,9.217,9.0411,8.9579,8.8834,8.7789,8.5912,8.4654,0.0,0.0,0.0,0.0,8.1257,8.1697,8.3693,8.3592,8.3761,8.4336,8.305,8.2509,8.2678,8.42,8.5114,8.552,8.6298,8.623,8.552,8.552,8.5182,8.464,8.464,8.464,8.464,8.464,8.4979,8.552,8.5723,8.6501,8.7516,9.6288,9.6288,9.6288,9.6288,9.598,9.502,9.3069,9.1798,9.0325,8.8424,8.7489,8.7325,8.8096,8.8206,8.8536,8.9344,8.9014,8.8757,8.8757,8.8757,8.8793,8.8867,8.8023,8.7582,8.7655,8.7655,8.828,8.9491,9.0298,9.0665,9.0629,9.0996,9.0922,9.0519,9.0959,9.1143,9.1179,9.162,9.1803,9.1803,9.1803,9.1803,9.1803,9.1803,9.1803,9.1803,9.1803,9.151,9.0959,8.9821,8.9674,8.9895,8.9528,8.9968,9.0849,9.2024,9.2097,9.1913,9.2721,9.2941,9.2831,9.2501,9.2391,9.2281,9.1877,9.1803,9.1803,9.1803,9.1803,9.1803,9.1803,9.1803,9.1803,9.1803,9.1877,9.1803,9.1326,9.0885,9.0401,8.9891,8.9241,8.848,8.7354,8.7002,8.5961,8.3522,8.322,0.0,8.1427,8.1596,8.2306,8.3456,8.349,8.3862,8.4606,8.3828,8.3422,8.3422,8.4945,8.5892,8.6332,8.7076,8.7008,8.6298,8.6298,8.6061,8.5655,8.5283,8.5148,8.5114,8.4776,8.4877,8.5351,8.6027,8.6602,8.7076,9.6134,9.6095,9.6057,9.5942,9.5288,9.4292,9.2766,9.128,8.9851,8.8302,8.7534,8.7509,8.828,8.85,8.8904,8.9711,8.9784,8.9711,8.9601,8.9601,8.9307,8.861,8.8316,8.7876,8.7215,8.7178,8.7582,8.839,8.9087,8.9895,9.0812,9.1363,9.1693,9.1803,9.1803,9.1803,9.1803,9.1803,9.1803,9.1803,9.1803,9.1803,9.1803,9.1803,9.1803,9.1803,9.1803,9.173,9.14,8.9931,8.9784,9.0115,8.9454,8.9784,9.0776,9.2427,9.3088,9.3418,9.4116,9.4299,9.4116,9.3308,9.3088,9.2868,9.1987,9.1803,9.1803,9.1803,9.1803,9.1803,9.1803,9.1803,9.1767,9.1657,9.1143,9.0739,9.0629,8.9308,8.8475,8.9054,8.862,8.768,8.5962,8.7528,8.7018,8.333,8.4277,8.4002,8.1766,8.234,8.2983,8.349,8.349,8.3795,8.4437,8.4437,8.4437,8.4471,8.5892,8.667,8.6941,8.7651,8.7651,8.7076,8.7076,8.7008,8.6873,8.623,8.596,8.5892,8.5114,8.4809,8.4945,8.6129,8.623,8.596,9.5326,9.5211,9.498,9.421,9.398,9.3409,9.1806,9.0901,8.9851,8.8302,8.8051,8.8316,8.916,8.9821,9.0555,9.1363,9.1436,9.1143,9.0482,9.0408,9.0372,9.0225,8.894,8.8133,8.8023,8.8023,8.8426,8.9234,8.9344,9.0188,9.1583,9.1069,9.1143,9.1803,9.1803,9.1803,9.1803,9.1803,9.1803,9.1803,9.1803,9.1803,9.1803,9.1803,9.1803,9.1803,9.1803,9.1363,9.0629,8.9711,8.905,8.8536,8.8426,8.894,8.9931,9.1546,9.3015,9.4153,9.4263,9.4299,9.4116,9.3308,9.3088,9.2868,9.1987,9.1803,9.1803,9.1803,9.1803,9.1803,9.1803,9.1803,9.1583,9.0922,9.1253,9.1363,9.0702,9.0924,9.096,9.0411,9.0814,9.0401,8.8444,8.77,8.6909,8.5837,8.4489,8.3564,8.3152,8.3862,8.4031,8.3524,8.349,8.3558,8.3659,8.3659,8.3659,8.3693,8.4573,8.5655,8.6941,8.7651,8.7955,8.782,8.782,8.7482,8.6907,8.6771,8.6738,8.667,8.5892,8.5587,8.5554,8.5148,8.5317,8.5824,9.5172,9.498,9.4711,9.3826,9.3326,9.2792,9.2104,9.1055,9.0109,8.9349,8.9044,8.916,8.9968,9.0408,9.1106,9.2391,9.206,9.184,9.195,9.151,9.1069,9.0629,8.9491,8.8463,8.7582,8.7545,8.7949,8.8757,8.9197,9.0005,9.1143,9.1216,9.1436,9.1803,9.1803,9.1803,9.1803,9.1803,9.1803,9.1803,9.1803,9.1803,9.1803,9.1803,9.1803,9.1803,9.1803,9.1546,9.1069,8.9821,8.916,8.8793,8.8353,8.8757,8.9638,9.0812,9.2941,9.5034,9.5474,9.5584,9.5401,9.4593,9.4079,9.3529,9.2684,9.2134,9.1803,9.1803,9.1803,9.1803,9.1803,9.1803,9.1693,9.1326,9.1179,9.1033,9.0665,9.0007,8.9556,8.9629,8.9416,8.8781,8.7567,8.7603,8.693,8.5,8.459,8.4045,8.2915,8.3625,8.3862,8.3524,8.3896,8.4099,8.4099,8.4099,8.4302,8.4742,8.508,8.6027,8.7516,8.7854,8.8226,8.8564,8.8564,8.8395,8.8057,8.7651,8.7279,8.6839,8.6095,8.552,8.5182,8.5215,8.5215,8.5215,9.4595,9.4403,9.421,9.3518,9.2903,9.2521,9.2526,9.1415,9.0524,9.0361,8.9962,8.9931,9.0555,9.0776,9.1473,9.2978,9.2281,9.217,9.3051,9.2281,9.151,9.0922,8.9931,8.8757,8.7325,8.7105,8.7509,8.85,8.894,8.9748,9.0886,9.1326,9.162,9.1803,9.1803,9.1803,9.1803,9.1803,9.1803,9.1803,9.1803,9.1803,9.1803,9.1803,9.1803,9.1803,9.1803,9.1803,9.1583,9.0188,8.9564,8.9271,8.8463,8.861,8.9307,9.0078,9.2537,9.5144,9.5914,9.6282,9.6245,9.5437,9.4777,9.4079,9.3272,9.2427,9.1803,9.1803,9.1803,9.1803,9.1803,9.1803,9.173,9.1546,9.1179,9.0812,9.0629,8.9454,8.8848,8.9386,8.8494,8.7551,8.6891,8.7398,8.6621,8.3971,8.4557,8.452,8.2949,8.3456,8.3761,8.3761,8.4302,8.464,8.464,8.464,8.4911,8.552,8.552,8.6196,8.7482,8.7482,8.7989,8.8835,8.8835,8.8937,8.9038,8.8497,8.782,8.7076,8.6332,8.5587,8.4945,8.5351,8.5148,8.4708,9.2826,9.2672,9.2672,9.2595,9.2556,9.2526,9.2575,9.1962,9.1226,9.054,9.0452,9.0555,9.0592,9.1253,9.2097,9.3015,9.2281,9.217,9.3051,9.2281,9.1767,9.1693,9.0225,8.9014,8.8133,8.7399,8.7766,8.9344,8.861,8.9454,9.1693,9.1033,9.1106,9.1803,9.1803,9.1803,9.1803,9.1803,9.1803,9.1803,9.1803,9.1803,9.1803,9.1803,9.1803,9.1803,9.1803,9.1803,9.1657,9.0812,9.0041,8.9271,8.8463,8.8243,8.8463,8.9271,9.1289,9.3455,9.4263,9.5034,9.5401,9.4593,9.4336,9.4079,9.3272,9.2427,9.1803,9.1803,9.1803,9.1803,9.1803,9.1803,9.1546,9.0812,9.1253,9.1436,9.0702,9.1107,9.1547,9.1584,9.0528,8.9318,8.8223,8.7151,8.5953,8.4645,8.4645,8.4611,8.4471,8.4505,8.4539,8.4539,8.4606,8.464,8.464,8.464,8.464,8.4708,8.4708,8.5148,8.596,8.596,8.6738,8.8091,8.8091,8.8463,8.9072,8.9038,8.8564,8.7854,8.711,8.6366,8.5621,8.4945,8.4674,8.464,9.2749,9.2479,9.2326,9.1787,9.2133,9.2484,9.2526,9.2433,9.2258,9.192,9.1565,9.1326,9.1326,9.162,9.1913,9.2244,9.1987,9.195,9.2281,9.1987,9.1583,9.1069,9.0482,8.9528,8.8243,8.7912,8.7802,8.7912,8.861,8.9417,9.0335,9.1033,9.151,9.1803,9.1803,9.1803,9.1803,9.1803,9.1803,9.1803,9.1803,9.1803,9.1803,9.1803,9.1803,9.1803,9.1803,9.1803,9.1693,9.0886,9.0078,8.9271,8.8463,8.8536,8.9197,9.0519,9.195,9.3051,9.2794,9.4116,9.5437,9.5144,9.4666,9.4079,9.3272,9.2427,9.1803,9.1803,9.1803,9.1803,9.1803,9.1803,9.1693,9.14,9.1583,9.1693,9.14,9.162,9.1803,9.1803,9.0716,8.9558,8.8348,8.7151,8.5852,8.4713,8.464,8.464,8.464,8.464,8.464,8.464,8.464,8.464,8.464,8.464,8.464,8.464,8.464,8.5046,8.579,8.579,8.6366,8.7347,8.7786,8.8158,8.8429,8.8903,8.8395,8.7279,8.7008,8.6163,8.5046,8.4742,8.464,8.464,9.2364,9.2326,9.2402,9.2056,9.271,9.3328,9.3333,9.3269,9.3124,9.2899,9.2262,9.1803,9.1803,9.1803,9.1803,9.1803,9.1583,9.1436,9.1436,9.1436,9.1289,9.0996,9.0739,9.0078,8.8977,8.8463,8.8059,8.7766,8.8867,8.9564,8.9821,9.1179,9.1803,9.1803,9.1803,9.1803,9.1803,9.1803,9.1803,9.1803,9.1803,9.1803,9.1803,9.1803,9.1803,9.1803,9.1803,9.1803,9.173,9.1179,9.0445,8.9711,8.9124,8.9344,9.0005,9.1106,9.2024,9.2684,9.2611,9.3822,9.507,9.4813,9.4336,9.3786,9.3235,9.2427,9.1803,9.1803,9.1803,9.1803,9.1803,9.1803,9.1803,9.1803,9.1803,9.1803,9.1803,9.1803,9.1803,9.1803,9.0443,8.9135,8.8348,8.6803,8.5515,8.4606,8.464,8.464,8.464,8.464,8.464,8.464,8.464,8.464,8.464,8.464,8.464,8.464,8.464,8.4911,8.5418,8.5418,8.596,8.6941,8.7448,8.7922,8.8361,8.8632,8.8023,8.6907,8.667,8.5757,8.464,8.464,8.464,8.464,9.1364,9.1902,9.2749,9.3557,9.4403,9.5061,9.5165,9.4579,9.3821,9.3114,9.2262,9.1803,9.1803,9.1803,9.1803,9.1767,9.1069,9.0592,9.0592,9.0592,9.0959,9.1767,9.1033,9.0629,9.0592,8.905,8.861,8.9417,8.9417,8.9821,9.0629,9.1436,9.1803,9.1803,9.1803,9.1803,9.1803,9.1803,9.1803,9.1803,9.1803,9.1803,9.1803,9.1803,9.1803,9.1803,9.1803,9.1803,9.1803,9.1803,9.1253,9.0592,9.0592,9.0592,9.0592,9.0592,9.1179,9.217,9.3822,9.4299,9.4116,9.3308,9.3125,9.3125,9.3088,9.2427,9.1803,9.1803,9.1803,9.1803,9.1803,9.1803,9.1803,9.1803,9.1803,9.1803,9.1803,9.1803,9.1803,9.1803,8.976,8.8259,8.8223,8.6087,8.4606,8.464,8.464,8.464,8.464,8.464,8.464,8.464,8.464,8.464,8.464,8.464,8.464,8.464,8.464,8.464,8.464,8.464,8.5452,8.6907,8.6907,8.7719,8.9004,8.8294,8.755,8.6839,8.6095,8.5317,8.464,8.464,8.464,8.464,9.1364,9.1902,9.2595,9.2826,9.4057,9.502,9.506,9.4534,9.4047,9.3821,9.2595,9.1803,9.1803,9.1289,9.0739,9.0188,8.9931,9.0005,9.0555,9.0592,9.0959,9.1767,9.1583,9.1179,9.0629,9.0152,8.9748,8.9417,8.9968,9.0372,9.0629,9.1436,9.1803,9.1803,9.1803,9.1803,9.1803,9.1803,9.1803,9.1803,9.1803,9.1803,9.1803,9.1803,9.1803,9.1803,9.1803,9.1803,9.1803,9.1803,9.1253,9.0519,8.9968,8.9784,8.9895,9.0445,9.162,9.2831,9.3308,9.3859,9.4226,9.4006,9.3932,9.3639,9.2464,9.1987,9.1803,9.1803,9.1803,9.1803,9.1803,9.1803,9.1803,9.1803,9.1803,9.1803,9.1803,9.1803,9.1803,9.1803,9.0443,8.9135,8.8348,8.6803,8.5515,8.4606,8.464,8.464,8.464,8.464,8.464,8.464,8.464,8.464,8.464,8.464,8.464,8.464,8.464,8.464,8.464,8.5182,8.5384,8.5384,8.6974,8.7313,8.6839,8.7651,8.7245,8.6095,8.5858,8.5317,8.464,8.464,8.464,8.464,9.1864,9.2402,9.2979,9.2979,9.4364,9.5403,9.5057,9.4477,9.4102,9.4102,9.2793,9.1803,9.1803,9.1363,9.0629,8.9528,8.883,8.8793,8.9601,8.9638,9.0152,9.1289,9.1033,9.0922,9.1069,9.0776,9.0372,8.9895,9.0372,9.0592,9.0629,9.1436,9.1803,9.1803,9.1803,9.1803,9.1803,9.1803,9.1803,9.1803,9.1803,9.1803,9.1803,9.1803,9.1803,9.1803,9.1803,9.1803,9.1803,9.1803,9.1473,9.0922,9.0152,8.9895,8.9968,9.0482,9.1546,9.2721,9.3382,9.3932,9.4299,9.4299,9.3786,9.3051,9.2024,9.1803,9.1803,9.1803,9.1803,9.1803,9.1803,9.1803,9.1803,9.1803,9.1803,9.1803,9.1803,9.1803,9.1803,9.1803,9.0284,8.905,8.8348,8.6707,8.5447,8.4606,8.464,8.464,8.464,8.464,8.464,8.464,8.464,8.464,8.464,8.464,8.464,8.464,8.464,8.464,8.464,8.5114,8.5249,8.5182,8.6839,8.7211,8.6738,8.7617,8.7313,8.6196,8.5892,8.5317,8.464,8.464,8.464,8.464,9.2633,9.3133,9.371,9.3787,9.5172,9.6019,9.5249,9.4515,9.4102,9.4102,9.2719,9.173,9.1803,9.1657,9.0996,8.9564,8.7949,8.7362,8.8133,8.828,8.8977,9.0519,8.9968,9.0298,9.1657,9.0959,9.0629,9.0702,9.0702,9.0702,9.0739,9.1473,9.1803,9.1803,9.1803,9.1803,9.1803,9.1803,9.1803,9.1803,9.1803,9.1803,9.1803,9.1803,9.1803,9.1803,9.1803,9.1803,9.1803,9.1803,9.1803,9.1657,9.0776,9.0482,9.0482,9.0408,9.0996,9.206,9.3749,9.4189,9.4189,9.4263,9.2978,9.1693,9.1693,9.173,9.1767,9.1693,9.173,9.1803,9.1803,9.1803,9.1803,9.1803,9.1694,9.1694,9.1803,9.1694,9.1694,9.1803,8.9724,8.8313,8.8223,8.5987,8.464,8.464,8.464,8.464,8.464,8.464,8.464,8.464,8.464,8.464,8.464,8.464,8.464,8.464,8.464,8.464,8.464,8.4708,8.508,8.5723,8.6569,8.7211,8.7719,8.7854,8.7482,8.6738,8.6061,8.5351,8.4708,8.464,8.464,8.464,9.2402,9.3133,9.3903,9.4595,9.5595,9.6249,9.6057,9.4934,9.4102,9.4102,9.2236,9.1106,9.173,9.0702,8.9784,8.9454,8.7949,8.7362,8.8133,8.8793,8.9601,9.0555,9.1033,9.1143,9.0886,9.0702,9.0922,9.1546,9.1546,9.1546,9.1546,9.173,9.1803,9.1803,9.1803,9.1803,9.1803,9.1803,9.1803,9.1803,9.1803,9.1803,9.1803,9.1803,9.1803,9.1803,9.1803,9.1803,9.1803,9.1803,9.1803,9.1546,9.0115,8.9674,8.9564,8.8904,8.9748,9.1253,9.2905,9.3345,9.3529,9.4153,9.2574,9.0849,9.0849,9.1363,9.162,9.0996,9.1363,9.1803,9.1803,9.1803,9.1803,9.1803,9.0984,9.0716,9.1694,9.0984,9.0716,9.1694,9.0522,8.9221,8.8348,8.6087,8.464,8.464,8.464,8.464,8.464,8.464,8.464,8.464,8.464,8.464,8.464,8.464,8.464,8.464,8.464,8.464,8.464,8.5249,8.5283,8.4945,8.6332,8.6332,8.5452,8.6636,8.6704,8.5993,8.5858,8.5689,8.5452,8.4843,8.464,8.464,9.2979,9.3403,9.398,9.4826,9.5711,9.6172,9.5749,9.4782,9.4102,9.4102,9.2422,9.1326,9.173,9.1069,9.0408,9.0005,8.85,8.7766,8.8169,8.8243,8.861,8.9417,8.9858,9.0078,9.0041,9.0041,9.0225,9.0665,9.1436,9.1583,9.1253,9.162,9.1803,9.1803,9.1803,9.1803,9.1803,9.1803,9.1803,9.1803,9.1803,9.1803,9.1803,9.1803,9.1803,9.1803,9.1803,9.1803,9.1803,9.1803,9.1803,9.1583,9.0372,8.9711,8.9344,8.8904,8.9381,9.0482,9.2537,9.2794,9.2758,9.4006,9.2427,9.0592,9.0592,9.0922,9.1106,9.0702,9.1253,9.162,9.106,9.0907,9.0716,9.0204,8.9558,8.9558,9.0793,9.0364,9.0443,9.162,9.0752,8.9342,8.762,8.6252,8.524,8.4606,8.464,8.464,8.464,8.464,8.464,8.464,8.464,8.464,8.464,8.464,8.464,8.464,8.464,8.464,8.464,8.5046,8.5012,8.4708,8.5858,8.5926,8.5283,8.6805,8.6771,8.5824,8.6196,8.6095,8.5723,8.5317,8.5418,8.5723,9.3672,9.3826,9.421,9.5057,9.5826,9.602,9.5176,9.4506,9.4047,9.3935,9.255,9.1583,9.1583,9.1473,9.1179,9.0665,8.9271,8.8426,8.8426,8.7802,8.7729,8.839,8.8426,8.8647,8.9197,8.9344,8.9417,8.9417,9.0886,9.1253,9.0629,9.1436,9.1803,9.1803,9.1803,9.1803,9.1803,9.1803,9.1803,9.1803,9.1803,9.1803,9.1803,9.1803,9.1803,9.1803,9.1803,9.1803,9.1803,9.1803,9.1803,9.1657,9.0849,9.0078,8.9381,8.9271,8.9197,8.9711,9.206,9.2134,9.195,9.3492,9.2134,9.0372,9.0225,9.0298,9.0372,9.0225,9.0959,9.1326,9.0262,9.0015,8.9641,8.8667,8.8313,8.8579,8.9558,8.9924,9.0364,9.136,9.0674,8.9171,8.6961,8.6512,8.5852,8.4713,8.464,8.464,8.464,8.464,8.464,8.464,8.464,8.464,8.464,8.464,8.464,8.464,8.464,8.464,8.464,8.464,8.464,8.4674,8.5317,8.5587,8.5689,8.7042,8.6907,8.5858,8.6467,8.6332,8.5757,8.5621,8.6061,8.6704,9.3557,9.4287,9.5095,9.598,9.6211,9.6059,9.5255,9.4554,9.3878,9.3202,9.1808,9.0776,9.0776,9.0152,8.9968,9.0555,8.9784,8.9271,8.9271,8.916,8.9124,8.9234,8.9271,8.8977,8.839,8.905,8.9417,8.9417,9.0335,9.0702,9.0629,9.1436,9.1803,9.1803,9.1803,9.1803,9.1803,9.1803,9.1803,9.1803,9.1803,9.1803,9.1803,9.1803,9.1803,9.1803,9.1803,9.1803,9.1803,9.1803,9.1803,9.1657,9.0849,9.0078,8.9271,8.8573,8.8353,8.8757,9.0482,9.0849,9.0996,9.1913,9.0849,8.9381,8.8683,8.9087,8.9381,8.8683,8.9711,9.0667,9.0521,9.0243,8.9924,8.9724,8.8841,8.8223,8.8526,8.939,9.0087,9.0168,9.0087,8.9474,8.8043,8.7056,8.5852,8.4713,8.464,8.464,8.464,8.464,8.464,8.464,8.464,8.464,8.464,8.464,8.464,8.464,8.464,8.464,8.464,8.464,8.464,8.464,8.4742,8.4776,8.4843,8.5723,8.596,8.579,8.5892,8.5892,8.5723,8.5046,8.5283,8.5926,9.3633,9.4403,9.5249,9.6134,9.6288,9.6174,9.5862,9.4817,9.3991,9.3648,9.2232,9.1253,9.1253,9.0959,9.0886,9.1253,9.0555,9.0078,9.0078,8.9674,8.9417,8.9417,8.9858,8.9491,8.8243,8.9014,8.9197,8.872,9.0005,9.0372,8.9968,9.1216,9.1803,9.1803,9.1803,9.1803,9.1803,9.1803,9.1803,9.1803,9.1803,9.1803,9.1803,9.1803,9.1803,9.1803,9.1803,9.1803,9.1803,9.1803,9.1803,9.173,9.1363,9.0408,8.9344,8.8977,8.8243,8.7876,8.9491,8.9931,9.0115,9.0922,9.0262,8.9197,8.839,8.8133,8.8096,8.8169,8.9491,9.0411,8.9742,8.9821,8.9558,8.8223,8.7585,8.7398,8.8169,8.8133,8.8223,8.8928,8.9014,8.8491,8.7305,8.6672,8.5852,8.4713,8.464,8.464,8.464,8.464,8.464,8.464,8.464,8.464,8.464,8.464,8.464,8.464,8.464,8.464,8.464,8.464,8.464,8.464,8.464,8.464,8.4674,8.5452,8.552,8.5182,8.5621,8.579,8.579,8.5858,8.6129,8.6399]},{"header":{"parameterUnit":"m.s-1","parameterCategory":1,"la1":30.6,"la2":28.766,"lo1":-90.7593,"lo2":-88.6598,"dx":0.0162,"dy":0.0183,"nx":116,"ny":114,"refTime":"2022-11-15T18:00:00:Z","depth":0,"parameterNumber":3,"parameterNumberName":"V-component_of_WINDS"},"data":[0.0,0.0,0.0,0.0,0.0,0.0,0.0,0.0,0.0,0.0,0.0,0.0,0.0,0.0,0.0,0.0,0.0,0.0,0.0,0.0,0.0,0.0,0.0,0.0,0.0,0.0,0.0,0.0,0.0,0.0,0.0,0.0,0.0,0.0,0.0,0.0,0.0,0.0,0.0,0.0,0.0,0.0,0.0,0.0,0.0,0.0,0.0,0.0,0.0,0.0,0.0,0.0,0.0,0.0,0.0,0.0,0.0,0.0,0.0,0.0,0.0,0.0,0.0,0.0,0.0,0.0,0.0,0.0,0.0,0.0,0.0,0.0,0.0,0.0,0.0,0.0,0.0,0.0,0.0,0.0,0.0,0.0,0.0,0.0,0.0,0.0,0.0,0.0,0.0,0.0,0.0,0.0,0.0,0.0,0.0,0.0,0.0,0.0,0.0,0.0,0.0,0.0,0.0,0.0,0.0,0.0,0.0,0.0,0.0,0.0,0.0,0.0,0.0,0.0,0.0,0.0,0.0,0.0,0.0,0.0,0.0,0.0,0.0,0.0,0.0,0.0,0.0,0.0,0.0,0.0,0.0,0.0,0.0,0.0,0.0,0.0,0.0,0.0,0.0,0.0,0.0,0.0,0.0,0.0,0.0,0.0,0.0,0.0,0.0,0.0,0.0,0.0,0.0,0.0,0.0,0.0,0.0,0.0,0.0,0.0,0.0,0.0,0.0,0.0,0.0,0.0,0.0,0.0,0.0,0.0,0.0,0.0,0.0,0.0,0.0,0.0,0.0,0.0,0.0,0.0,0.0,0.0,0.0,0.0,0.0,0.0,0.0,0.0,0.0,0.0,0.0,0.0,0.0,0.0,0.0,0.0,0.0,0.0,0.0,0.0,0.0,0.0,0.0,0.0,0.0,0.0,0.0,0.0,0.0,0.0,0.0,0.0,0.0,0.0,0.0,0.0,0.0,0.0,0.0,0.0,0.0,0.0,0.0,0.0,0.0,0.0,0.0,0.0,0.0,0.0,0.0,0.0,0.0,0.0,0.0,0.0,0.0,0.0,0.0,0.0,0.0,0.0,0.0,0.0,0.0,0.0,0.0,0.0,0.0,0.0,0.0,0.0,0.0,0.0,0.0,0.0,0.0,0.0,0.0,0.0,0.0,0.0,0.0,0.0,0.0,0.0,0.0,0.0,0.0,0.0,0.0,0.0,0.0,0.0,0.0,0.0,0.0,0.0,0.0,0.0,0.0,0.0,0.0,0.0,0.0,0.0,0.0,0.0,0.0,0.0,0.0,0.0,0.0,0.0,0.0,0.0,0.0,0.0,0.0,0.0,0.0,0.0,0.0,0.0,0.0,0.0,0.0,0.0,0.0,0.0,0.0,0.0,0.0,0.0,0.0,0.0,0.0,0.0,0.0,0.0,0.0,0.0,0.0,0.0,0.0,0.0,0.0,0.0,0.0,0.0,0.0,0.0,0.0,0.0,0.0,0.0,0.0,0.0,0.0,0.0,0.0,0.0,0.0,0.0,0.0,0.0,0.0,0.0,0.0,0.0,0.0,0.0,0.0,0.0,0.0,0.0,0.0,0.0,0.0,0.0,0.0,0.0,0.0,0.0,0.0,0.0,0.0,0.0,0.0,0.0,0.0,0.0,0.0,0.0,0.0,0.0,0.0,0.0,0.0,0.0,0.0,0.0,0.0,0.0,0.0,0.0,0.0,0.0,0.0,0.0,0.0,0.0,0.0,0.0,0.0,0.0,0.0,0.0,0.0,0.0,0.0,0.0,0.0,0.0,0.0,0.0,0.0,0.0,0.0,0.0,0.0,0.0,0.0,0.0,0.0,0.0,0.0,0.0,0.0,0.0,0.0,0.0,0.0,0.0,0.0,0.0,0.0,0.0,0.0,0.0,0.0,0.0,0.0,0.0,0.0,0.0,0.0,0.0,0.0,0.0,0.0,0.0,0.0,0.0,0.0,0.0,0.0,0.0,0.0,0.0,0.0,0.0,0.0,0.0,0.0,0.0,0.0,0.0,0.0,0.0,0.0,0.0,0.0,0.0,0.0,0.0,0.0,0.0,0.0,0.0,0.0,0.0,0.0,0.0,0.0,0.0,0.0,0.0,0.0,0.0,0.0,0.0,0.0,0.0,0.0,0.0,0.0,0.0,0.0,0.0,0.0,0.0,0.0,0.0,0.0,0.0,0.0,0.0,0.0,0.0,0.0,0.0,0.0,0.0,0.0,0.0,0.0,0.0,0.0,0.0,0.0,0.0,0.0,0.0,0.0,0.0,0.0,0.0,0.0,0.0,0.0,0.0,0.0,0.0,0.0,0.0,0.0,0.0,0.0,0.0,0.0,0.0,0.0,0.0,0.0,0.0,0.0,0.0,0.0,0.0,0.0,0.0,0.0,0.0,0.0,0.0,0.0,0.0,0.0,0.0,0.0,0.0,0.0,0.0,0.0,0.0,0.0,0.0,0.0,0.0,0.0,0.0,0.0,0.0,0.0,0.0,0.0,0.0,0.0,0.0,0.0,0.0,0.0,0.0,0.0,0.0,0.0,0.0,0.0,0.0,0.0,0.0,0.0,0.0,0.0,0.0,0.0,0.0,0.0,0.0,0.0,0.0,0.0,0.0,0.0,0.0,0.0,0.0,0.0,0.0,0.0,0.0,0.0,0.0,0.0,0.0,0.0,0.0,0.0,0.0,0.0,0.0,0.0,0.0,0.0,0.0,0.0,0.0,0.0,0.0,0.0,0.0,0.0,0.0,0.0,0.0,0.0,0.0,0.0,0.0,0.0,0.0,0.0,0.0,0.0,0.0,0.0,0.0,0.0,0.0,0.0,0.0,0.0,0.0,0.0,0.0,0.0,0.0,0.0,0.0,0.0,0.0,0.0,0.0,0.0,0.0,0.0,0.0,0.0,0.0,0.0,0.0,0.0,0.0,0.0,0.0,0.0,0.0,0.0,0.0,0.0,0.0,0.0,0.0,0.0,0.0,0.0,0.0,0.0,0.0,0.0,0.0,0.0,0.0,0.0,0.0,0.0,0.0,0.0,0.0,0.0,0.0,0.0,0.0,0.0,0.0,0.0,0.0,0.0,0.0,0.0,0.0,0.0,0.0,0.0,0.0,0.0,0.0,0.0,0.0,0.0,0.0,0.0,0.0,0.0,0.0,0.0,0.0,0.0,0.0,0.0,0.0,0.0,0.0,0.0,0.0,0.0,0.0,0.0,0.0,0.0,0.0,0.0,0.0,0.0,0.0,0.0,0.0,0.0,0.0,0.0,0.0,0.0,0.0,0.0,0.0,0.0,0.0,0.0,0.0,0.0,0.0,0.0,0.0,0.0,0.0,0.0,0.0,0.0,0.0,0.0,0.0,0.0,0.0,0.0,0.0,0.0,0.0,0.0,0.0,0.0,0.0,0.0,0.0,0.0,0.0,0.0,0.0,0.0,0.0,0.0,0.0,0.0,0.0,0.0,0.0,0.0,0.0,0.0,0.0,0.0,0.0,0.0,0.0,0.0,0.0,0.0,0.0,0.0,0.0,0.0,0.0,0.0,0.0,0.0,0.0,0.0,0.0,0.0,0.0,0.0,0.0,0.0,0.0,0.0,0.0,0.0,0.0,0.0,0.0,0.0,0.0,0.0,0.0,0.0,0.0,0.0,0.0,0.0,0.0,0.0,0.0,0.0,0.0,0.0,0.0,0.0,0.0,0.0,0.0,0.0,0.0,0.0,0.0,0.0,0.0,0.0,0.0,0.0,0.0,0.0,0.0,0.0,0.0,0.0,0.0,0.0,0.0,0.0,0.0,0.0,0.0,0.0,0.0,0.0,0.0,0.0,0.0,0.0,0.0,0.0,0.0,0.0,0.0,0.0,0.0,0.0,0.0,0.0,0.0,0.0,0.0,0.0,0.0,0.0,0.0,0.0,0.0,0.0,0.0,0.0,0.0,0.0,0.0,0.0,0.0,0.0,0.0,0.0,0.0,0.0,0.0,0.0,0.0,0.0,0.0,0.0,0.0,0.0,0.0,0.0,0.0,0.0,0.0,0.0,0.0,0.0,0.0,0.0,0.0,0.0,0.0,0.0,0.0,0.0,0.0,0.0,0.0,0.0,0.0,0.0,0.0,0.0,0.0,0.0,0.0,0.0,0.0,0.0,0.0,0.0,0.0,0.0,0.0,0.0,0.0,0.0,0.0,0.0,0.0,0.0,0.0,0.0,0.0,0.0,0.0,0.0,0.0,0.0,0.0,0.0,0.0,0.0,0.0,0.0,0.0,0.0,0.0,0.0,0.0,0.0,0.0,0.0,0.0,0.0,0.0,0.0,0.0,0.0,0.0,0.0,0.0,0.0,0.0,0.0,0.0,0.0,0.0,0.0,0.0,0.0,0.0,0.0,0.0,0.0,0.0,0.0,0.0,0.0,0.0,0.0,0.0,0.0,0.0,0.0,0.0,0.0,0.0,0.0,0.0,0.0,0.0,0.0,0.0,0.0,0.0,0.0,0.0,0.0,0.0,0.0,0.0,0.0,0.0,0.0,0.0,0.0,0.0,0.0,0.0,0.0,0.0,0.0,0.0,0.0,0.0,0.0,0.0,0.0,0.0,0.0,0.0,0.0,0.0,0.0,0.0,0.0,0.0,0.0,0.0,0.0,0.0,0.0,0.0,0.0,0.0,0.0,0.0,0.0,0.0,0.0,0.0,0.0,0.0,0.0,0.0,0.0,0.0,0.0,0.0,0.0,0.0,0.0,0.0,0.0,0.0,0.0,0.0,0.0,0.0,0.0,0.0,0.0,0.0,0.0,0.0,0.0,0.0,0.0,0.0,0.0,0.0,0.0,0.0,0.0,0.0,0.0,0.0,0.0,0.0,0.0,0.0,0.0,0.0,0.0,0.0,0.0,0.0,0.0,0.0,0.0,0.0,0.0,0.0,0.0,0.0,0.0,0.0,0.0,0.0,0.0,0.0,0.0,0.0,0.0,0.0,0.0,0.0,0.0,0.0,0.0,0.0,0.0,0.0,0.0,0.0,0.0,0.0,0.0,0.0,0.0,0.0,0.0,0.0,0.0,0.0,0.0,0.0,0.0,0.0,0.0,0.0,0.0,0.0,0.0,0.0,0.0,0.0,0.0,0.0,0.0,0.0,0.0,0.0,0.0,0.0,0.0,0.0,0.0,0.0,0.0,0.0,0.0,0.0,0.0,0.0,0.0,0.0,0.0,0.0,0.0,0.0,0.0,0.0,0.0,0.0,0.0,0.0,0.0,0.0,0.0,0.0,0.0,0.0,0.0,0.0,0.0,0.0,0.0,0.0,0.0,0.0,0.0,0.0,0.0,0.0,0.0,0.0,0.0,0.0,0.0,0.0,0.0,0.0,0.0,0.0,0.0,0.0,0.0,0.0,0.0,0.0,0.0,0.0,0.0,0.0,0.0,0.0,0.0,0.0,0.0,0.0,0.0,0.0,0.0,0.0,0.0,0.0,0.0,0.0,0.0,0.0,0.0,0.0,0.0,0.0,0.0,0.0,0.0,0.0,0.0,0.0,0.0,0.0,0.0,0.0,0.0,0.0,0.0,0.0,0.0,0.0,0.0,0.0,0.0,0.0,0.0,0.0,0.0,0.0,0.0,0.0,0.0,0.0,0.0,0.0,0.0,0.0,0.0,0.0,0.0,0.0,0.0,0.0,0.0,0.0,0.0,0.0,0.0,0.0,0.0,0.0,0.0,0.0,0.0,0.0,0.0,0.0,0.0,0.0,0.0,0.0,0.0,0.0,0.0,0.0,0.0,0.0,0.0,0.0,0.0,0.0,0.0,0.0,0.0,0.0,0.0,0.0,0.0,0.0,0.0,0.0,0.0,0.0,0.0,0.0,0.0,0.0,0.0,0.0,0.0,0.0,0.0,0.0,0.0,0.0,0.0,0.0,0.0,0.0,0.0,0.0,0.0,0.0,0.0,0.0,0.0,0.0,0.0,0.0,0.0,0.0,0.0,0.0,0.0,0.0,0.0,0.0,0.0,0.0,0.0,0.0,0.0,0.0,0.0,0.0,0.0,0.0,0.0,0.0,0.0,0.0,0.0,0.0,0.0,0.0,0.0,0.0,0.0,0.0,-3.0389,0.0,0.0,0.0,0.0,0.0,0.0,0.0,0.0,0.0,0.0,0.0,0.0,0.0,0.0,0.0,0.0,0.0,0.0,0.0,0.0,0.0,0.0,0.0,0.0,-1.9546,-1.9973,-2.0401,-2.0441,0.0,0.0,0.0,0.0,0.0,0.0,0.0,0.0,0.0,-1.9933,-2.0214,-2.0655,-2.139,-2.2378,-2.2231,-2.1857,-2.1296,0.0,0.0,0.0,0.0,0.0,0.0,0.0,0.0,0.0,0.0,0.0,0.0,0.0,0.0,0.0,0.0,0.0,0.0,0.0,0.0,0.0,0.0,0.0,0.0,0.0,0.0,0.0,0.0,0.0,0.0,0.0,0.0,0.0,0.0,0.0,0.0,0.0,0.0,0.0,0.0,0.0,0.0,0.0,0.0,0.0,0.0,0.0,0.0,0.0,0.0,0.0,0.0,0.0,0.0,0.0,0.0,0.0,0.0,0.0,0.0,0.0,0.0,0.0,0.0,0.0,0.0,0.0,0.0,0.0,0.0,0.0,-3.2989,0.0,0.0,0.0,0.0,0.0,0.0,0.0,0.0,0.0,0.0,0.0,0.0,0.0,0.0,0.0,0.0,0.0,0.0,0.0,0.0,0.0,-1.8664,-1.9105,-1.9626,-2.0214,-2.0842,-2.0909,-2.1109,-2.159,-2.1403,0.0,0.0,0.0,0.0,-2.0548,-2.0494,-2.0628,-2.0975,-2.1724,-2.2806,-2.4155,-2.4155,-2.3621,-2.2659,-2.2111,0.0,0.0,0.0,0.0,0.0,0.0,0.0,0.0,0.0,0.0,0.0,0.0,0.0,0.0,0.0,0.0,0.0,0.0,0.0,0.0,0.0,0.0,0.0,0.0,0.0,0.0,0.0,0.0,0.0,0.0,0.0,0.0,0.0,0.0,0.0,0.0,0.0,0.0,0.0,0.0,0.0,0.0,0.0,0.0,0.0,0.0,0.0,0.0,0.0,0.0,0.0,0.0,0.0,0.0,0.0,0.0,0.0,0.0,0.0,0.0,0.0,0.0,0.0,-3.6312,-3.7293,-3.9023,-3.9023,-3.9258,-3.946,-3.737,-3.6146,-3.5705,0.0,0.0,0.0,0.0,0.0,0.0,0.0,0.0,0.0,0.0,0.0,0.0,0.0,0.0,0.0,0.0,0.0,0.0,0.0,0.0,-1.8891,-1.9947,-2.0361,-2.0895,-2.1737,-2.1817,-2.1844,-2.1924,-2.1897,0.0,0.0,0.0,-2.179,-2.175,-2.151,-2.1643,-2.2191,-2.3567,-2.473,-2.5665,-2.5665,-2.5585,-2.5371,-2.3794,-2.2899,-2.2539,0.0,0.0,0.0,0.0,0.0,0.0,0.0,0.0,0.0,0.0,0.0,0.0,0.0,0.0,0.0,0.0,0.0,0.0,0.0,0.0,0.0,0.0,0.0,0.0,0.0,0.0,0.0,0.0,0.0,0.0,0.0,0.0,0.0,0.0,0.0,0.0,0.0,0.0,0.0,0.0,0.0,-2.7539,-2.9253,0.0,0.0,0.0,0.0,0.0,0.0,0.0,0.0,0.0,0.0,0.0,0.0,0.0,-3.587,-3.8341,-3.8629,-3.9144,-3.9872,-4.024,-4.0607,-4.084,-4.084,-4.1055,-4.1445,-4.1172,0.0,-3.8561,-3.698,0.0,0.0,0.0,0.0,0.0,0.0,0.0,0.0,0.0,0.0,0.0,0.0,0.0,0.0,0.0,0.0,0.0,0.0,0.0,0.0,0.0,-2.0935,-2.1764,-2.2659,-2.2886,-2.2993,-2.2993,-2.2672,0.0,0.0,-2.2071,-2.1991,-2.1991,-2.2017,-2.2659,-2.3915,-2.5224,-2.6319,-2.7188,-2.7188,-2.7281,-2.7402,-2.6279,-2.5157,-2.4062,-2.3313,0.0,0.0,0.0,0.0,0.0,0.0,0.0,0.0,0.0,0.0,0.0,0.0,0.0,0.0,0.0,0.0,0.0,0.0,0.0,0.0,0.0,0.0,0.0,0.0,0.0,0.0,0.0,0.0,0.0,0.0,0.0,0.0,0.0,0.0,0.0,0.0,0.0,0.0,0.0,-2.7702,-3.0255,-3.2446,-3.4073,-3.4486,0.0,0.0,0.0,0.0,0.0,0.0,0.0,0.0,0.0,-3.7516,-3.8519,-3.9491,-4.0664,-4.1348,-4.166,-4.1601,-4.2031,-4.2246,-4.2246,-4.248,-4.2695,-4.2891,-4.3144,-4.2676,-4.166,-3.9912,-3.9317,-3.9038,0.0,0.0,0.0,0.0,-3.377,-3.4601,0.0,0.0,0.0,0.0,0.0,0.0,0.0,0.0,0.0,0.0,0.0,0.0,-2.0708,-2.171,-2.2686,-2.3581,-2.3861,-2.3968,-2.3888,-2.3394,-2.2966,-2.2659,-2.2365,-2.2245,-2.2325,-2.2913,-2.3968,-2.5531,-2.6627,-2.7615,-2.8484,-2.8484,-2.8604,-2.8818,-2.8364,-2.7255,-2.5692,-2.473,-2.3808,-2.2859,0.0,0.0,0.0,0.0,0.0,0.0,0.0,0.0,0.0,0.0,0.0,0.0,0.0,0.0,0.0,0.0,0.0,0.0,0.0,0.0,0.0,0.0,0.0,0.0,0.0,0.0,0.0,0.0,0.0,0.0,0.0,0.0,0.0,0.0,0.0,0.0,0.0,-3.0,-3.26,-3.5103,-3.7274,-3.7932,0.0,0.0,0.0,0.0,0.0,0.0,-3.7214,-3.757,-3.867,-4.0527,-4.1465,-4.2129,-4.2461,-4.2988,-4.3183,-4.3105,-4.3418,-4.3574,-4.3594,-4.3906,-4.4043,-4.4062,-4.4414,-4.4355,-4.3926,-4.2558,-4.1601,-4.0822,-3.9043,-3.8161,-3.7859,-3.6816,-3.7095,-3.8235,0.0,0.0,0.0,0.0,0.0,0.0,0.0,0.0,0.0,0.0,0.0,-2.0735,-2.2151,-2.2873,-2.3621,-2.4489,-2.4583,-2.4476,-2.4195,-2.3901,-2.3594,-2.33,-2.2979,-2.2953,-2.326,-2.4636,-2.5812,-2.6734,-2.7642,-2.8537,-2.9419,-2.9419,-2.9419,-2.9446,-2.9406,-2.8711,-2.7495,-2.6333,-2.5331,-2.4422,-2.322,0.0,0.0,0.0,0.0,0.0,0.0,0.0,0.0,0.0,0.0,0.0,0.0,0.0,0.0,0.0,0.0,0.0,0.0,0.0,0.0,0.0,0.0,0.0,0.0,0.0,0.0,0.0,0.0,0.0,0.0,0.0,0.0,0.0,0.0,0.0,0.0,0.0,0.0,-3.5789,-3.8652,0.0,0.0,0.0,0.0,-3.9353,-3.8131,-3.8198,-4.0143,-4.1074,-4.1697,-4.2285,-4.2363,-4.2988,-4.4258,-4.3867,-4.4082,-4.4902,-4.4922,-4.4922,-4.4922,-4.4961,-4.4961,-4.4961,-4.498,-4.498,-4.4922,-4.4433,-4.3476,-4.2324,-4.2145,-4.1639,-4.0997,-4.1248,-4.1541,-4.1658,0.0,0.0,0.0,-1.8784,-1.8531,-1.833,-1.833,-1.849,-1.8798,-1.9305,-2.0201,-2.1216,-2.2298,-2.3634,-2.473,-2.5424,-2.5825,-2.5758,-2.509,-2.477,-2.4315,-2.3647,-2.35,-2.3848,-2.4716,-2.5798,-2.6881,-2.7976,-2.8858,-2.9539,-3.0047,-3.0234,-3.0327,-3.0314,-3.0127,-2.9806,-2.9325,-2.7949,-2.6747,-2.5678,-2.469,-2.3354,0.0,0.0,0.0,0.0,0.0,0.0,0.0,0.0,0.0,0.0,0.0,0.0,0.0,0.0,0.0,0.0,0.0,0.0,0.0,0.0,0.0,0.0,0.0,0.0,0.0,0.0,0.0,0.0,0.0,0.0,0.0,0.0,0.0,0.0,0.0,0.0,0.0,-3.7432,-4.0319,0.0,-4.1191,-4.0471,-4.0296,-4.1113,-4.0606,-4.0756,-4.2129,-4.2715,-4.3223,-4.3672,-4.4238,-4.4609,-4.4805,-4.4922,-4.5,-4.5039,-4.5312,-4.5449,-4.5449,-4.5723,-4.5859,-4.5859,-4.5859,-4.5859,-4.584,-4.5683,-4.5019,-4.4101,-4.4101,-4.375,-4.3301,-4.3711,-4.3711,-4.3555,0.0,0.0,0.0,-1.8945,-1.8771,-1.8637,-1.8637,-1.8891,-1.9292,-1.988,-2.0975,-2.2111,-2.3193,-2.4636,-2.5758,-2.6346,-2.6747,-2.664,-2.5865,-2.5438,-2.4836,-2.3955,-2.4102,-2.4716,-2.5785,-2.6961,-2.8003,-2.8898,-2.978,-3.0368,-3.0662,-3.0849,-3.0996,-3.1076,-3.0782,-3.0648,-3.0581,-2.9392,-2.8217,-2.7054,-2.6066,-2.4783,-2.3394,0.0,0.0,0.0,0.0,0.0,0.0,0.0,0.0,0.0,0.0,0.0,0.0,0.0,0.0,0.0,0.0,0.0,0.0,0.0,0.0,0.0,0.0,0.0,0.0,0.0,0.0,0.0,0.0,0.0,0.0,0.0,0.0,0.0,0.0,0.0,-3.8268,-3.8599,-4.1284,-4.2851,-4.2285,-4.2109,-4.207,-4.2226,-4.2363,-4.2754,-4.3476,-4.3926,-4.4297,-4.459,-4.5019,-4.5234,-4.5254,-4.5391,-4.5449,-4.5469,-4.5742,-4.5879,-4.5898,-4.6172,-4.6308,-4.6308,-4.6308,-4.6308,-4.6308,-4.6308,-4.5957,-4.5449,-4.5293,-4.498,-4.4648,-4.4922,-4.4844,-4.4668,0.0,0.0,-1.9279,-1.8971,-1.8931,-1.8931,-1.8918,-1.9185,-1.98,-2.0962,-2.2138,-2.3434,-2.4917,-2.5879,-2.664,-2.7228,-2.7281,-2.7041,-2.6426,-2.5852,-2.5157,-2.4289,-2.4836,-2.5558,-2.6453,-2.8163,-2.9205,-2.9526,-3.0381,-3.0955,-3.1223,-3.1249,-3.1396,-3.1664,-3.137,-3.1236,-3.1196,-3.0621,-2.9713,-2.8564,-2.7375,-2.636,-2.5424,0.0,0.0,0.0,0.0,0.0,0.0,0.0,0.0,0.0,0.0,0.0,0.0,0.0,0.0,0.0,0.0,0.0,0.0,0.0,0.0,0.0,0.0,0.0,0.0,0.0,0.0,0.0,0.0,0.0,0.0,0.0,0.0,0.0,-3.3496,-3.6553,-3.8995,-3.9214,-4.1675,-4.3144,-4.3125,-4.2754,-4.2695,-4.3105,-4.3516,-4.3945,-4.4414,-4.4824,-4.5039,-4.5039,-4.4648,-4.4844,-4.5664,-4.5254,-4.5469,-4.6308,-4.6308,-4.6308,-4.6308,-4.6308,-4.6308,-4.6308,-4.6308,-4.6308,-4.6308,-4.6308,-4.6308,-4.6269,-4.584,-4.543,-4.5058,-4.5058,-4.5058,-4.5117,-1.9372,-1.9372,-1.9279,-1.8971,-1.9105,-1.9172,-1.8958,-1.9359,-2.0027,-2.0989,-2.2138,-2.3434,-2.4917,-2.6052,-2.6934,-2.7522,-2.7776,-2.7468,-2.6453,-2.6239,-2.5945,-2.5491,-2.6239,-2.7188,-2.8283,-2.9005,-2.9713,-3.0434,-3.0889,-3.1142,-3.1236,-3.1664,-3.1797,-3.1664,-3.1583,-3.1423,-3.1196,-3.0835,-3.0488,-3.0087,-2.8911,-2.7642,-2.64,0.0,0.0,0.0,0.0,0.0,0.0,0.0,0.0,0.0,0.0,0.0,0.0,0.0,0.0,0.0,0.0,0.0,0.0,0.0,0.0,0.0,0.0,0.0,0.0,0.0,0.0,0.0,0.0,0.0,0.0,0.0,-3.5431,-3.7113,-3.6709,-3.943,-4.1579,-4.2001,-4.3768,-4.4726,-4.4101,-4.4492,-4.4707,-4.4512,-4.459,-4.4863,-4.5293,-4.543,-4.5508,-4.5508,-4.5391,-4.543,-4.5683,-4.5566,-4.5762,-4.6308,-4.6308,-4.6308,-4.6308,-4.6308,-4.6308,-4.6308,-4.6308,-4.6308,-4.6308,-4.6308,-4.6308,-4.6269,-4.584,-4.5781,-4.5918,-4.5605,-4.5683,-4.5957,-1.9372,-1.9372,-1.9319,-1.9132,-1.9252,-1.9345,-1.9305,-1.9679,-2.0428,-2.1683,-2.2659,-2.3901,-2.5625,-2.6533,-2.7241,-2.7829,-2.7923,-2.7562,-2.6627,-2.6346,-2.6346,-2.6667,-2.7415,-2.827,-2.9205,-2.9873,-3.0461,-3.0969,-3.1263,-3.1476,-3.1597,-3.1944,-3.2078,-3.2024,-3.1904,-3.1757,-3.157,-3.1156,-3.0969,-3.0902,-3.01,-2.9032,-2.7856,-2.7054,-2.644,-2.5905,-2.5237,-2.4756,-2.4516,-2.513,0.0,0.0,0.0,0.0,0.0,0.0,0.0,0.0,0.0,0.0,0.0,0.0,0.0,0.0,0.0,0.0,0.0,0.0,0.0,0.0,0.0,0.0,0.0,0.0,-3.7685,-3.9494,-4.0253,-4.1809,-4.3047,-4.3301,-4.457,-4.5215,-4.4707,-4.5117,-4.5371,-4.5312,-4.5293,-4.5488,-4.5918,-4.5937,-4.5859,-4.5683,-4.5683,-4.5586,-4.541,-4.541,-4.5527,-4.5762,-4.5957,-4.5937,-4.5781,-4.6133,-4.6308,0.0,-4.6484,-4.666,-4.6836,-4.6836,-4.6836,0.0,0.0,0.0,0.0,0.0,-4.5937,-4.6308,-1.9372,-1.9372,-1.9359,-1.9319,-1.9345,-1.9452,-1.972,-2.0027,-2.0869,-2.2632,-2.3394,-2.4543,-2.66,-2.7094,-2.7509,-2.8096,-2.7869,-2.7468,-2.6907,-2.6413,-2.6667,-2.7802,-2.843,-2.9045,-2.9659,-3.0702,-3.1236,-3.1276,-3.1543,-3.1837,-3.2158,-3.2185,-3.2358,-3.2639,-3.2332,-3.2185,-3.2118,-3.153,-3.1276,-3.1249,-3.0955,-3.0341,-2.9432,-2.8043,-2.7495,-2.7321,-2.6172,-2.5892,-2.5985,-2.5571,0.0,0.0,0.0,0.0,0.0,0.0,0.0,0.0,0.0,0.0,0.0,0.0,0.0,0.0,0.0,0.0,0.0,0.0,0.0,0.0,0.0,0.0,0.0,0.0,-3.9815,-4.1992,-4.3496,-4.3828,-4.3906,-4.3867,-4.459,-4.5098,-4.5098,-4.5137,-4.5332,-4.5723,-4.5742,-4.5879,-4.6211,0.0,0.0,0.0,0.0,-4.5351,-4.4961,-4.4961,-4.498,-4.5039,-4.541,-4.543,-4.5117,-4.5879,-4.625,-4.6328,-4.6699,-4.707,-4.7441,-4.7441,-4.7441,-4.7363,-4.6641,-4.6113,-4.5742,-4.5742,-4.5976,-4.6308,-1.9412,-1.9372,-1.9292,-1.9052,-1.9212,-1.9386,-1.9439,-1.9893,-2.0869,-2.2632,-2.3394,-2.4543,-2.66,-2.7094,-2.7509,-2.8096,-2.7869,-2.7549,-2.7201,-2.7295,-2.7789,-2.8738,-2.9352,-3.0047,-3.0875,-3.1116,-3.1343,-3.1583,-3.1637,-3.1944,-3.2465,-3.2692,-3.2973,-3.3253,-3.2946,-3.2679,-3.2425,-3.1837,-3.1583,-3.1557,-3.1263,-3.0755,-3.0114,-2.9352,-2.8911,-2.8577,-2.7615,-2.7014,-2.6747,-2.7348,-2.676,-2.5905,-2.6547,-2.6266,0.0,0.0,0.0,0.0,0.0,0.0,0.0,0.0,0.0,0.0,0.0,0.0,0.0,0.0,0.0,0.0,0.0,0.0,0.0,-3.9548,-4.1814,-4.334,-4.3652,-4.4629,-4.5156,-4.4805,-4.5234,-4.5547,-4.5547,-4.5859,-4.6094,-4.6172,-4.6191,-4.6074,-4.582,-4.5801,-4.5449,-4.4668,-4.4648,-4.4609,-4.4512,-4.4512,-4.4687,-4.5019,0.0,0.0,-4.5566,-4.5723,-4.5976,-4.6308,-4.6387,-4.6465,-4.6543,-4.6543,-4.6543,-4.6562,-4.6738,-4.6562,-4.6191,-4.6191,-4.623,-4.6308,-1.9826,-1.9679,-1.9586,-1.9573,-1.9586,-1.9679,-1.9973,-2.0267,-2.1096,-2.2859,-2.3354,-2.4275,-2.6186,-2.652,-2.6787,-2.7228,-2.7134,-2.7175,-2.7468,-2.7909,-2.8617,-2.9659,-3.0261,-3.0782,-3.1209,-3.137,-3.1597,-3.1891,-3.1891,-3.2265,-3.3,-3.2986,-3.3227,-3.3641,-3.3187,-3.2906,-3.2719,-3.2131,-3.1891,-3.1864,-3.157,-3.1276,-3.0929,-3.0207,-2.9833,-2.9606,-2.8858,-2.8217,-2.7762,-2.8043,-2.7455,-2.6694,-2.7121,-2.6961,-2.6547,0.0,0.0,0.0,0.0,0.0,0.0,0.0,0.0,0.0,0.0,0.0,0.0,0.0,0.0,-3.4883,-3.7539,0.0,-3.9983,-4.1814,-4.3008,-4.3926,-4.459,-4.5254,-4.5508,-4.5078,-4.5605,-4.5918,-4.5703,-4.6055,-4.6308,-4.6308,-4.6308,-4.6113,-4.5703,-4.5683,-4.5371,-4.4726,-4.4707,-4.4707,-4.4707,-4.4707,-4.4824,-4.5019,-4.5254,-4.5351,-4.5371,-4.5801,-4.6113,-4.6308,-4.6523,-4.6738,-4.6933,-4.6933,-4.6933,-4.6933,-4.6933,-4.668,-4.6289,-4.6074,-4.6113,-4.6308,-2.0388,-2.0174,-2.0027,-2.0201,-2.004,-2.0067,-2.0601,-2.0681,-2.1309,-2.31,-2.3327,-2.3995,-2.5758,-2.5959,-2.6052,-2.6279,-2.6466,-2.6881,-2.7642,-2.8377,-2.9272,-3.0394,-3.0942,-3.1249,-3.1316,-3.1543,-3.1784,-3.2024,-3.2078,-3.2532,-3.3347,-3.316,-3.3387,-3.3948,-3.3334,-3.3066,-3.3026,-3.2372,-3.2104,-3.2078,-3.1784,-3.1664,-3.1597,-3.0889,-3.0581,-3.0448,-2.986,-2.9312,-2.8804,-2.8444,-2.8003,-2.7575,-2.7402,-2.7388,-2.7388,-2.7148,-2.6867,0.0,0.0,0.0,0.0,0.0,0.0,0.0,0.0,-2.9731,-3.0855,-3.4918,-3.6344,-3.7707,-4.0473,-4.1367,-4.2148,-4.3594,-4.3984,-4.4453,-4.5527,-4.5742,-4.5605,-4.5078,-4.5703,-4.6016,-4.5586,-4.5859,-4.6094,-4.6172,-4.6191,-4.6035,-4.5703,-4.5586,-4.5391,-4.5039,-4.4941,-4.4941,-4.5019,-4.5019,-4.5019,-4.5039,-4.5371,-4.541,-4.5176,-4.5859,-4.623,-4.6328,-4.666,-4.7012,-4.7324,-4.7324,-4.7324,-4.7305,-4.6953,-4.6601,-4.6269,-4.5918,-4.6016,-4.6308,-2.0962,-2.0775,-2.0508,-2.0267,-2.0214,-2.0294,-2.0628,-2.0681,-2.1309,-2.31,-2.3327,-2.3995,-2.5758,-2.5959,-2.5972,-2.5999,-2.672,-2.7321,-2.7682,-2.8764,-2.9793,-3.0702,-3.1049,-3.1343,-3.161,-3.165,-3.1677,-3.1717,-3.1971,-3.2425,-3.304,-3.3253,-3.3694,-3.4242,-3.3654,-3.3387,-3.3307,-3.2465,-3.2104,-3.2078,-3.1784,-3.1664,-3.1664,-3.1557,-3.1356,-3.1049,-3.0474,-3.0047,-2.9686,-2.9125,-2.8898,-2.8698,-2.7896,-2.7829,-2.8043,-2.8003,-2.7789,-2.7682,-2.8243,-2.7936,-2.7348,-2.6894,-2.6974,-2.7798,0.0,-3.2047,-3.4484,-3.7773,-3.9775,-4.1384,-4.2617,-4.3144,-4.3613,-4.4219,-4.4961,-4.5508,-4.5644,-4.5996,-4.5937,-4.5117,-4.5449,-4.5566,-4.5137,-4.5137,-4.5332,-4.5723,-4.5742,-4.5723,-4.5683,-4.5312,-4.5078,-4.5019,-4.4668,-4.4648,-4.5019,-4.5019,-4.5019,-4.5019,-4.5078,-4.5273,-4.5605,-4.5703,-4.5957,-4.6308,-4.6348,-4.6406,-4.6445,-4.6445,-4.6445,-4.6445,-4.6387,-4.6348,-4.6289,-4.625,-4.6269,-4.6308,-2.1082,-2.1015,-2.0882,-2.0762,-2.0601,-2.0588,-2.0882,-2.0922,-2.1376,-2.2632,-2.2806,-2.334,-2.4783,-2.509,-2.5184,-2.5184,-2.6146,-2.6947,-2.7415,-2.8724,-2.9873,-3.0755,-3.1076,-3.137,-3.1664,-3.1664,-3.1757,-3.1917,-3.2051,-3.2398,-3.2986,-3.3106,-3.3387,-3.3774,-3.336,-3.3173,-3.3106,-3.2398,-3.2104,-3.2078,-3.1784,-3.1664,-3.1664,-3.1664,-3.149,-3.1156,-3.0568,-3.0167,0.0,-2.9432,-2.9179,-2.9032,-2.9005,-2.8724,-2.8511,-2.9032,-2.847,-2.7789,-2.8217,-2.8537,-2.892,-2.9618,-2.9878,-3.0943,-3.4503,-3.5914,-3.7329,-4.002,-4.1689,-4.2734,-4.334,-4.4004,-4.4629,-4.5078,-4.5449,-4.5683,-4.5683,-4.6035,-4.5898,-4.4785,-4.5039,-4.5137,-4.4707,-4.4883,-4.5215,-4.5644,-4.5898,-4.6035,-4.6035,-4.5859,-4.5664,-4.541,-4.498,-4.4961,-4.5391,-4.541,-4.5527,-4.5762,-4.5762,-4.5859,-4.6035,-4.6035,-4.6133,-4.6308,-4.6308,-4.6308,-4.6308,-4.6308,-4.6308,-4.6308,-4.6308,-4.6308,-4.6308,-4.6308,-4.6308,-4.6308,-2.1109,-2.1109,-2.1109,-2.1109,-2.0935,-2.0869,-2.1082,-2.1109,-2.143,-2.2298,-2.2418,-2.2846,-2.3955,-2.4342,-2.4516,-2.4516,-2.5518,-2.6466,-2.7215,-2.8511,-2.9673,-3.0635,-3.1022,-3.133,-3.1543,-3.1623,-3.177,-3.1984,-3.2064,-3.2318,-3.2732,-3.2826,-3.2973,-3.316,-3.2959,-3.2866,-3.2826,-3.2318,-3.2104,-3.2078,-3.1784,-3.1623,-3.1543,-3.1543,-3.1316,-3.0942,-3.0595,-3.0529,-3.0424,-2.9542,-2.9433,-2.9631,-2.9394,-2.8978,-2.8937,-3.0246,-3.0156,-2.9606,-3.0311,-3.0508,-3.0713,-3.183,-3.2263,-3.3352,-3.7118,-3.8,-3.8834,-4.2094,-4.3183,-4.375,-4.416,-4.4766,-4.5351,-4.5781,-4.584,-4.584,-4.584,-4.6113,-4.5879,-4.4707,-4.4844,-4.4805,-4.4258,-4.4473,-4.4883,-4.5449,-4.5898,-4.623,-4.6465,-4.6484,-4.6328,-4.6035,-4.5605,-4.5527,-4.584,-4.584,-4.5996,-4.6308,-4.6308,-4.6308,-4.6308,-4.6308,-4.6308,-4.6308,-4.6308,-4.6308,-4.6308,-4.6426,-4.6406,-4.6308,-4.6426,-4.6406,-4.6308,-4.6308,-4.6308,-4.6308,-2.1109,-2.1109,-2.1109,-2.1109,-2.1096,-2.1096,-2.1109,-2.1109,-2.143,-2.2298,-2.2418,-2.2766,-2.3688,-2.4035,-2.4222,-2.4222,-2.5024,-2.6026,-2.7188,-2.8123,-2.9152,-3.0327,-3.0915,-3.1223,-3.1236,-3.1517,-3.1677,-3.1677,-3.1971,-3.2104,-3.2131,-3.2425,-3.2559,-3.2572,-3.2559,-3.2559,-3.2532,-3.2238,-3.2104,-3.2078,-3.1784,-3.149,-3.1236,-3.1236,-3.0889,-3.0421,-3.0688,-3.1457,-3.1961,-2.9494,-2.9943,-3.1139,-2.8591,-2.815,-2.9227,-3.2032,-3.3145,-3.3988,-3.5751,-3.4579,-3.2812,-3.2483,-3.2633,-3.3624,-3.6355,-3.7218,-3.8976,-4.3955,-4.4941,-4.5098,-4.5527,-4.5644,-4.5801,-4.6211,-4.6289,-4.6289,-4.6289,-4.6289,-4.5976,-4.5117,-4.5019,-4.4687,-4.3808,-4.373,-4.4101,-4.498,-4.5449,-4.6055,-4.6875,-4.6914,-4.6914,-4.6894,-4.6484,-4.6269,-4.6289,-4.6289,-4.6289,-4.6308,-4.6308,-4.6308,-4.6308,-4.6308,-4.6308,-4.6308,-4.6308,-4.6308,-4.6328,-4.6738,-4.668,-4.6348,-4.6758,-4.666,-4.6308,-4.6308,-4.6308,-4.6308,-2.1109,-2.1109,-2.1109,-2.1109,-2.1109,-2.1109,-2.1109,-2.1109,-2.1283,-2.1777,-2.2539,0.0,0.0,0.0,0.0,0.0,-2.4836,-2.5638,-2.6613,-2.7696,-2.8738,-2.974,-3.0341,-3.0742,-3.0929,-3.1223,-3.137,-3.137,-3.1677,-3.181,-3.1824,-3.2118,-3.2144,-3.1971,-3.2171,-3.2144,-3.1957,-3.1864,-3.1704,-3.1503,-3.141,-3.1196,-3.0942,-3.0942,-3.1345,-3.184,0.0,-3.1844,-3.1985,-3.2206,-3.2716,-3.3227,-3.2798,-3.2554,-3.2643,-3.408,-3.5061,-3.5796,-3.6839,-3.5272,-3.4265,-3.7681,-3.745,-3.7217,-4.1378,-4.24,-4.2986,-4.5008,-4.5234,-4.5156,-4.5586,-4.5683,-4.5625,-4.5488,-4.5937,-4.6113,-4.5527,-4.5703,-4.5566,-4.4707,-4.4609,-4.4375,-4.3769,-4.3984,-4.4394,-4.498,-4.5937,-4.6758,-4.7324,-4.7617,-4.7656,-4.7363,-4.6933,-4.6582,-4.6308,-4.6308,-4.6308,-4.6308,-4.6308,-4.6308,-4.6308,-4.6308,-4.6308,-4.6308,-4.6308,-4.6308,-4.6308,-4.6465,-4.6601,-4.6699,-4.6562,-4.6601,-4.668,-4.6406,-4.6308,-4.6308,-2.1243,-2.1269,-2.1269,-2.1269,-2.1269,0.0,0.0,0.0,0.0,0.0,0.0,0.0,0.0,0.0,0.0,0.0,0.0,-2.5144,-2.6012,-2.6881,-2.7856,-2.8951,-2.9472,-2.9927,-3.0314,-3.0501,-3.0702,-3.0915,-3.0996,-3.1209,-3.1517,-3.1704,-3.1744,-3.1677,-3.1864,-3.1837,-3.1664,-3.1664,-3.1557,-3.137,-3.1156,-3.143,-3.1861,-3.1638,-3.2192,0.0,-3.3802,-3.3524,-3.3257,-3.3676,-3.4316,-3.4819,-3.3672,-3.3518,-3.3928,-3.5146,-3.5476,-3.6034,-3.8006,-3.6947,-3.6063,-3.9612,-3.9892,-4.028,-4.3453,-4.4204,-4.4434,-4.5472,-4.5449,-4.5293,-4.543,-4.5449,-4.541,-4.5273,-4.5586,-4.5703,-4.5312,-4.5371,-4.5176,-4.4473,-4.4531,-4.4453,-4.3984,-4.4492,-4.4902,-4.5019,-4.6074,-4.6953,-4.7558,-4.7969,-4.8008,-4.7598,-4.7305,-4.6894,-4.6308,-4.6308,-4.6308,-4.6308,-4.6308,-4.6308,-4.6308,-4.6308,-4.6308,-4.6308,-4.6465,-4.6523,-4.6543,-4.6855,-4.7051,-4.7148,-4.7031,-4.6973,-4.6894,-4.6621,-4.6426,-4.6308,-2.151,-2.1577,-2.1577,0.0,0.0,0.0,0.0,0.0,0.0,0.0,0.0,0.0,0.0,0.0,0.0,0.0,0.0,0.0,-2.5411,-2.5772,-2.6587,-2.7989,-2.8377,-2.8818,-2.9379,-2.9419,-2.9713,-3.0274,-3.0007,-3.0301,-3.1129,-3.1129,-3.1289,-3.1583,-3.157,-3.1557,-3.1557,-3.1557,-3.1543,-3.1463,-3.1101,-3.1945,-3.3531,-3.2907,-3.3566,-3.4909,-3.65,-3.6659,-3.5825,-3.3958,-3.4693,-3.5969,-3.1888,-3.1512,-3.3059,-3.5406,-3.5129,-3.4895,-3.9322,-3.9251,-3.7841,-3.8203,-4.0094,-4.1994,-4.2531,-4.2621,-4.3438,-4.5242,-4.5683,-4.5547,-4.5137,-4.5058,-4.5176,-4.5586,-4.5312,-4.5195,-4.5586,-4.5273,-4.4863,-4.4473,-4.4766,-4.4844,-4.4473,-4.5195,-4.5508,-4.5098,0.0,-4.6699,-4.75,-4.7949,-4.7988,-4.7558,-4.7539,-4.7148,-4.6308,-4.6308,-4.6308,-4.6308,-4.6308,-4.6308,-4.6308,-4.6328,-4.6328,-4.6367,-4.6777,-4.6973,-4.7031,-4.7832,-4.7949,-4.7656,-4.8027,-4.7695,-4.6992,-4.6973,-4.6699,-4.6367,0.0,0.0,0.0,0.0,0.0,0.0,0.0,0.0,0.0,0.0,0.0,0.0,0.0,0.0,0.0,0.0,0.0,0.0,-2.481,-2.5545,-2.6226,-2.6814,-2.7535,-2.8003,-2.815,-2.8604,-2.8898,-2.9058,-2.9192,-2.9486,-2.9927,-2.9927,-3.0087,-3.0354,-3.014,-3.0047,-3.0047,-3.0047,-2.9793,-2.9568,-3.1161,-3.2002,-3.2364,-3.3872,-3.5128,-3.65,-3.6884,-3.7601,-3.8288,-3.7802,-3.7362,-3.6898,-3.6219,-3.5142,-3.4945,-3.7813,-3.7369,-3.6225,-3.815,-3.7144,-3.6064,-3.8217,-3.9208,-4.0327,-4.2246,-4.41,-4.553,-4.5978,-4.5898,-4.5644,-4.5527,-4.5508,-4.5449,-4.5234,-4.5371,-4.543,-4.5215,-4.4824,-4.4629,-4.4844,-4.4687,-4.4629,-4.4844,-4.5351,-4.5625,0.0,-4.6289,-4.6855,-4.709,-4.75,-4.7539,-4.7109,-4.709,-4.6836,-4.6308,-4.6308,-4.6308,-4.6308,-4.6308,-4.6308,-4.6308,-4.6621,-4.6777,-4.6797,-4.7226,-4.7422,-4.7441,-4.7656,-4.7851,-4.8027,-4.7812,-4.7793,-4.7832,-4.7519,-4.7344,-4.7246,0.0,0.0,0.0,0.0,0.0,0.0,0.0,0.0,0.0,0.0,0.0,0.0,0.0,0.0,0.0,0.0,0.0,0.0,0.0,-2.5024,-2.5571,-2.5985,-2.648,-2.6867,-2.7121,-2.7201,-2.7442,-2.7829,-2.7602,-2.7909,-2.8698,-2.8564,-2.8671,-2.8938,-2.8778,-2.8631,-2.8524,-2.8644,-2.9077,0.0,0.0,-3.2705,-3.4425,-3.5248,-3.6674,-3.8042,-3.8042,-3.8652,-3.9401,-3.8823,-3.7522,-3.6199,-3.7703,-3.6232,-3.4614,-3.7538,-3.7052,-3.5681,-3.6395,-3.5715,-3.5284,-3.6928,-3.8262,-3.9721,-4.2085,-4.3727,-4.4964,-4.588,-4.5996,-4.584,-4.5469,-4.5391,-4.5371,-4.5312,-4.5019,-4.4863,-4.5,-4.4492,-4.4258,-4.4707,-4.4707,-4.4844,-4.5273,-4.5703,-4.5957,-4.5957,-4.6387,-4.6738,-4.6914,-4.7168,-4.7187,-4.6933,-4.6933,-4.6738,-4.6308,-4.6308,-4.6308,-4.6308,-4.6308,-4.6308,-4.6308,-4.6543,-4.6758,-4.6953,0.0,-4.7676,-4.7871,-4.8066,-4.8281,-4.8476,-4.8242,-4.8164,-4.8183,-4.7949,-4.7734,-4.7578,0.0,0.0,0.0,0.0,0.0,0.0,0.0,0.0,0.0,-2.1002,-2.155,-2.2004,0.0,0.0,0.0,0.0,0.0,0.0,0.0,0.0,-2.4783,-2.5264,-2.5317,-2.5585,-2.6092,-2.5638,-2.5772,-2.6533,-2.5772,-2.6066,-2.7348,-2.7134,-2.7188,-2.7468,-2.7468,-2.7308,-2.7054,-2.7348,-2.8687,-3.0766,-3.0896,-3.3402,-3.7184,0.0,-3.7783,-3.9199,-3.9277,-3.9551,-3.9717,-3.8817,-3.6867,-3.5517,-3.7862,-3.6309,-3.3874,-3.6625,-3.5794,-3.4245,-3.4572,-3.4714,-3.4779,-3.4779,-3.6606,-3.9159,-4.1476,-4.2407,-4.3243,-4.5223,-4.6016,-4.6074,-4.5332,-4.5195,-4.5312,-4.5703,-4.4746,-4.4219,-4.4922,-4.4316,-4.3965,-4.4433,-4.4805,-4.5215,-4.5703,-4.6094,-4.6308,-4.6308,-4.6308,-4.6465,-4.6816,-4.6836,-4.6836,-4.6836,-4.6836,-4.668,-4.6308,-4.6308,-4.6308,-4.6308,-4.6308,-4.6328,-4.6387,-4.6445,-4.6699,-4.7129,-4.7558,0.0,-4.832,-4.8711,-4.8867,-4.8867,-4.8867,-4.8633,-4.8301,-4.8301,-4.8066,-4.7754,0.0,0.0,0.0,0.0,0.0,0.0,0.0,0.0,0.0,0.0,-2.1203,-2.1563,0.0,0.0,0.0,0.0,0.0,0.0,0.0,0.0,0.0,-2.4075,-2.4302,-2.4476,-2.4583,-2.4716,-2.4863,-2.501,-2.4863,-2.5037,-2.5531,-2.5732,-2.5972,-2.6253,-2.6253,-2.6092,-2.5838,-2.6132,-2.7059,-2.8626,-3.0767,-3.3297,-3.6062,-3.7629,-3.8651,0.0,-3.9629,-3.9824,-4.0078,-4.0801,-3.9764,-3.8434,-3.9321,-3.791,-3.6642,-3.9441,-3.7397,-3.4245,-3.4755,-3.3629,-3.2408,-3.2408,-3.4233,-3.6529,-3.8597,-4.0942,-4.3243,-4.5223,-4.6016,-4.625,-4.6113,-4.6074,-4.6113,-4.6191,-4.5703,-4.5254,-4.5058,-4.459,-4.4433,-4.4863,-4.498,-4.5332,-4.6113,-4.625,-4.6308,-4.6308,-4.6308,-4.6328,-4.6406,-4.6406,-4.6406,-4.6406,-4.6406,-4.6367,-4.6308,-4.6308,-4.6308,-4.6308,-4.6308,-4.6484,-4.6836,-4.7187,-4.7578,-4.8008,-4.8457,0.0,-4.875,-4.8828,-4.8867,-4.8867,-4.8867,-4.8808,-4.875,-4.875,-4.8691,-4.8633,0.0,0.0,0.0,0.0,0.0,0.0,0.0,-2.0588,-2.0895,-2.1483,-2.183,-2.2178,-2.2605,-2.2926,-2.33,0.0,0.0,0.0,0.0,0.0,0.0,0.0,-2.3901,-2.3981,-2.3981,-2.3968,-2.4035,-2.4182,0.0,-2.3941,-2.4396,-2.4382,-2.4449,-2.4583,-2.4583,-2.4516,-2.4396,-2.469,-2.5982,-2.8067,-3.0437,-3.2775,-3.5194,-3.7153,-3.8164,0.0,-3.9297,-3.9687,-4.0059,-4.1113,-4.1375,-4.1109,-4.148,-4.0264,-3.9269,-4.0708,-3.8788,-3.6105,-3.5363,-3.3384,-3.1664,-3.1664,-3.2583,-3.4333,-3.7627,-3.9633,-4.162,-4.503,-4.6191,-4.6562,-4.6348,-4.6308,-4.6308,-4.6308,-4.5586,-4.5019,-4.5019,-4.4453,-4.4277,-4.4941,-4.5019,-4.5351,-4.623,-4.6308,-4.6308,-4.6308,-4.6308,-4.6308,-4.6308,-4.6308,-4.6406,-4.6621,-4.6426,-4.6308,-4.6308,-4.6308,-4.6406,-4.6621,-4.6621,-4.6855,-4.7266,-4.748,-4.7812,-4.8223,-4.8418,0.0,-4.8867,-4.8867,-4.8867,-4.8867,-4.8867,-4.8867,-4.8867,-4.8867,-4.8867,-4.8867,0.0,0.0,0.0,0.0,0.0,0.0,-2.0802,-2.1056,-2.1483,-2.2271,-2.2766,-2.31,-2.3233,-2.35,-2.3821,0.0,0.0,0.0,0.0,0.0,0.0,0.0,0.0,0.0,-2.3581,0.0,0.0,-2.3581,-2.31,0.0,0.0,0.0,0.0,0.0,-2.346,-2.3487,-2.3447,-2.3808,-2.5583,0.0,0.0,-3.2124,-3.5129,0.0,0.0,0.0,0.0,-3.9434,-3.9883,-4.084,-4.1894,-4.2832,-4.3027,-4.2474,-4.1647,-4.2069,-4.0262,-3.7892,-3.6498,-3.3873,-3.1664,-3.1664,-3.1664,-3.2877,-3.7264,-3.8729,-4.0344,-4.4856,-4.6269,-4.6699,-4.6367,-4.6308,-4.6308,-4.6308,-4.5469,-4.4863,-4.5,-4.4512,-4.4355,-4.4961,-4.5117,-4.5469,-4.623,-4.6308,-4.6308,-4.6308,-4.6308,0.0,-4.6426,-4.6445,-4.6621,-4.7051,-4.6738,-4.6582,-4.6582,-4.6582,-4.6738,-4.707,-4.707,-4.7285,-4.7715,-4.7715,-4.7949,-4.834,-4.834,0.0,0.0,-4.8867,-4.8867,-4.8867,-4.8867,-4.8867,-4.8867,-4.8867,-4.8867,-4.8867,0.0,0.0,0.0,0.0,0.0,0.0,-2.139,-2.1496,-2.2017,-2.342,-2.3661,-2.3888,-2.4409,-2.3808,-2.3594,0.0,0.0,0.0,0.0,0.0,0.0,0.0,0.0,0.0,0.0,0.0,0.0,-2.2939,-2.2886,0.0,0.0,0.0,0.0,0.0,0.0,-2.3981,-2.3768,-2.4329,0.0,0.0,0.0,0.0,0.0,0.0,0.0,0.0,0.0,-3.9238,-3.9453,-4.0742,-4.1504,-4.2051,-4.2832,-4.3507,-4.4136,-4.4543,-4.1311,-3.794,-3.8432,-3.5338,-3.1664,-3.1664,-3.1664,-3.2877,-3.7264,-3.8729,-4.0344,-4.4856,-4.6035,-4.6348,-4.6308,-4.6308,-4.6308,-4.6308,-4.6211,-4.5859,-4.5137,-4.5293,-4.5371,-4.5058,-4.5371,-4.5801,-4.625,-4.6308,-4.6308,-4.6308,0.0,0.0,-4.6855,-4.6875,-4.707,-4.75,-4.748,-4.7461,-4.7461,-4.7461,-4.748,-4.7519,-4.7519,-4.7734,-4.8144,-4.8144,-4.8379,-4.8808,-4.8808,0.0,0.0,-4.8867,-4.8867,-4.8867,-4.8867,-4.8867,-4.8867,-4.8867,-4.8867,-4.8867,0.0,0.0,0.0,0.0,0.0,0.0,-2.1697,-2.2111,-2.2873,-2.4369,-2.4556,-2.4716,-2.5117,-2.4529,-2.4209,-2.4449,0.0,0.0,0.0,0.0,0.0,0.0,0.0,0.0,0.0,0.0,-2.2859,-2.2859,-2.2859,0.0,0.0,0.0,0.0,0.0,0.0,-2.3541,-2.3781,-2.4022,0.0,0.0,0.0,0.0,0.0,0.0,0.0,0.0,0.0,0.0,-3.9316,-4.0137,-4.1035,-4.1894,-4.25,-4.3105,-4.3789,-4.4746,-4.271,-4.0489,-4.1029,-3.7528,-3.3873,-3.3873,-3.2633,-3.264,-3.7217,-3.8547,-4.007,-4.4798,-4.6016,-4.6308,-4.6308,-4.6308,-4.6308,-4.6308,-4.6094,-4.5723,-4.5117,-4.5176,-4.5215,-4.5039,-4.541,-4.584,-4.6269,-4.6308,-4.6308,-4.6308,0.0,0.0,-4.7285,-4.707,-4.7246,-4.793,-4.7715,-4.7578,-4.7578,-4.7578,-4.7715,-4.7949,-4.7949,-4.8183,-4.8594,-4.8594,-4.8691,-4.8867,-4.8867,0.0,0.0,-4.8867,-4.8867,-4.8867,-4.8867,-4.8867,-4.8867,-4.8867,-4.8867,-4.8867,0.0,0.0,0.0,0.0,0.0,-2.0975,-2.1857,-2.2405,-2.326,-2.4756,-2.4957,-2.5064,-2.5358,-2.493,-2.4596,-2.4516,-2.4062,0.0,0.0,0.0,0.0,0.0,0.0,0.0,0.0,0.0,-2.2859,-2.2859,-2.2953,-2.2953,0.0,0.0,-2.2953,-2.2859,0.0,0.0,0.0,0.0,0.0,0.0,0.0,0.0,0.0,0.0,0.0,0.0,0.0,0.0,0.0,0.0,0.0,-4.1523,-4.207,-4.2539,-4.3144,-4.4453,-4.3345,-4.1972,-4.2351,-3.9523,-3.6545,-3.6452,-3.4974,-3.4626,-3.8597,-3.9677,-4.0946,-4.4952,-4.6094,-4.6308,-4.6308,-4.6406,-4.6445,-4.6328,-4.6152,-4.5859,-4.5293,-4.543,-4.5488,-4.5254,-4.582,-4.625,-4.6289,-4.6308,-4.6308,0.0,0.0,0.0,-4.7539,-4.7402,-4.7637,-4.8379,-4.8105,-4.7949,-4.7949,-4.7949,-4.8105,-4.8398,-4.8398,-4.8555,-4.8867,-4.8867,-4.8867,-4.8867,-4.8867,0.0,0.0,-4.8906,-4.8945,-4.9043,-4.8906,-4.8867,-4.8867,-4.8867,-4.8867,-4.8867,0.0,0.0,0.0,0.0,0.0,0.0,-2.1857,-2.2231,-2.2953,-2.4449,-2.4636,-2.4756,-2.505,-2.4823,-2.4516,-2.4235,-2.3941,0.0,0.0,0.0,0.0,0.0,0.0,0.0,0.0,0.0,-2.2859,-2.2859,-2.3166,-2.3166,-2.2873,-2.318,-2.3153,-2.2873,0.0,0.0,0.0,0.0,0.0,0.0,0.0,0.0,0.0,0.0,0.0,0.0,0.0,0.0,0.0,0.0,0.0,0.0,0.0,-4.209,-4.2695,-4.4023,-4.2932,-4.1557,-4.1954,-4.0791,-3.9422,-3.9076,-3.8977,-3.9523,-4.2067,-4.2621,-4.3353,-4.5744,-4.6289,-4.6308,-4.6308,-4.6641,-4.6777,-4.6367,-4.6641,-4.6621,-4.5781,-4.6387,-4.6601,-4.5762,-4.6797,-4.7226,-4.6387,-4.6308,-4.6308,0.0,0.0,0.0,-4.7558,-4.7969,-4.8398,-4.8848,-4.8848,-4.8848,-4.8848,-4.8848,-4.8848,-4.8848,-4.8848,-4.8848,-4.8867,-4.8867,-4.8867,0.0,0.0,0.0,0.0,-4.9043,-4.9121,-4.9473,-4.9023,-4.8867,-4.8867,-4.8867,-4.8867,-4.8867,0.0,0.0,0.0,0.0,0.0,0.0,-2.1911,-2.2405,-2.318,-2.4476,-2.4636,-2.4823,-2.5317,-2.493,-2.4596,-2.4502,-2.4235,0.0,0.0,0.0,0.0,0.0,0.0,0.0,0.0,-2.2859,-2.2966,-2.318,-2.3273,-2.3273,-2.318,-2.3287,-2.3153,-2.2859,-2.2966,-2.339,0.0,0.0,0.0,0.0,0.0,0.0,0.0,0.0,0.0,0.0,0.0,0.0,0.0,0.0,0.0,0.0,0.0,0.0,0.0,-4.3203,-4.3504,-4.3804,-4.5083,-4.3573,-4.181,-4.2214,-4.0436,-3.9469,-4.2352,-4.2621,-4.3041,-4.5686,-4.6308,-4.6308,-4.6308,-4.6406,-4.6562,-4.6699,-4.6601,-4.6406,-4.6152,-4.6328,-4.6289,-4.5742,-4.6289,-4.6601,-4.6328,0.0,0.0,0.0,0.0,0.0,-4.7558,-4.7969,-4.8418,-4.8848,-4.8867,-4.8867,-4.8867,-4.8867,-4.8867,-4.8867,-4.8867,-4.8867,-4.8867,-4.8867,-4.8867,0.0,0.0,0.0,0.0,-4.9043,-4.9121,-4.9492,-4.9023,-4.8867,-4.8867,-4.8867,-4.8867,-4.8867,0.0,0.0,0.0,0.0,0.0,0.0,-2.2084,-2.2365,-2.2953,-2.4155,-2.4302,-2.4529,-2.5117,-2.485,-2.4556,-2.4329,-2.4249,0.0,0.0,0.0,0.0,0.0,0.0,0.0,-2.3924,-2.3256,-2.3528,-2.4609,-2.4039,-2.3821,-2.3821,-2.3941,-2.3647,-2.3033,-2.3033,-2.3887,0.0,0.0,0.0,0.0,0.0,0.0,-3.7148,0.0,0.0,0.0,0.0,0.0,0.0,0.0,0.0,0.0,0.0,0.0,0.0,0.0,-4.3711,-4.4433,-4.584,-4.5274,-4.4398,-4.4771,-4.3178,-4.2031,-4.3985,-4.4081,-4.4153,-4.5881,-4.6308,-4.6308,-4.6308,-4.6426,-4.6621,-4.6894,-4.6855,-4.6719,-4.6562,-4.668,-4.668,-4.6426,-4.6348,-4.6367,0.0,0.0,0.0,0.0,0.0,0.0,-4.7793,-4.8223,-4.8574,-4.8848,-4.8867,-4.8867,-4.8867,-4.8867,-4.8867,-4.8867,-4.8867,-4.8867,-4.8867,-4.8867,-4.8867,0.0,0.0,0.0,0.0,-4.9043,-4.9121,-4.9492,-4.9023,-4.8867,-4.8867,-4.8867,-4.8867,-4.8867,0.0,0.0,0.0,0.0,0.0,0.0,0.0,-2.2164,-2.2405,-2.3554,-2.3701,-2.3941,-2.4543,-2.4609,-2.4396,-2.3875,0.0,0.0,0.0,0.0,0.0,0.0,0.0,0.0,-2.5278,-2.3802,-2.4108,-2.6555,-2.5167,-2.4623,-2.4676,-2.493,-2.4449,-2.3354,-2.334,-2.5193,-2.8527,0.0,0.0,0.0,0.0,0.0,0.0,0.0,0.0,0.0,0.0,0.0,0.0,0.0,0.0,0.0,0.0,0.0,0.0,0.0,0.0,0.0,0.0,-4.5898,-4.6777,-4.6465,-4.6348,-4.6308,-4.6348,-4.6328,0.0,-4.6308,-4.6308,-4.6308,-4.6348,-4.6641,-4.6914,-4.6973,-4.7285,-4.7383,-4.6992,-4.7246,-4.7519,-4.7578,-4.6816,-4.6465,-4.6894,0.0,0.0,0.0,0.0,0.0,-4.8183,-4.8613,-4.8867,-4.8867,-4.8867,-4.8867,-4.8867,-4.8867,-4.8867,-4.8867,-4.8867,-4.8867,-4.8867,-4.8867,-4.8867,0.0,0.0,0.0,0.0,-4.9082,-4.916,-4.9492,-4.9023,-4.8867,-4.8867,-4.8867,-4.8867,-4.8867,0.0,0.0,0.0,0.0,0.0,0.0,0.0,0.0,0.0,0.0,-2.3073,-2.3394,-2.4209,-2.4302,-2.4342,0.0,0.0,0.0,0.0,0.0,0.0,0.0,0.0,0.0,-2.3748,-2.3255,-2.3566,-2.4761,-2.4407,-2.4529,-2.497,-2.481,-2.4356,-2.3661,-2.342,-2.5309,-2.8877,-3.1497,0.0,0.0,0.0,0.0,0.0,0.0,0.0,0.0,-3.8418,-3.8789,0.0,0.0,0.0,0.0,0.0,0.0,0.0,0.0,-4.3711,-4.4277,-4.4492,0.0,-4.6172,-4.7051,-4.6777,-4.6387,0.0,-4.6543,-4.6308,-4.6308,-4.6308,-4.6406,-4.6719,-4.6601,-4.666,-4.7324,-4.7226,-4.7051,-4.6933,-4.6738,-4.6855,-4.75,-4.6816,-4.6465,-4.6894,0.0,0.0,0.0,0.0,-4.8105,-4.8203,-4.8613,-4.8867,-4.8867,-4.8867,-4.8867,-4.8867,-4.8867,-4.8867,-4.8867,-4.8867,-4.8867,-4.8867,-4.8867,-4.8867,0.0,0.0,0.0,-4.9512,-4.9414,-4.9433,-4.9492,-4.9023,-4.8867,-4.8867,-4.8867,-4.8867,-4.8867,0.0,0.0,0.0,0.0,0.0,0.0,0.0,0.0,0.0,0.0,-2.2739,-2.3046,-2.4088,-2.4209,0.0,0.0,0.0,0.0,0.0,0.0,0.0,0.0,0.0,-2.4164,-2.5958,-2.4039,-2.3991,-2.5744,-2.5038,-2.497,-2.5678,-2.5518,-2.4983,-2.4273,-2.5207,-2.6811,-2.8993,-3.2084,-3.4146,0.0,-3.6113,0.0,0.0,0.0,0.0,0.0,-3.834,-3.8848,0.0,-3.9961,-4.0625,-4.1308,0.0,0.0,0.0,0.0,-4.3711,-4.4121,-4.4336,-4.5156,-4.6133,-4.6816,-4.6797,-4.6641,-4.6875,-4.6601,-4.6308,-4.6308,-4.6308,-4.6367,-4.6601,-4.6621,-4.6816,-4.748,-4.7539,-4.7519,-4.7519,-4.6973,-4.6758,-4.7226,-4.6875,-4.6601,0.0,0.0,0.0,0.0,0.0,-4.8301,-4.8496,-4.873,-4.8867,-4.8867,-4.8867,-4.8867,-4.8867,-4.8867,-4.8867,-4.8867,-4.8867,-4.8867,-4.8867,-4.8867,-4.8867,0.0,0.0,0.0,-4.9238,-4.9433,-4.9414,-4.9199,-4.8945,-4.8867,-4.8867,-4.8867,-4.8867,-4.8867,0.0,0.0,0.0,0.0,0.0,0.0,0.0,0.0,0.0,0.0,0.0,0.0,0.0,0.0,0.0,0.0,0.0,0.0,0.0,0.0,0.0,0.0,0.0,-2.5257,-2.8196,-2.5082,-2.4575,-2.7187,-2.5786,-2.5558,-2.6453,-2.6453,-2.5798,-2.473,-2.7121,-2.8395,-2.891,-3.2936,-3.4902,-3.543,-3.5781,0.0,0.0,0.0,0.0,0.0,0.0,0.0,0.0,-4.0273,-4.0898,-4.1543,-4.2637,0.0,0.0,0.0,0.0,0.0,-4.4355,-4.5332,-4.6211,-4.6211,-4.6562,-4.6914,-4.6855,-4.6562,-4.6308,-4.6308,-4.6308,-4.6348,-4.6465,-4.668,-4.6992,-4.75,-4.7773,-4.7988,-4.8183,-4.7461,-4.6973,-4.7109,-4.7012,0.0,0.0,0.0,0.0,0.0,0.0,-4.8476,-4.8848,-4.8867,-4.8867,-4.8867,-4.8867,-4.8867,-4.8867,-4.8867,-4.8867,-4.8867,-4.8867,-4.8867,-4.8867,-4.8867,-4.8867,-4.8887,0.0,0.0,-4.8887,-4.9336,-4.9258,-4.8867,-4.8867,-4.8867,-4.8867,-4.8867,-4.8867,-4.8867,0.0,0.0,0.0,0.0,0.0,0.0,0.0,0.0,0.0,0.0,0.0,0.0,0.0,0.0,0.0,0.0,0.0,0.0,0.0,0.0,0.0,0.0,-2.4834,-2.3931,-2.4205,-2.362,-2.391,-2.5133,-2.5106,-2.5651,-2.676,-2.676,-2.5999,-2.4743,-2.7354,-2.8477,-2.8543,-3.2506,-3.4648,-3.541,-3.5469,0.0,0.0,0.0,0.0,0.0,0.0,0.0,0.0,-4.0469,-4.1289,-4.2266,-4.2461,0.0,0.0,0.0,0.0,0.0,-4.4707,-4.5332,-4.5781,-4.5781,-4.6348,-4.6836,-4.6484,-4.6348,-4.6308,-4.6308,-4.6308,-4.6523,-4.7246,-4.6836,-4.666,-4.7461,-4.7031,-4.6973,-4.8047,-4.7461,-4.7187,-4.793,0.0,0.0,0.0,0.0,0.0,0.0,0.0,-4.8789,-4.8848,-4.8867,-4.8867,-4.8867,-4.8867,-4.8867,-4.8867,-4.8867,-4.8867,-4.8867,-4.8867,-4.8867,-4.8867,-4.8867,-4.8867,-4.8887,0.0,-4.9277,-4.8887,-4.9336,-4.9258,-4.8867,-4.8867,-4.8867,-4.8867,-4.8867,-4.8867,-4.8867,0.0,0.0,0.0,0.0,0.0,0.0,0.0,0.0,0.0,0.0,0.0,0.0,0.0,0.0,0.0,0.0,0.0,0.0,0.0,0.0,0.0,0.0,-2.4086,-2.4255,-2.5057,-2.4104,-2.3995,-2.4877,-2.5331,-2.6146,-2.7281,-2.6814,-2.5972,-2.4972,-2.6534,-2.7573,-2.8477,-3.1588,-3.3974,-3.543,0.0,0.0,0.0,0.0,0.0,0.0,0.0,0.0,0.0,0.0,-4.1562,-4.2461,-4.2695,0.0,0.0,0.0,0.0,0.0,-4.4512,-4.5176,-4.5723,-4.5957,-4.666,-4.7226,-4.7031,-4.5865,-4.531,-4.6617,-4.5865,-4.5423,-4.732,-4.7266,-4.7129,-4.7519,-4.7246,-4.7266,-4.8086,-4.7871,-4.7676,0.0,0.0,0.0,0.0,0.0,0.0,0.0,0.0,0.0,-4.8867,-4.8867,-4.8867,-4.8867,-4.8867,-4.8867,-4.8867,-4.8867,-4.8867,-4.8867,-4.8867,-4.8867,-4.8867,-4.8867,-4.8867,-4.8887,0.0,-4.9277,-4.8887,-4.9336,-4.9258,-4.8867,-4.8867,-4.8867,-4.8867,-4.8867,-4.8867,-4.8867,0.0,0.0,0.0,0.0,0.0,0.0,0.0,0.0,0.0,0.0,0.0,0.0,0.0,0.0,0.0,0.0,0.0,0.0,0.0,0.0,-2.387,-2.3981,-2.4327,-2.482,-2.5842,-2.4547,-2.4409,-2.5291,-2.5945,-2.6827,-2.7896,-2.7014,-2.6119,-2.5389,-2.6013,-2.7199,-2.8726,-3.1272,-3.3662,-3.5898,0.0,0.0,0.0,0.0,0.0,0.0,0.0,0.0,0.0,0.0,0.0,0.0,0.0,0.0,0.0,-4.3672,-4.3711,-4.3848,-4.4512,-4.5098,-4.5664,-4.6289,-4.6933,-4.7422,-4.7422,-4.5848,-4.4851,-4.6908,-4.5773,-4.4906,-4.716,-4.7656,-4.7656,-4.7461,-4.7519,-4.7734,-4.8144,-4.8203,0.0,0.0,0.0,0.0,0.0,0.0,0.0,0.0,0.0,0.0,-4.8867,-4.8867,-4.8867,-4.8867,-4.8867,-4.8867,-4.8867,-4.8867,-4.8867,-4.8867,-4.8867,-4.8867,-4.8867,-4.8867,-4.8867,-4.8867,-4.9219,-4.918,-4.8887,-4.9219,-4.918,-4.8867,-4.8867,-4.8867,-4.8867,-4.8867,-4.8867,-4.8867,0.0,0.0,0.0,0.0,0.0,0.0,0.0,0.0,0.0,0.0,0.0,0.0,0.0,0.0,0.0,0.0,0.0,0.0,0.0,0.0,-2.4726,-2.6055,0.0,-2.5534,-2.3633,-2.4155,-2.501,-2.5892,-2.6747,-2.7642,-2.8524,-2.7629,-2.6734,-2.602,-2.7136,-2.8341,-2.996,-3.2052,-3.4529,-3.7129,-3.6797,0.0,0.0,0.0,0.0,0.0,0.0,0.0,0.0,0.0,0.0,0.0,0.0,0.0,-4.3203,-4.3594,-4.3711,-4.3984,-4.5234,-4.5332,-4.5351,-4.6582,-4.6933,-4.6973,-4.6973,-4.6484,-4.6211,-4.6387,-4.6211,-4.6445,-4.7422,-4.7891,-4.7891,-4.7109,-4.7324,-4.7734,-4.8144,0.0,0.0,0.0,0.0,0.0,0.0,0.0,0.0,0.0,0.0,0.0,-4.8867,-4.8867,-4.8867,-4.8867,-4.8867,-4.8867,-4.8867,-4.8867,-4.8867,-4.8867,-4.8867,-4.8867,-4.8867,-4.8867,-4.8867,-4.8867,-4.8887,-4.8887,-4.8867,-4.8887,-4.8887,-4.8867,-4.8867,-4.8867,-4.8867,-4.8867,-4.8867,-4.8867,0.0,0.0,0.0,0.0,0.0,0.0,0.0,0.0,0.0,0.0,0.0,0.0,0.0,0.0,0.0,0.0,0.0,0.0,0.0,0.0,-2.3958,-2.472,-2.4484,-2.4219,-2.3861,-2.5702,-2.671,-2.6774,-2.7843,-2.8551,-2.8858,-2.7776,-2.6894,-2.6186,-2.5965,-2.7271,-2.9798,-3.1005,-3.3617,-3.6934,-3.7305,-3.7812,0.0,0.0,0.0,0.0,0.0,0.0,0.0,0.0,-4.1758,-4.2207,-4.2266,-4.2832,-4.3437,-4.334,-4.3496,-4.3926,-4.498,-4.5156,-4.5332,-4.6601,-4.6933,-4.6933,-4.6933,-4.5915,-4.5619,-4.7121,-4.5972,-4.5318,-4.732,-4.7715,-4.7715,-4.7383,-4.7695,-4.8027,0.0,0.0,0.0,0.0,0.0,0.0,0.0,0.0,0.0,0.0,0.0,0.0,0.0,-4.8867,-4.8867,-4.8867,-4.8867,-4.8867,-4.8867,-4.8867,-4.8867,-4.8867,-4.8867,-4.8867,-4.8867,-4.8867,-4.8867,-4.8867,-4.8867,-4.8867,-4.8867,-4.8867,-4.8867,-4.8867,-4.8867,-4.8867,-4.8867,-4.8867,-4.8867,-4.8867,0.0,0.0,0.0,0.0,0.0,0.0,0.0,0.0,0.0,0.0,0.0,0.0,0.0,0.0,0.0,0.0,0.0,0.0,-2.3634,-2.3527,-2.3795,-2.444,-2.4261,-2.447,-2.516,-2.7187,-2.7985,-2.7402,-2.8591,-2.9085,-2.8885,-2.7976,-2.7134,-2.6346,-2.5545,-2.7201,-3.0475,-3.0866,-3.3375,-3.7324,-3.7891,-3.8301,0.0,0.0,0.0,0.0,0.0,0.0,0.0,0.0,-4.166,-4.2051,-4.2168,-4.2715,-4.3301,-4.3281,-4.3672,-4.4277,-4.5039,-4.5332,-4.5703,-4.6855,-4.7031,-4.6933,-4.6933,-4.6067,-4.5699,-4.7257,-4.5981,-4.5269,-4.683,-4.75,-4.7734,-4.7598,-4.8047,-4.8418,0.0,0.0,0.0,0.0,0.0,0.0,0.0,0.0,0.0,0.0,0.0,0.0,0.0,-4.8867,-4.8867,-4.8867,-4.8867,-4.8867,-4.8867,-4.8867,-4.8867,-4.8867,-4.8867,-4.8867,-4.8867,-4.8867,-4.8867,-4.8867,-4.8867,-4.8867,-4.8867,-4.8867,-4.8867,-4.8867,-4.8867,-4.8867,-4.8867,-4.8867,-4.8867,-4.8867,0.0,0.0,0.0,0.0,0.0,0.0,0.0,0.0,0.0,0.0,0.0,0.0,0.0,0.0,0.0,0.0,0.0,0.0,-2.3327,-2.3607,-2.4454,-2.5888,-2.6309,-2.6788,-2.7301,-2.8312,-2.8375,-2.7709,-2.8898,-2.9179,-2.8591,-2.8283,-2.7509,-2.6386,-2.6386,-2.8511,-3.1944,-3.1944,-3.4563,-3.8574,-3.8574,-3.8574,-3.8574,0.0,0.0,0.0,0.0,0.0,0.0,0.0,-4.1523,-4.1406,-4.2656,-4.2773,-4.2598,-4.3437,-4.4316,-4.5117,-4.5547,-4.5976,-4.6504,-4.7363,-4.7246,-4.6933,-4.6933,-4.6933,-4.6816,-4.6387,-4.6641,-4.6816,-4.6387,-4.7344,-4.8066,-4.7656,-4.8301,0.0,0.0,0.0,0.0,0.0,0.0,0.0,0.0,0.0,0.0,0.0,0.0,0.0,0.0,-4.8867,-4.8867,-4.8867,-4.8867,-4.8867,-4.8867,-4.8867,-4.8867,-4.8867,-4.8867,-4.8867,-4.8867,-4.8867,-4.8867,-4.8867,-4.8867,-4.8867,-4.8867,-4.8867,-4.8867,-4.8867,-4.8867,-4.8867,-4.8867,-4.8867,-4.8867,-4.8867,0.0,0.0,0.0,0.0,0.0,0.0,0.0,0.0,0.0,0.0,0.0,0.0,0.0,0.0,0.0,0.0,0.0,0.0,-2.3313,-2.3207,-2.3457,-2.4122,-2.3998,-2.4219,-2.4842,-2.6378,-2.7565,-2.8337,-2.9959,-2.9944,-2.827,-2.9212,-2.8649,-2.668,-2.648,-2.7593,-2.9868,-3.1361,-3.35,-3.6181,-3.7836,-3.8574,-3.8574,0.0,0.0,0.0,0.0,0.0,0.0,0.0,0.0,0.0,-4.1719,-4.2461,-4.3262,-4.291,-4.3652,-4.4687,-4.5098,-4.5527,-4.5996,-4.6543,-4.7031,-4.7226,-4.6621,-4.6719,-4.6816,-4.6387,-4.6875,-4.7344,-4.7226,-4.7754,-4.8262,-4.8457,0.0,0.0,0.0,0.0,0.0,0.0,0.0,0.0,0.0,0.0,0.0,0.0,0.0,0.0,0.0,-4.8867,-4.8867,-4.8867,-4.8867,-4.8867,-4.8867,-4.8867,-4.8867,-4.8867,-4.8867,-4.8867,-4.8867,-4.8867,-4.8867,-4.8867,-4.8867,-4.8867,-4.8867,-4.8867,-4.8867,-4.8867,-4.8867,-4.8867,-4.8867,-4.8867,-4.8867,-4.8867,0.0,0.0,0.0,0.0,0.0,0.0,0.0,0.0,0.0,0.0,-2.2859,-2.2859,0.0,0.0,0.0,0.0,0.0,0.0,-2.3126,-2.2966,-2.2939,-2.314,-2.2966,-2.3719,-2.5538,-2.6003,-2.7295,-2.9216,-3.0432,-3.0015,-2.7956,-2.9885,-2.9349,-2.6827,-2.7014,-2.788,-2.9344,-3.1333,-3.2926,-3.4302,-3.7587,-3.8252,-3.7511,0.0,0.0,0.0,0.0,0.0,0.0,0.0,0.0,0.0,-4.1699,-4.25,-4.3418,-4.3262,-4.4023,-4.5039,-4.5625,-4.6094,-4.6543,-4.6953,-4.7187,-4.7187,-4.666,-4.6738,-4.6914,-4.6836,-4.7226,-4.7578,-4.7578,-4.793,0.0,0.0,0.0,0.0,0.0,0.0,0.0,0.0,0.0,0.0,0.0,0.0,0.0,0.0,0.0,0.0,0.0,-4.8867,-4.8867,-4.8867,-4.8867,-4.8867,-4.8867,-4.8867,-4.8867,-4.8867,-4.8867,-4.8867,-4.8867,-4.8867,-4.8867,-4.8867,-4.8867,-4.8867,-4.8867,-4.8867,-4.8867,-4.8867,-4.8867,-4.8867,-4.8867,-4.8867,-4.8867,-4.8867,0.0,0.0,0.0,0.0,0.0,0.0,0.0,0.0,0.0,-2.2859,-2.2859,-2.2859,0.0,0.0,0.0,-2.2859,-2.2859,-2.2859,-2.2859,-2.2859,-2.2859,-2.2859,-2.2886,-2.4399,-2.7762,-2.6627,-2.7351,-3.0082,-3.063,-2.9717,-2.7241,-3.0383,-3.0029,-2.6934,-2.7776,-2.8813,-2.9844,-3.1522,-3.225,-3.2674,-3.7035,-3.7557,-3.57,-3.8226,0.0,0.0,0.0,0.0,0.0,0.0,0.0,0.0,-4.2285,-4.2754,-4.3281,-4.4062,-4.4941,-4.584,-4.6601,-4.7187,-4.7656,-4.8008,-4.75,-4.6933,-4.6973,-4.7012,-4.7148,-4.75,-4.7617,-4.7637,-4.7637,-4.7988,0.0,0.0,0.0,0.0,0.0,0.0,0.0,0.0,0.0,0.0,0.0,0.0,0.0,0.0,0.0,0.0,0.0,-4.8867,-4.8867,-4.8867,-4.8867,-4.8867,-4.8867,-4.8867,-4.8867,-4.8867,-4.8867,-4.8867,-4.8867,-4.8867,-4.8867,-4.8867,-4.8867,-4.8867,-4.8867,-4.8867,-4.8867,-4.8867,-4.8867,-4.8867,-4.8867,-4.8867,-4.8867,-4.8867,0.0,0.0,0.0,0.0,0.0,0.0,0.0,0.0,-2.2859,-2.2859,-2.2859,-2.2859,-2.2859,-2.2859,0.0,-2.2859,-2.2859,-2.2859,-2.2859,-2.2859,-2.2859,-2.2859,-2.31,-2.3829,-2.5281,-2.5377,-2.6516,-2.8743,-3.1276,-3.0581,-2.6934,-3.1265,-3.1284,-2.7522,-2.7949,-2.823,-2.829,-3.004,-3.0541,-3.0392,-3.4889,-3.6194,-3.5812,-3.7901,-3.8652,0.0,0.0,0.0,0.0,0.0,0.0,0.0,-4.2187,-4.2949,-4.3535,-4.3398,-4.4453,-4.5723,-4.5898,-4.6738,-4.7519,-4.7266,-4.707,-4.7012,-4.7363,-4.7695,-4.7871,-4.7637,-4.7851,-4.8066,-4.8066,0.0,0.0,0.0,0.0,0.0,0.0,0.0,0.0,0.0,0.0,0.0,0.0,0.0,0.0,0.0,0.0,0.0,-4.8867,-4.8867,-4.8867,-4.8867,-4.8867,-4.8867,-4.8867,-4.8867,-4.8867,0.0,-4.8867,-4.8867,-4.8867,-4.8867,-4.8867,-4.8867,-4.8867,-4.8867,-4.8867,-4.8867,-4.8867,-4.8867,-4.8867,-4.8867,-4.8867,-4.8867,-4.8867,-4.8867,0.0,0.0,0.0,0.0,0.0,0.0,0.0,0.0,-2.2859,-2.2859,-2.2859,-2.2806,-2.2672,-2.2645,0.0,0.0,-2.2565,-2.2645,-2.2645,-2.2779,-2.2926,-2.3073,-2.338,-2.4303,-2.605,-2.6376,-2.7642,-3.004,-3.1636,-3.0839,-2.7819,-3.1265,-3.0883,-2.7736,-2.8457,-2.8457,-2.805,-2.9833,-2.9661,-2.8475,-3.2994,-3.389,-3.2944,-3.6198,-3.7368,-3.7198,-3.8263,0.0,0.0,0.0,0.0,0.0,0.0,0.0,-4.3711,-4.3711,-4.4492,-4.5488,-4.6113,-4.6758,-4.7207,-4.6992,-4.6933,-4.7051,-4.748,-4.791,-4.8203,-4.8203,-4.8359,-4.8516,0.0,0.0,0.0,0.0,0.0,0.0,0.0,0.0,0.0,0.0,0.0,0.0,0.0,0.0,0.0,0.0,0.0,-4.8867,-4.8867,-4.8867,-4.8867,-4.8867,-4.8867,-4.8867,-4.8867,-4.8867,-4.8867,-4.8867,-4.8867,-4.8867,-4.8867,-4.8867,-4.8867,-4.8867,-4.8867,-4.8867,-4.8867,-4.8867,-4.8867,-4.8867,-4.8867,-4.8867,-4.8867,-4.8867,-4.8867,-4.8887,0.0,0.0,0.0,0.0,0.0,0.0,0.0,0.0,0.0,-2.2859,-2.2859,-2.2752,-2.2458,-2.2418,-2.2298,0.0,0.0,0.0,-2.2418,-2.2699,-2.3006,-2.3313,-2.3607,-2.4828,-2.7038,-2.7335,-2.8771,-3.1581,-3.1082,-3.0275,-2.9215,-3.0764,-3.0136,-2.7896,-2.8831,-2.8898,-2.8439,-2.9713,-2.9037,-2.723,-3.1476,-3.1685,-2.9864,-3.4009,-3.5406,-3.5217,-3.6904,-3.8035,-3.8696,-3.9237,0.0,0.0,0.0,0.0,-4.3594,-4.4121,-4.4629,-4.5254,-4.6308,-4.6719,-4.6836,-4.6914,-4.6933,-4.7051,-4.748,-4.791,-4.832,-4.8769,-4.8867,0.0,0.0,0.0,0.0,0.0,0.0,0.0,0.0,0.0,0.0,0.0,0.0,0.0,0.0,0.0,0.0,0.0,0.0,-4.8867,-4.8867,-4.8867,-4.8867,-4.8867,-4.8867,-4.8867,-4.8867,-4.8867,-4.8867,-4.8867,-4.8867,-4.8867,-4.8867,-4.8867,-4.8867,-4.8867,-4.8867,-4.8867,-4.8867,-4.8867,-4.8867,-4.8867,-4.8867,-4.8867,-4.8867,-4.8867,-4.8867,-4.8906,0.0,0.0,0.0,0.0,0.0,0.0,0.0,0.0,0.0,0.0,-2.2859,-2.2752,-2.2458,-2.2418,-2.2298,-2.2004,-2.2258,-2.2418,-2.2418,0.0,0.0,-2.3313,-2.3607,-2.395,-2.4303,-2.5106,-2.7027,-3.0203,-2.7953,-2.8212,-3.0908,-3.0572,-2.975,-2.8484,-2.8377,-2.8551,-2.8885,-2.8649,-2.8068,-2.7391,-3.0086,-3.0626,-3.0024,-3.2398,-3.3126,-3.2944,-3.3264,-3.4486,-3.6162,-3.6929,-3.8575,0.0,0.0,0.0,-4.2754,-4.3555,-4.4375,-4.5058,-4.5234,-4.582,-4.6465,-4.6836,-4.6933,-4.7051,-4.748,-4.791,-4.832,-4.8769,-4.8867,0.0,0.0,0.0,0.0,0.0,0.0,0.0,0.0,0.0,0.0,0.0,0.0,0.0,0.0,0.0,0.0,0.0,-4.8867,-4.8867,-4.8867,-4.8867,-4.8867,-4.8867,-4.8867,-4.8867,-4.8867,-4.8867,-4.8867,-4.8867,-4.8867,-4.8867,-4.8867,-4.8867,-4.8867,-4.8867,-4.8867,-4.8867,-4.8867,-4.8867,-4.8867,-4.8867,-4.8867,-4.8867,-4.8867,-4.8867,-4.8867,-4.8867,0.0,0.0,0.0,0.0,0.0,0.0,0.0,0.0,0.0,0.0,0.0,-2.2752,-2.2458,-2.2418,-2.2231,-2.1777,-2.2164,-2.2485,-2.2659,-2.2792,-2.3006,-2.3313,-2.3447,-2.3607,-2.3768,-2.5277,-2.75,-3.0219,-2.8176,-2.8612,-3.1726,-2.9301,-2.8288,-2.8337,-2.8203,-2.847,-2.9005,-2.8404,-2.7896,-2.7687,-2.862,-2.91,-2.9122,-3.0824,-3.1495,-3.1637,-3.2488,-3.328,-3.3971,-3.4728,-3.5624,-3.6958,-3.9467,0.0,0.0,0.0,-4.3789,-4.4453,-4.5195,-4.584,-4.6348,-4.6523,-4.6758,-4.7051,-4.748,-4.791,-4.8262,-4.8457,0.0,0.0,0.0,0.0,0.0,0.0,0.0,0.0,0.0,0.0,0.0,0.0,0.0,0.0,0.0,0.0,0.0,0.0,-4.8867,-4.8867,-4.8867,-4.8867,-4.8867,-4.8867,-4.8867,-4.8867,-4.8867,-4.8867,-4.8867,-4.8867,-4.8867,-4.8867,-4.8867,-4.8867,-4.8867,-4.8867,-4.8867,-4.8867,-4.8867,-4.8867,-4.8867,-4.8867,-4.8867,-4.8867,-4.8867,-4.8867,-4.8867,-4.8887,0.0,0.0,0.0,0.0,0.0,0.0,0.0,0.0,0.0,0.0,0.0,-2.2752,-2.2458,0.0,0.0,0.0,-2.2017,-2.2432,-2.2726,-2.2752,-2.2886,-2.3193,-2.3287,-2.3434,-2.3647,-2.5399,-2.7656,-3.0319,-2.8634,-2.9626,-3.281,-2.9042,-2.796,-2.9184,-2.8541,-2.847,-2.9005,-2.8484,-2.8083,-2.7829,-2.7976,-2.8123,-2.8399,-2.9727,-3.018,-3.0389,-3.1235,-3.1794,-3.2152,-3.2468,-3.3051,-3.4082,-3.6532,-3.7864,0.0,0.0,0.0,-4.3789,-4.4883,-4.5566,-4.6016,-4.6113,-4.6465,-4.6914,-4.7461,-4.7734,-4.7949,0.0,0.0,0.0,0.0,0.0,0.0,0.0,0.0,0.0,0.0,0.0,0.0,0.0,0.0,0.0,0.0,0.0,0.0,0.0,-4.8867,-4.8867,-4.8867,-4.8867,-4.8867,-4.8867,-4.8867,-4.8867,-4.8867,-4.8867,-4.8867,-4.8867,-4.8867,-4.8867,-4.8867,-4.8867,-4.8867,-4.8867,-4.8867,-4.8867,-4.8867,-4.8867,-4.8867,-4.8867,-4.8867,-4.8867,-4.8867,-4.8867,-4.8867,-4.8906,0.0,0.0,0.0,0.0,0.0,0.0,0.0,0.0,0.0,0.0,0.0,-2.2752,-2.2458,-2.2418,-2.2178,-2.1603,-2.183,-2.2124,-2.2418,-2.2445,-2.2579,-2.2873,-2.3166,0.0,-2.3354,-2.4044,-2.6171,-2.9937,-2.8526,-3.0224,-3.468,-3.115,-3.0455,-3.1963,-2.9381,-2.847,-2.9018,-2.8711,-2.8404,-2.8177,-2.8738,-2.8818,-2.8644,-2.934,-2.9367,-2.9017,-2.8298,-2.9434,-3.1108,-3.0054,-3.1089,-3.3199,-3.4084,-3.5921,-3.7765,0.0,0.0,0.0,-4.3672,-4.4433,-4.5195,-4.5605,-4.6016,-4.6543,-4.7383,-4.7285,-4.7226,-4.8047,0.0,0.0,0.0,0.0,0.0,0.0,0.0,0.0,0.0,0.0,0.0,0.0,0.0,0.0,0.0,0.0,0.0,0.0,-4.8867,-4.8867,-4.8867,-4.8867,-4.8867,-4.8867,-4.8867,-4.8867,-4.8867,-4.8867,-4.8867,-4.8867,-4.8867,-4.8867,-4.8867,-4.8867,-4.8867,-4.8867,-4.8867,-4.8867,-4.8867,-4.8867,-4.8867,-4.8867,-4.8867,-4.8867,-4.8867,-4.8867,-4.8867,-4.8867,0.0,0.0,0.0,0.0,0.0,0.0,0.0,0.0,0.0,0.0,0.0,0.0,0.0,-2.2539,-2.2258,-2.1871,-2.1924,-2.2191,-2.2672,-2.2699,-2.2752,-2.2859,-2.2966,-2.3126,-2.3327,-2.3714,-2.5256,-2.8099,-2.659,-2.7525,-3.091,-2.8657,-2.8339,-2.9606,-2.8771,-2.8764,-2.9285,-2.8818,-2.8537,-2.847,-2.8871,-2.9325,-2.974,-2.9753,-2.982,-2.9793,-2.9098,-2.9036,-2.9216,-2.8785,-2.8924,-2.9705,-3.1572,-3.268,-3.3967,-3.7756,-3.9813,-4.1391,-4.2915,-4.3945,-4.4726,-4.5156,-4.5586,-4.6191,-4.7324,-4.7246,-4.709,-4.7676,0.0,0.0,0.0,0.0,0.0,0.0,0.0,0.0,0.0,0.0,0.0,0.0,0.0,0.0,0.0,0.0,0.0,0.0,0.0,-4.8867,-4.8867,-4.8867,-4.8867,-4.8867,-4.8867,-4.8867,-4.8867,-4.8867,-4.8867,-4.8867,-4.8867,-4.8867,-4.8867,-4.8867,-4.8867,-4.8867,-4.8867,-4.8867,-4.8867,-4.8867,-4.8867,-4.8867,-4.8867,-4.8867,-4.8867,-4.8867,-4.8867,-4.8867,0.0,0.0,0.0,0.0,0.0,0.0,0.0,0.0,-2.2859,-2.2859,0.0,0.0,0.0,0.0,-2.2445,-2.2151,-2.2044,-2.2231,-2.2819,-2.2859,-2.2953,-2.3153,-2.3166,-2.3313,-2.3621,-2.3821,-2.5027,-2.7147,-2.6111,-2.7068,-2.9698,-2.8032,-2.7956,-2.93,-2.8798,-2.8818,-2.9165,-2.8871,-2.8631,-2.8497,-2.9098,-2.9566,-2.9953,-3.0247,-3.0301,-3.0167,-2.9766,-2.9245,-2.8711,-2.8511,-2.831,-2.8473,-2.9827,-3.0689,-3.1971,-3.6004,-3.8345,-3.9942,-4.116,-4.2983,-4.4473,-4.4746,-4.5254,-4.5976,-4.7109,-4.7129,-4.7051,0.0,0.0,0.0,0.0,0.0,0.0,0.0,0.0,0.0,0.0,0.0,0.0,0.0,0.0,0.0,0.0,0.0,0.0,0.0,0.0,0.0,-4.8867,-4.8867,-4.8867,-4.8867,-4.8867,-4.8867,-4.8867,-4.8867,-4.8867,-4.8867,-4.8867,-4.8867,-4.8867,-4.8867,-4.8867,-4.8867,-4.8867,-4.8867,-4.8867,-4.8867,-4.8867,-4.8867,-4.8867,-4.8867,-4.8867,-4.8867,-4.8945,-4.9062,0.0,0.0,0.0,0.0,0.0,0.0,-2.2886,0.0,-2.2886,-2.2873,0.0,0.0,0.0,0.0,0.0,-2.2472,-2.2191,-2.2271,-2.2846,-2.2886,-2.3153,-2.3741,-2.3768,-2.3915,-2.4195,-2.4209,-2.5202,-2.736,-2.736,-2.8842,-3.1432,-2.99,-2.9819,-3.1227,-2.945,-2.8604,-2.8631,-2.8911,-2.8698,-2.827,-2.9432,-2.9579,-2.9245,-3.0675,-3.0702,-2.9967,-2.9967,-2.9953,0.0,-2.9272,-2.9446,-2.974,-2.8871,-2.986,-3.1722,-3.4002,-3.6817,-3.8978,0.0,0.0,0.0,-4.4336,-4.498,-4.584,-4.6699,-4.6894,-4.7031,0.0,0.0,0.0,0.0,0.0,0.0,0.0,0.0,0.0,0.0,0.0,0.0,0.0,0.0,0.0,0.0,0.0,0.0,0.0,-4.8867,-4.8867,-4.8867,-4.8867,-4.8867,-4.8867,-4.8867,-4.8867,-4.8867,-4.8867,-4.8867,-4.8867,-4.8867,-4.8867,-4.8867,-4.8867,-4.8867,-4.8867,-4.8867,-4.8867,-4.8867,-4.8867,-4.8867,-4.8867,-4.8867,-4.8867,-4.8867,-4.8867,-4.9141,-4.9453,0.0,0.0,0.0,0.0,0.0,-2.3768,-2.3554,-2.3514,-2.3447,0.0,0.0,0.0,-2.2913,-2.2859,-2.2913,-2.306,-2.3006,-2.3113,-2.35,-2.3514,-2.3594,-2.3768,-2.3768,-2.3915,-2.4195,-2.4209,-2.4634,-2.5345,-2.5345,-2.5945,-2.715,-2.717,-2.7561,-2.8495,-2.8609,-2.8604,-2.8604,-2.8698,-2.8751,-2.8845,-2.9379,-2.9887,-3.0381,-3.0996,-3.1209,0.0,0.0,-3.0915,-3.0488,0.0,-2.9673,-2.9165,-2.8484,-2.871,-2.9774,-3.3512,-3.452,-3.5275,-3.9393,0.0,0.0,0.0,0.0,0.0,-4.5742,0.0,0.0,0.0,0.0,0.0,0.0,0.0,0.0,0.0,0.0,0.0,0.0,0.0,0.0,0.0,0.0,0.0,0.0,0.0,0.0,0.0,-4.8867,-4.8867,-4.8867,-4.8867,-4.8867,-4.8867,-4.8867,-4.8867,-4.8867,-4.8867,-4.8867,-4.8867,-4.8867,-4.8867,-4.8867,-4.8867,-4.8867,-4.8867,-4.8867,-4.8867,-4.8867,-4.8867,-4.8867,-4.8867,-4.8867,-4.8867,-4.8867,-4.8867,-4.8945,-4.9062,0.0,0.0,-2.5077,-2.4489,-2.4382,-2.4289,-2.3995,-2.4062,-2.4022,0.0,0.0,0.0,-2.346,-2.3634,-2.3768,-2.3701,-2.3688,-2.3768,-2.3941,-2.3955,-2.4008,-2.4128,-2.4128,-2.4275,-2.4556,-2.4449,-2.4529,-2.4823,-2.469,-2.4877,-2.5344,-2.5932,-2.652,-2.7108,-2.7883,-2.8364,-2.8604,-2.847,-2.8657,-2.9072,-2.9499,-2.99,-3.0314,-3.0969,-3.1102,0.0,0.0,0.0,-3.0635,-3.0835,-3.0234,0.0,-2.8991,-2.8537,-2.8628,-3.1241,-3.2206,-3.3491,-3.77,-3.9468,-4.0362,-4.25,0.0,0.0,-4.5605,-4.5801,0.0,0.0,0.0,0.0,0.0,0.0,0.0,0.0,0.0,0.0,0.0,0.0,0.0,0.0,0.0,0.0,0.0,0.0,-4.8867,-4.8867,-4.8867,-4.8867,-4.8867,-4.8867,-4.8867,-4.8867,-4.8867,-4.8867,-4.8867,-4.8867,-4.8867,-4.8867,-4.8867,-4.8867,-4.8867,-4.8867,-4.8867,-4.8867,-4.8867,-4.8867,-4.8867,-4.8867,-4.8867,-4.8867,-4.8867,-4.8867,-4.8867,-4.8867,-4.8984,-4.9141,0.0,0.0,-2.5451,-2.4917,-2.4823,-2.4743,-2.4489,-2.4636,-2.4676,0.0,-2.4315,-2.4342,-2.4436,-2.485,-2.493,-2.4436,-2.4342,-2.4302,-2.4302,-2.4275,-2.4369,-2.4623,-2.4676,-2.4796,-2.5024,-2.4796,-2.4796,-2.5037,-2.477,-2.481,-2.5144,-2.5732,-2.6319,-2.6894,-2.7482,-2.8083,-2.8631,-2.8283,-2.8551,-2.9232,-2.9686,-2.9766,0.0,0.0,-3.0755,-3.0207,-3.0996,-3.0942,-3.0608,-3.133,-3.0875,0.0,-2.99,-2.9165,-2.8493,-2.8595,-3.0326,-3.2669,-3.5071,-3.7772,-4.0409,-4.2544,-4.3468,0.0,-4.5723,-4.584,0.0,0.0,0.0,0.0,0.0,0.0,0.0,0.0,0.0,0.0,0.0,0.0,0.0,0.0,0.0,0.0,0.0,-4.875,-4.8789,-4.8789,-4.8828,-4.8867,-4.8867,-4.8867,-4.8867,-4.8867,-4.8867,-4.8867,-4.8867,-4.8867,-4.8867,-4.8867,-4.8867,-4.8867,-4.8867,-4.8867,-4.8867,-4.8867,-4.8867,-4.8867,-4.8867,-4.8867,-4.8867,-4.8867,-4.8867,-4.8867,-4.8867,-4.8867,-4.9101,-4.9414,-2.5745,-2.6026,-2.6186,-2.6066,-2.6052,-2.6026,-2.5972,-2.5812,-2.5598,-2.5291,-2.505,-2.5184,-2.5892,-2.5638,-2.5478,-2.5598,-2.5184,-2.4903,-2.4903,-2.469,-2.4583,-2.4636,-2.4863,-2.4917,-2.473,-2.4903,-2.4903,-2.4716,-2.4663,-2.4903,-2.5438,-2.6026,-2.6613,-2.7201,-2.7789,-2.839,-2.8925,-2.8377,-2.8898,-3.0074,-2.9713,-2.9953,-3.0595,-3.1049,-3.1263,-3.1356,-3.1517,-3.1503,-3.137,-3.1062,-3.0808,-3.0501,-2.9793,-2.9566,-2.9812,-3.1181,-3.0977,-3.1183,-3.4541,-3.6422,-3.7879,-3.9465,-4.1834,0.0,-4.4609,-4.4961,-4.5527,0.0,0.0,0.0,0.0,0.0,0.0,0.0,0.0,0.0,0.0,0.0,0.0,0.0,0.0,0.0,0.0,-4.8144,-4.834,-4.834,-4.8652,-4.8867,-4.8867,-4.8867,-4.8867,-4.8867,-4.8867,-4.8867,-4.8867,-4.8867,-4.8867,-4.8867,-4.8867,-4.8867,-4.8867,-4.8867,-4.8867,-4.8867,-4.8867,-4.8867,-4.8867,-4.8867,-4.8867,-4.8867,-4.8867,-4.8867,-4.8867,-4.8867,-4.8906,-4.9023,-2.5892,-2.6186,-2.6386,-2.6386,-2.6627,-2.6774,-2.6627,-2.6734,-2.6667,-2.6226,-2.6172,-2.6226,-2.6373,-2.6386,-2.6266,-2.5985,-2.5692,-2.5398,-2.5104,-2.4943,-2.4796,-2.4649,-2.4917,-2.5077,-2.5077,-2.5224,-2.5224,-2.5077,-2.493,-2.501,-2.5317,-2.6052,-2.6774,-2.7495,-2.7949,-2.8644,-2.9419,-2.8524,-2.8911,-3.0114,-2.982,0.0,-3.1062,-3.149,-3.1757,-3.1904,-3.2051,-3.2104,-3.2011,-3.1423,-3.1129,0.0,-3.0154,-2.9913,-2.9972,-3.0559,-3.0203,-3.0315,-3.3395,-3.4579,-3.5365,-3.7573,-3.997,0.0,0.0,-4.4128,-4.5195,0.0,0.0,0.0,0.0,0.0,0.0,0.0,0.0,0.0,0.0,0.0,0.0,0.0,0.0,0.0,0.0,-4.8398,-4.8535,-4.8535,-4.873,-4.8867,-4.8867,-4.8867,-4.8867,-4.8867,-4.8867,-4.8867,-4.8867,-4.8867,-4.8867,-4.8867,-4.8867,-4.8867,-4.8867,-4.8867,-4.8867,-4.8867,-4.8867,-4.8867,-4.8867,-4.8867,-4.8867,-4.8867,-4.8867,-4.8867,-4.8867,-4.8867,-4.8867,-4.8887,-2.5972,-2.6226,-2.6413,-2.6466,-2.6907,-2.7201,-2.7014,-2.7402,-2.7522,-2.7054,-2.7255,-2.7295,-2.6934,-2.7268,-2.7268,-2.66,-2.6386,-2.6039,-2.5451,-2.5411,-2.5291,-2.4983,-2.5211,-2.5438,-2.5678,-2.5625,-2.5571,-2.5518,-2.5224,-2.517,-2.5344,-2.6052,-2.6894,-2.7802,-2.8163,-2.8845,-2.9686,-2.8724,-2.8965,-2.9993,0.0,-3.0408,-3.1209,-3.1864,-3.2104,-3.2144,-3.2438,-3.2545,-3.2465,-3.1931,-3.1597,-3.1289,-3.0715,-3.0394,-3.0127,-2.9486,-2.9499,-3.0069,-3.1901,-3.2777,-3.3801,-3.6035,-3.8357,-4.0403,0.0,0.0,0.0,0.0,0.0,0.0,0.0,0.0,0.0,0.0,0.0,0.0,0.0,0.0,0.0,0.0,0.0,0.0,0.0,-4.8613,-4.8672,-4.8848,-4.8789,-4.8769,-4.8848,-4.8867,-4.8867,-4.8867,-4.8867,-4.8867,-4.8867,-4.8867,-4.8867,-4.8867,-4.8867,-4.8867,-4.8867,-4.8867,-4.8867,-4.8867,-4.8867,-4.8867,-4.8867,-4.8867,-4.8867,-4.8867,-4.8867,-4.8867,-4.8867,-4.8867,-4.8867,-4.8867,-2.6226,-2.6373,-2.6466,-2.6734,-2.7041,-2.7348,-2.7562,-2.7655,-2.7669,-2.7602,-2.7856,-2.8217,-2.8684,-2.8564,-2.8524,-2.8671,-2.7963,0.0,-2.6667,-2.6627,-2.6493,-2.6199,-2.6226,-2.6253,-2.6293,-2.6039,-2.5772,-2.5518,-2.5224,-2.5478,-2.6239,-2.6346,-2.7001,-2.8123,-2.8684,-2.9005,-2.9125,-2.8991,-2.9472,-3.0287,-3.002,-3.0287,0.0,-3.1784,-3.2104,-3.2144,-3.2438,-3.2545,-3.2492,0.0,-3.2024,-3.1904,-3.1316,-3.1289,-3.1303,-3.0461,-3.0421,-3.0581,-3.0677,-3.2389,-3.4307,-3.4275,-3.7732,-4.1233,-4.1106,0.0,-4.5137,-4.5762,0.0,0.0,0.0,0.0,0.0,0.0,0.0,0.0,-4.7715,0.0,0.0,0.0,0.0,0.0,0.0,0.0,-4.8047,-4.8808,-4.8496,-4.8457,-4.8848,-4.8867,-4.8867,-4.8867,-4.8867,-4.8867,-4.8867,-4.8867,-4.8867,-4.8867,-4.8867,-4.8867,-4.8867,-4.8867,-4.8867,-4.8867,-4.8867,-4.8867,-4.8867,-4.8867,-4.8867,-4.8867,-4.8867,-4.8867,-4.8867,-4.8867,-4.8867,-4.8867,-2.6266,-2.6386,-2.648,-2.6774,-2.7201,-2.7562,-2.7682,-2.7843,-2.8016,-2.8203,-2.8337,-2.8577,-2.8991,-2.8617,-2.8524,-2.9005,0.0,-2.7776,0.0,0.0,-2.6867,-2.6413,-2.6226,-2.6293,-2.664,-2.636,-2.6146,-2.6026,-2.5732,-2.5772,-2.6146,-2.648,-2.7175,-2.8163,-2.8764,-2.9325,-2.978,-2.9446,-2.9713,0.0,0.0,0.0,0.0,-3.2024,-3.2572,-3.2879,-3.3,-3.3053,-3.3,0.0,-3.2492,0.0,-3.2064,-3.1837,-3.153,-3.0822,-3.0581,-3.0448,-2.998,-3.0889,-3.2098,-3.1805,-3.4472,-3.7516,-3.8778,-4.0988,-4.3178,-4.4853,0.0,0.0,0.0,0.0,0.0,0.0,-4.6406,0.0,0.0,0.0,-4.7441,0.0,0.0,0.0,0.0,0.0,0.0,0.0,0.0,-4.8672,-4.8848,-4.8867,-4.8867,-4.8867,-4.8867,-4.8867,-4.8867,-4.8867,-4.8867,-4.8867,-4.8867,-4.8867,-4.8867,-4.8867,-4.8867,-4.8867,-4.8867,-4.8867,-4.8867,-4.8867,-4.8867,-4.8867,-4.8867,-4.8867,-4.8867,-4.8867,-4.8867,-4.8867,-2.6266,-2.6386,-2.6453,-2.6667,-2.7188,-2.7629,-2.7789,-2.8003,-2.8257,-2.8564,-2.8671,-2.8898,-2.9352,-2.9018,-2.8991,-2.9593,-2.9165,-2.8711,0.0,0.0,-2.7722,-2.7375,-2.676,0.0,-2.7415,-2.6907,-2.6627,-2.6627,-2.6333,-2.6279,-2.644,-2.6787,-2.7415,-2.8297,-2.8898,-2.9513,-3.01,-2.9833,-3.002,-3.0488,-3.0568,-3.1049,-3.1784,-3.2425,-3.2973,-3.3414,-3.3414,-3.3414,-3.3374,-3.308,-3.2839,0.0,-3.2572,-3.2198,-3.169,-3.1183,-3.0822,-3.0501,-3.0074,-3.0274,-3.0581,-3.0501,-3.2407,-3.4683,-3.6368,-3.9128,-4.1841,-4.3841,-4.5184,0.0,0.0,0.0,-4.5918,-4.6094,0.0,-4.6172,0.0,-4.6953,0.0,0.0,0.0,0.0,0.0,0.0,0.0,0.0,0.0,0.0,-4.8848,-4.8867,-4.8867,-4.8867,-4.8867,-4.8867,-4.8867,-4.8867,-4.8867,-4.8867,-4.8867,-4.8867,-4.8867,-4.8867,-4.8867,-4.8867,-4.8867,-4.8867,-4.8867,-4.8867,-4.8867,-4.8867,-4.8867,-4.8867,-4.8867,-4.8867,-4.8867,-4.8867,-2.6266,-2.6386,-2.6386,-2.64,-2.6894,-2.7468,-2.8043,-2.8136,-2.8257,-2.8564,0.0,0.0,0.0,0.0,0.0,0.0,0.0,-3.0461,-2.9887,0.0,-2.9526,0.0,0.0,-2.8056,0.0,-2.7829,-2.7241,-2.7241,-2.6947,-2.7081,-2.7642,-2.7375,-2.7736,-2.8617,-2.9205,-2.9486,-2.9553,-3.01,-3.0501,-3.0808,-3.1089,-3.1891,-3.2919,0.0,-3.3146,-3.3414,-3.3414,0.0,0.0,-3.308,-3.2973,0.0,0.0,0.0,-3.2024,-3.173,-3.1436,-3.1196,-3.1169,-3.1183,-3.1129,-3.0849,-3.2563,-3.4096,-3.3948,-3.8274,-4.2293,-4.2691,-4.4932,-4.6875,-4.6875,-4.6543,-4.6152,-4.5762,-4.6035,0.0,0.0,-4.6328,0.0,0.0,0.0,0.0,0.0,0.0,0.0,0.0,0.0,0.0,-4.8808,-4.8867,-4.8867,-4.8867,-4.8867,-4.8867,-4.8867,-4.8867,-4.8867,-4.8867,-4.8867,-4.8867,-4.8867,-4.8867,-4.8867,-4.8867,-4.8867,-4.8867,-4.8867,-4.8867,-4.8867,-4.8867,-4.8867,-4.8867,-4.8867,-4.8867,-4.8867,-4.8867,-2.6268,-2.6827,-2.6841,-2.6453,-2.6881,-2.7535,-2.8337,-2.8444,0.0,0.0,0.0,0.0,0.0,0.0,-3.0675,0.0,0.0,-3.0715,-3.0515,-3.0047,0.0,0.0,0.0,-2.8323,0.0,-2.8056,-2.7549,-2.7549,-2.7255,-2.7321,-2.7696,-2.7602,-2.7816,-2.8323,-2.8925,-2.9406,-2.9793,-3.0194,-3.0755,-3.1423,0.0,-3.2332,-3.2732,0.0,0.0,-3.3414,-3.3414,-3.3414,0.0,-3.3293,-3.3133,-3.3,-3.3093,-3.2786,-3.2372,-3.2278,-3.2038,0.0,0.0,0.0,-3.1931,-3.1249,-3.1919,-3.2939,-3.3823,-3.5785,-3.7695,-3.9015,-4.0566,-4.1941,-4.307,-4.344,-4.4022,-4.5511,-4.5547,-4.5547,0.0,-4.5879,0.0,0.0,0.0,0.0,0.0,0.0,0.0,0.0,0.0,0.0,0.0,-4.8594,-4.8555,-4.8848,-4.8867,-4.8867,-4.8867,-4.8867,-4.8867,-4.8867,-4.8867,-4.8867,-4.8867,-4.8867,-4.8867,-4.8867,-4.8867,-4.8867,-4.8867,-4.8867,-4.8867,-4.8867,-4.8867,-4.8867,-4.8867,-4.8867,-4.8867,-4.8867,-2.5577,-2.6777,-2.7295,-2.6921,-2.7348,-2.7936,-2.8524,-2.8791,0.0,0.0,-3.0007,0.0,-3.1142,0.0,-3.0942,0.0,-3.1316,-3.1102,-3.1102,-3.0555,0.0,-3.0528,-2.9406,0.0,0.0,0.0,-2.8283,-2.8177,-2.7883,-2.7776,-2.7856,-2.7856,-2.7963,-2.8163,-2.8657,-2.9272,-2.994,-3.0234,-3.0929,-3.1877,0.0,-3.2759,0.0,0.0,-3.3347,-3.3267,0.0,-3.3414,-3.3414,-3.3414,-3.3293,-3.316,-3.336,-3.308,-3.2706,-3.2706,-3.2492,-3.2211,-3.2024,-3.2251,0.0,-3.1704,-3.1824,0.0,-3.32,-3.4402,-3.571,-3.7065,-3.8408,-3.9641,-4.0936,-4.1639,-4.2846,-4.4461,-4.5223,-4.5527,0.0,-4.5683,0.0,0.0,0.0,0.0,0.0,0.0,0.0,0.0,0.0,0.0,0.0,0.0,-4.8418,-4.8848,-4.8711,-4.8691,-4.8867,-4.8867,-4.8867,-4.8867,-4.8867,-4.8867,-4.8867,-4.8867,-4.8867,-4.8867,-4.8867,-4.8867,-4.8867,-4.8867,-4.8867,-4.8867,-4.8867,-4.8867,-4.8867,-4.8867,-4.8867,-4.8867,-2.4303,-2.6247,-2.7802,-2.7776,-2.823,-2.8617,-2.8644,0.0,-2.9619,0.0,-3.0221,-3.0621,-3.1183,-3.1249,-3.1356,-3.1637,-3.1664,0.0,-3.1664,-3.1129,0.0,0.0,-3.0568,-3.0221,-3.0782,0.0,0.0,-2.9058,-2.8751,-2.8457,-2.8163,-2.8163,-2.8163,-2.8177,-2.8484,-2.9112,-2.9953,-3.0247,-3.1049,-3.2171,-3.2759,-3.316,-3.3387,-3.34,-3.3227,-3.3013,-3.3307,-3.3414,-3.3414,-3.3414,-3.3414,-3.3414,-3.3414,-3.3227,-3.3,-3.3,-3.2799,-3.2585,-3.2585,-3.2585,-3.2519,-3.2225,0.0,0.0,0.0,0.0,-3.6223,-3.6505,-3.8228,-3.9805,-4.0289,-4.1367,-4.2407,-4.2964,-4.4895,-4.6133,-4.5762,-4.5683,-4.5527,0.0,0.0,0.0,0.0,0.0,0.0,0.0,0.0,0.0,0.0,0.0,-4.8379,-4.8848,-4.8476,-4.8457,-4.8848,-4.8887,-4.8887,-4.8867,-4.8867,-4.8867,-4.8867,-4.8867,-4.8867,-4.8867,-4.8867,-4.8867,-4.8867,-4.8867,-4.8867,-4.8867,-4.8867,-4.8867,-4.8867,-4.8867,-4.8867,-4.8867,-2.7362,-2.8683,-2.9205,-2.8778,-2.8644,-2.8751,0.0,0.0,0.0,0.0,-3.0822,-3.1142,-3.1517,-3.1557,-3.1583,-3.1664,-3.1664,0.0,0.0,0.0,0.0,-3.165,-3.0955,-3.0635,-3.0795,-3.014,0.0,-2.9366,-2.8858,-2.8564,-2.8484,-2.8484,-2.8484,-2.8497,-2.8804,-2.9419,-3.0247,-3.0327,-3.1156,-3.2478,-3.3066,-3.3213,-3.3106,0.0,-3.3227,-3.3013,-3.3307,-3.3414,-3.3414,-3.3414,-3.3414,-3.3414,-3.3414,-3.336,-3.3293,-3.3293,-3.3253,-3.3187,-3.3187,-3.3187,-3.312,-3.2826,-3.2746,-3.2692,0.0,0.0,0.0,0.0,-3.4283,-3.5226,-3.6701,-3.7351,-3.8586,-4.2083,-4.4461,-4.5918,-4.6113,-4.5879,0.0,-4.5957,0.0,0.0,0.0,0.0,0.0,0.0,0.0,0.0,0.0,0.0,0.0,-4.8828,-4.9082,-4.9082,-4.8867,-4.918,-4.918,-4.8867,-4.8867,-4.8867,-4.8867,-4.8867,-4.8867,-4.8867,-4.8867,-4.8867,-4.8867,-4.8867,-4.8867,-4.8867,-4.8867,-4.8867,-4.8867,-4.8867,-4.8867,-4.8867,-2.7359,-2.8947,-2.9806,-2.9486,-2.9392,0.0,-2.9646,0.0,0.0,-3.0942,-3.1343,0.0,-3.1837,-3.1971,-3.1998,-3.1877,-3.1984,0.0,0.0,0.0,0.0,-3.1851,-3.1543,-3.1303,-3.1183,-3.0728,0.0,-2.9873,-2.9285,-2.8925,-2.8791,-2.8671,-2.8671,-2.8804,-2.8965,-2.9459,-3.0207,-3.0849,-3.1677,-3.2599,-3.3173,-3.332,0.0,-3.3347,-3.3307,-3.3187,-3.336,-3.3414,-3.3414,-3.3414,-3.3414,-3.3414,-3.3414,-3.3414,-3.3414,-3.3414,-3.3414,-3.3414,-3.3414,-3.3414,-3.3374,-3.3213,-3.316,-3.3133,-3.2959,-3.3053,-3.312,0.0,-3.3053,-3.3449,0.0,-3.5368,-3.7335,-4.1728,-4.4197,-4.5762,-4.5996,-4.582,0.0,0.0,-4.6504,0.0,0.0,0.0,0.0,0.0,0.0,0.0,0.0,0.0,0.0,-4.8828,-4.8926,-4.8926,-4.8867,-4.9101,-4.9101,-4.8867,-4.8867,-4.8867,-4.8867,-4.8867,-4.8867,-4.8867,-4.8867,-4.8867,-4.8867,-4.8867,-4.8867,-4.8867,-4.8867,-4.8867,-4.8867,-4.8867,-4.8867,-4.8867,-2.5936,-2.8382,-3.0074,-3.0034,-3.0274,0.0,0.0,-3.0702,0.0,-3.1223,0.0,-3.1998,-3.2038,-3.2278,-3.2332,-3.2064,0.0,-3.2385,-3.2118,-3.2385,-3.2425,-3.2171,-3.2158,-3.2024,-3.173,-3.1436,0.0,0.0,-2.9833,-2.9392,-2.9085,-2.8845,-2.8858,-2.9098,-2.9138,-2.9486,-3.0127,-3.1517,-3.2278,-3.2599,-3.3173,-3.3414,-3.3414,-3.3414,-3.3414,-3.3414,-3.3414,-3.3414,-3.3414,-3.3414,-3.3414,-3.3414,-3.3414,-3.3414,-3.3414,-3.3414,-3.3414,-3.3414,-3.3414,-3.3414,-3.3414,-3.3414,-3.3414,-3.3414,-3.3414,-3.3414,-3.3414,-3.3414,-3.3414,-3.34,0.0,-3.4781,-3.7165,-4.123,-4.379,-4.5435,0.0,0.0,0.0,0.0,0.0,0.0,0.0,0.0,0.0,0.0,0.0,0.0,0.0,0.0,0.0,-4.8828,-4.8555,-4.8535,-4.8848,0.0,-4.8906,-4.8867,-4.8867,-4.8867,-4.8867,-4.8867,-4.8867,-4.8867,-4.8867,-4.8867,-4.8867,-4.8867,-4.8867,-4.8867,-4.8867,-4.8867,-4.8867,-4.8867,-4.8867,-4.8867,-2.6585,-2.9115,-3.0915,-3.0688,-3.0875,-3.1049,-3.1009,-3.0915,-3.0955,-3.1196,-3.1316,0.0,-3.1717,-3.1797,-3.1797,-3.1744,-3.2011,0.0,0.0,0.0,0.0,-3.2465,-3.2465,-3.2332,-3.2038,-3.1744,-3.1303,0.0,-3.0127,-2.9686,-2.9406,-2.9352,-2.9352,-2.9419,-2.9659,-3.0087,-3.0702,-3.169,-3.2278,-3.2599,-3.3173,-3.3414,-3.3414,-3.3414,-3.3414,-3.3414,-3.3414,-3.3414,-3.3414,-3.3414,-3.3414,-3.3414,-3.3414,-3.3414,-3.3414,-3.3414,-3.3414,-3.3414,-3.3414,-3.3414,-3.3414,-3.3414,-3.3414,-3.3414,-3.3414,-3.3414,-3.3414,-3.3414,-3.3414,-3.3334,-3.3093,0.0,0.0,-3.959,-4.1652,0.0,0.0,0.0,0.0,0.0,0.0,-4.7129,0.0,0.0,0.0,0.0,0.0,0.0,0.0,0.0,0.0,0.0,-4.9141,0.0,0.0,0.0,-4.9219,-4.8867,-4.8867,-4.8867,-4.8867,-4.8867,-4.8867,-4.8867,-4.8867,-4.8867,-4.8867,-4.8867,-4.8867,-4.8867,-4.8867,-4.8867,-4.8867,-4.8867,-4.8867,-4.8867,-2.6958,-2.9179,-3.0955,-3.0822,0.0,0.0,0.0,-3.133,0.0,-3.1436,-3.1717,-3.1904,-3.1891,-3.2024,-3.2064,-3.1904,-3.2305,-3.2492,-3.2345,-3.2746,-3.2933,-3.2772,-3.2772,0.0,-3.2345,-3.2038,-3.161,-3.1022,-3.0434,-2.9993,-2.97,-2.9553,-2.9566,-2.9726,-3.002,-3.0381,-3.0849,-3.173,0.0,-3.2599,-3.3173,-3.3414,-3.3414,-3.3414,-3.3414,-3.3414,-3.3414,-3.3414,-3.3414,-3.3414,-3.3414,-3.3414,-3.3414,-3.3414,-3.3414,-3.3414,-3.3414,-3.3414,-3.3414,-3.3414,-3.3414,-3.3414,-3.3414,-3.3414,-3.3414,-3.3414,-3.3414,-3.3414,-3.3547,-3.3521,-3.3066,-3.4824,0.0,0.0,0.0,0.0,0.0,0.0,-4.547,0.0,0.0,0.0,0.0,0.0,0.0,0.0,-4.709,0.0,0.0,0.0,-4.7969,0.0,0.0,0.0,0.0,0.0,0.0,-4.8867,-4.9101,-4.9082,-4.8867,-4.9101,-4.9082,-4.8867,-4.8867,-4.8867,-4.8867,-4.8867,-4.8867,-4.8867,-4.8867,-4.8867,-4.8867,-4.8867,-4.8867,-4.8867,-2.625,-2.7968,-2.9343,-2.9343,-3.029,0.0,-3.106,-3.1455,-3.1837,-3.177,-3.2051,-3.2198,-3.2024,-3.2225,-3.2265,-3.2024,-3.2492,-3.2719,-3.2559,-3.3026,-3.324,-3.308,-3.3066,-3.2933,-3.2639,-3.2412,-3.1971,0.0,0.0,-3.0421,-3.0007,-2.978,-2.982,-3.0114,-3.0341,-3.0648,-3.1036,0.0,-3.2278,-3.2599,-3.3173,-3.3414,-3.3414,-3.3414,-3.3414,-3.3414,-3.3414,-3.3414,-3.34,-3.3334,-3.336,-3.34,-3.3334,-3.336,-3.34,-3.3334,-3.336,-3.3414,-3.3414,-3.3414,-3.3414,-3.3414,-3.3414,-3.3414,-3.3414,-3.3414,-3.3414,-3.3414,-3.3614,-3.3627,-3.308,-3.4367,0.0,0.0,0.0,0.0,0.0,0.0,-4.352,-4.5694,-4.4416,0.0,-4.5961,0.0,0.0,-4.6074,-4.6933,-4.748,-4.7578,0.0,0.0,0.0,0.0,-4.873,-4.873,0.0,-4.8867,-4.8867,-4.9219,-4.9258,-4.9004,-4.9258,-4.9238,-4.9004,-4.8906,-4.8867,-4.8867,-4.8867,-4.8867,-4.8867,-4.8867,-4.8867,-4.8867,-4.8867,-4.8867,-4.8867,-2.4248,-2.4566,0.0,0.0,0.0,0.0,0.0,-3.0853,-3.2372,-3.2091,-3.165,-3.1436,-3.1677,-3.173,-3.1744,-3.1717,-3.1998,-3.2291,-3.2532,-3.2839,-3.312,-3.336,-3.3374,-3.324,-3.2946,-3.2906,-3.2478,0.0,0.0,-3.1129,-3.0314,-3.0287,-3.0434,-3.0715,-3.0742,-3.1062,0.0,-3.1957,-3.2278,-3.2599,-3.3173,-3.3414,-3.3414,-3.3414,-3.3414,-3.3414,-3.3414,-3.3414,-3.3374,-3.3106,-3.32,-3.336,-3.3106,-3.32,-3.336,-3.3093,-3.32,-3.3414,-3.3414,-3.3414,-3.3414,-3.3414,-3.3414,-3.3414,-3.3414,-3.3414,-3.3414,-3.3414,-3.3427,-3.336,-3.304,-3.3359,-3.4308,0.0,0.0,0.0,0.0,0.0,-4.0057,-4.0594,-4.1874,-4.3,0.0,-4.4618,0.0,-4.7285,-4.7148,-4.7168,0.0,0.0,0.0,-4.8262,0.0,-4.8262,-4.8262,-4.8672,-4.8867,-4.8867,-4.8906,-4.9101,-4.9453,-4.9082,-4.9121,-4.9433,-4.9043,-4.8867,-4.8867,-4.8867,-4.8867,-4.8867,-4.8867,-4.8867,-4.8867,-4.8867,-4.8867,-4.8906,0.0,0.0,0.0,0.0,0.0,0.0,0.0,-3.0847,-3.2505,-3.2385,-3.2011,-3.173,-3.1677,-3.1664,-3.1744,-3.1917,-3.2038,-3.2305,-3.2772,-3.2919,-3.3106,-3.34,-3.3414,-3.336,-3.324,-3.3066,-3.2719,0.0,0.0,0.0,-3.0875,-3.0702,-3.0675,-3.0795,-3.0969,-3.1289,-3.1704,-3.2171,-3.2532,-3.2839,-3.3253,-3.3414,-3.3414,-3.3414,-3.3414,-3.3414,-3.3414,-3.3414,-3.3374,-3.308,-3.3053,-3.3106,-3.2812,-3.2919,-3.3133,-3.3013,-3.3187,-3.3414,-3.3414,-3.3414,-3.3414,-3.3414,-3.3414,-3.3414,-3.3414,-3.3414,-3.3414,-3.3414,-3.3414,-3.3374,-3.3253,-3.3334,-3.3719,-3.4436,0.0,0.0,0.0,-3.838,-3.883,-4.0503,-3.9877,-4.0757,-4.4106,0.0,0.0,0.0,-4.6465,0.0,0.0,0.0,0.0,-4.7832,0.0,-4.8476,-4.8203,-4.8633,-4.8867,-4.8867,-4.9121,-4.9219,-4.9121,-4.9219,-4.9219,-4.9121,-4.8945,-4.8867,-4.8867,-4.8867,-4.8867,-4.8867,-4.8867,-4.8867,-4.8867,-4.8867,-4.8867,-4.8926,-2.0351,0.0,-2.3231,0.0,-2.5766,-2.8129,-2.8824,-3.0429,-3.1829,-3.2559,-3.2291,-3.1984,-3.1704,-3.1664,-3.1784,-3.2078,-3.2104,-3.2318,-3.2826,-3.2933,-3.3066,-3.328,-3.336,0.0,-3.328,-3.308,-3.2839,-3.2545,-3.2038,0.0,-3.1356,-3.1062,-3.0969,-3.1062,-3.1263,-3.157,-3.1957,-3.2372,-3.2706,-3.3,-3.3293,-3.3414,-3.3414,-3.3414,-3.3414,-3.3414,-3.3414,-3.3414,-3.336,-3.2973,-3.2906,-3.2919,-3.2532,-3.2679,-3.2959,-3.2879,-3.312,-3.3414,-3.3414,-3.3414,-3.3414,-3.3414,-3.3414,-3.3414,-3.3414,-3.3414,-3.3414,-3.3414,-3.3414,-3.3414,-3.3414,-3.3414,-3.3414,-3.3414,0.0,0.0,0.0,-3.6042,-3.6951,-3.945,-3.8509,-3.9419,-4.4535,-4.3905,0.0,0.0,0.0,0.0,0.0,0.0,0.0,0.0,0.0,0.0,0.0,-4.8457,-4.8672,-4.8672,-4.8984,-4.9101,-4.9062,-4.9375,-4.9277,-4.8867,-4.8867,-4.8867,-4.8867,-4.8867,-4.8867,-4.8867,-4.8867,-4.8867,-4.8867,-4.8867,-4.8867,-4.8945,-1.9979,-2.0689,-2.102,-2.102,-2.3257,-2.5966,-2.8866,-2.9084,-2.9833,-3.2181,-3.2291,-3.1984,-3.1704,-3.1664,-3.1784,-3.2078,-3.2104,-3.2225,-3.2532,-3.2826,-3.2973,0.0,0.0,-3.328,-3.2986,-3.2973,-3.2839,-3.2545,0.0,0.0,-3.1664,-3.1356,-3.1383,-3.1664,-3.1664,-3.1984,-3.2532,-3.2545,-3.2706,-3.3,-3.3293,-3.3414,-3.3414,-3.3414,-3.3414,-3.3414,-3.3414,-3.3414,-3.332,-3.2746,-3.2746,-3.2879,-3.2291,-3.2505,-3.2919,-3.2639,-3.2959,-3.3414,-3.3414,-3.3414,-3.3414,-3.3414,-3.3414,-3.3414,-3.3414,-3.3414,-3.3414,-3.3414,-3.3414,-3.3414,-3.3414,-3.3414,-3.3414,-3.3414,0.0,0.0,-3.3414,-3.316,-3.3945,-3.6415,-3.7506,-3.9906,-4.4598,-4.5053,0.0,0.0,0.0,0.0,0.0,0.0,0.0,-4.8183,-4.8203,0.0,-4.7598,-4.8008,-4.8223,-4.8223,-4.8223,-4.8672,-4.9512,-4.9531,-4.9277,-4.8867,-4.8867,-4.8867,-4.8867,-4.8867,-4.8867,-4.8867,-4.8867,-4.8867,-4.8867,-4.8867,-4.8867,-4.8984,-1.7869,-1.8106,-1.8142,-1.8142,-2.0604,-2.3287,-2.6024,-2.7716,-2.9627,-3.2155,-3.2118,-3.177,-3.1677,-3.1664,-3.1784,0.0,-3.1917,-3.2024,0.0,-3.2438,-3.2559,-3.2959,-3.2879,-3.2866,-3.2973,-3.2973,-3.2933,-3.2839,0.0,0.0,0.0,-3.1864,-3.177,-3.1677,-3.1877,-3.2185,-3.2559,-3.2759,-3.3013,-3.328,-3.3374,-3.3414,-3.3414,-3.3414,-3.3414,-3.3414,-3.3414,-3.3414,-3.332,-3.2746,-3.2732,-3.2879,-3.2291,-3.2372,-3.2666,-3.2572,-3.2812,-3.312,-3.312,-3.3253,-3.3414,-3.3414,-3.3414,-3.3414,-3.3414,-3.3414,-3.3414,-3.3414,-3.3414,-3.3414,-3.3414,-3.3587,-3.3668,-3.3454,-3.3761,0.0,-3.3467,-3.3521,-3.3909,-3.4262,-3.6177,-3.8893,0.0,-4.3605,0.0,0.0,0.0,0.0,0.0,0.0,0.0,0.0,-4.834,0.0,-4.8008,-4.8144,-4.8359,-4.8652,-4.834,-4.8516,-4.9062,-4.9062,-4.8984,-4.8867,-4.8867,-4.8867,-4.8867,-4.8867,-4.8867,-4.8867,-4.8867,-4.9043,-4.9316,-4.9316,-4.9512,-4.9844,-1.6978,-1.7811,-1.8634,-1.8634,-1.9871,-2.2311,-2.6113,-2.6857,-2.8404,-3.201,-3.2064,-3.1797,-3.1677,-3.1664,0.0,-3.2078,-3.1931,-3.1984,-3.2358,-3.2305,-3.2385,-3.2639,-3.2585,-3.2572,-3.2652,-3.2652,0.0,-3.2652,-3.2759,-3.2572,-3.2104,-3.2211,-3.2171,-3.2011,-3.2185,-3.2438,-3.2719,-3.2906,-3.3146,-3.3414,-3.3414,-3.3414,-3.3414,-3.3414,-3.3414,-3.3414,-3.3414,-3.3414,-3.332,-3.2746,-3.2812,-3.304,-3.2452,-3.2465,-3.2706,-3.2706,-3.2919,-3.3146,-3.3146,-3.328,-3.3414,-3.3414,-3.3414,-3.3414,-3.3414,-3.3414,-3.3414,-3.3414,-3.3414,-3.3414,-3.3414,-3.3574,-3.3681,-3.3601,-3.3814,-3.3881,-3.3627,-3.3654,-3.399,-3.4433,-3.5738,0.0,0.0,-4.3174,-4.4891,0.0,0.0,0.0,0.0,0.0,0.0,-4.8027,-4.8418,0.0,-4.8203,-4.8047,-4.8183,-4.8613,-4.8672,-4.875,-4.8867,-4.9023,-4.9023,-4.8867,-4.8867,-4.8867,-4.8867,-4.8867,-4.8867,-4.8867,-4.8867,-4.9023,-4.9297,-4.9473,-4.9707,-5.0019,-1.6978,-1.9044,0.0,0.0,-2.0903,0.0,-2.7739,-2.6465,-2.6493,-3.1386,-3.2078,-3.1971,-3.173,-3.1704,-3.1824,-3.2104,0.0,0.0,0.0,-3.2358,-3.2398,-3.2144,-3.2358,-3.2372,-3.2104,-3.2104,-3.2118,-3.2158,-3.2465,-3.2452,-3.2171,-3.2452,-3.2559,-3.2545,-3.2572,-3.2732,-3.2973,-3.3,-3.316,-3.3414,-3.3414,-3.3414,-3.3414,-3.3414,-3.3414,-3.3414,-3.3414,-3.34,-3.3293,-3.2732,-3.2906,-3.3253,-3.2719,-3.2746,-3.2986,-3.3,-3.3187,-3.3387,-3.34,-3.3414,-3.3414,-3.3414,-3.3414,-3.3414,-3.3414,-3.3414,-3.3414,-3.3414,-3.3414,-3.3414,-3.3414,-3.3414,-3.3507,-3.3801,-3.3627,-3.3534,-3.3814,-3.3614,-3.4104,-3.607,0.0,0.0,0.0,-4.3323,-4.4873,0.0,0.0,0.0,0.0,0.0,-4.6699,-4.875,-4.8418,-4.8223,-4.8262,-4.7812,-4.7773,-4.8164,-4.9062,-4.9277,-4.8926,-4.9375,-4.9336,-4.8906,-4.8906,-4.8887,-4.8867,-4.8867,-4.8867,-4.8867,-4.8867,-4.8867,-4.8945,-4.9375,-4.957,-4.9726,0.0,0.0,-1.8013,-1.8013,-1.8013,-1.9807,-2.4901,-2.492,-2.6309,-3.136,-3.1904,-3.1837,-3.1984,-3.1998,-3.2118,-3.2412,-3.2238,-3.2104,-3.2104,-3.2171,-3.2278,-3.2438,-3.2078,-3.1944,-3.2104,-3.2104,-3.2318,-3.2772,-3.3066,-3.3053,-3.2772,-3.2839,-3.2759,-3.2559,-3.2772,-3.2919,-3.2986,-3.3213,-3.3347,-3.3414,-3.3414,-3.3414,-3.3414,-3.3414,-3.3414,-3.3414,-3.3414,-3.3267,-3.3026,-3.2666,-3.2639,-3.2732,-3.2585,-3.2746,-3.3026,-3.324,-3.32,-3.3133,-3.3347,-3.3414,-3.3414,-3.3414,-3.3414,-3.3414,-3.3414,-3.3414,-3.3414,-3.3414,-3.3414,-3.3414,-3.3414,-3.3414,-3.344,-3.3507,-3.3668,-3.3721,-3.3547,-3.3668,-3.3775,-3.3803,-3.5738,-3.7251,-3.84,-4.1902,-4.4303,0.0,0.0,0.0,0.0,-4.6914,-4.7168,-4.832,-4.8262,-4.8359,-4.8691,-4.7949,-4.7637,-4.7734,-4.8613,-4.9141,-4.9375,-4.9824,-4.9785,-4.9375,-4.9375,-4.918,-4.8867,-4.8867,-4.8867,-4.8867,-4.8867,-4.9062,-4.9375,-4.9492,-4.9941,-5.0527,-1.6978,-1.6978,-1.6978,-1.6978,-1.6924,-1.8255,-2.2129,-2.3527,-2.5687,-2.9586,-3.0981,-3.1784,-3.2064,-3.2104,-3.2225,-3.2519,-3.2398,-3.2305,-3.2305,-3.2305,-3.2318,-3.2345,-3.2038,-3.1877,-3.1904,-3.1904,-3.2131,-3.2572,-3.2866,-3.3,-3.2986,-3.312,-3.3093,-3.2946,-3.3106,-3.3173,-3.3187,-3.3347,-3.3414,-3.3414,-3.3414,-3.3414,-3.3414,-3.3414,-3.3414,-3.3414,-3.3414,-3.3307,-3.3106,-3.2692,-3.2639,-3.2719,-3.2585,-3.2746,-3.3066,-3.3494,-3.3521,-3.3454,-3.3748,-3.3828,-3.3788,-3.3668,-3.3627,-3.3587,-3.344,-3.3414,-3.3414,-3.3414,-3.3414,-3.3414,-3.3414,-3.3414,-3.3414,-3.3414,-3.344,-3.3414,-3.324,-3.4207,-3.4928,-3.4731,-3.6056,-3.7786,-4.004,-4.0801,-4.2158,-4.5349,-4.5656,0.0,-4.6775,-4.7109,-4.7519,-4.8183,-4.8203,-4.8418,-4.8848,-4.8398,-4.8164,-4.8164,-4.9043,-4.959,-4.9844,-5.0273,-5.0234,-4.9824,-4.9824,-4.9687,-4.9453,-4.9238,-4.916,-4.9141,-4.8945,-4.9004,-4.9277,-4.9668,-5.0,-5.0273,-1.6951,-1.6944,-1.6937,-1.6917,-1.6802,-1.7476,-1.993,-2.2547,-2.4918,-2.7418,-3.014,-3.1851,-3.2131,-3.2211,-3.2358,-3.2652,-3.2679,-3.2652,-3.2612,-3.2612,-3.2505,-3.2251,-3.2144,-3.1984,-3.1744,-3.173,-3.1877,-3.2171,-3.2425,-3.2719,-3.3053,-3.3253,-3.3374,-3.3414,-3.3414,-3.3414,-3.3414,-3.3414,-3.3414,-3.3414,-3.3414,-3.3414,-3.3414,-3.3414,-3.3414,-3.3414,-3.3414,-3.3387,-3.3267,-3.2732,-3.2679,-3.2799,-3.2559,-3.2679,-3.304,-3.3641,-3.3881,-3.4002,-3.4255,-3.4322,-3.4255,-3.3961,-3.3881,-3.3801,-3.348,-3.3414,-3.3414,-3.3414,-3.3414,-3.3414,-3.3414,-3.3414,-3.34,-3.336,-3.3173,-3.3026,-3.2986,-3.4506,-3.5971,-3.6206,-3.603,-3.767,-4.2859,-3.9658,-4.0116,-4.6667,-4.5759,-4.561,-4.697,-4.7539,-4.791,-4.8203,-4.8203,-4.8379,-4.875,-4.875,-4.875,-4.8769,-4.959,-5.0039,-5.0195,-5.0605,-5.0605,-5.0273,-5.0273,-5.0234,-5.0156,-4.9785,-4.9629,-4.959,-4.9141,-4.8965,-4.9043,-4.9726,-4.9785,-4.9629,-1.6809,-1.6788,-1.6748,-1.6612,-1.6571,-1.7312,-1.9933,-2.2454,-2.4918,-2.7418,-3.0318,-3.2144,-3.2452,-3.2692,-3.2959,-3.3253,-3.328,-3.3173,-3.2933,-3.2906,-3.2893,-3.2839,-3.2372,-3.2078,-3.2038,-3.2038,-3.2185,-3.2478,-3.2519,-3.2826,-3.3334,-3.3146,-3.3173,-3.3414,-3.3414,-3.3414,-3.3414,-3.3414,-3.3414,-3.3414,-3.3414,-3.3414,-3.3414,-3.3414,-3.3414,-3.3414,-3.3414,-3.3253,-3.2986,-3.2652,-3.2412,-3.2225,-3.2185,-3.2372,-3.2732,-3.332,-3.3855,-3.4269,-3.4309,-3.4322,-3.4255,-3.3961,-3.3881,-3.3801,-3.348,-3.3414,-3.3414,-3.3414,-3.3414,-3.3414,-3.3414,-3.3414,-3.3334,-3.3093,-3.3213,-3.3253,-3.3013,-3.3544,-3.3783,-3.3579,-3.3728,-3.4928,-3.777,-3.9276,-4.1453,-4.5161,-4.6833,-4.7761,-4.8008,-4.8418,-4.8516,-4.8223,-4.8203,-4.8242,-4.8301,-4.8301,-4.8301,-4.832,-4.8828,-4.9453,-5.0195,-5.0605,-5.0781,-5.0703,-5.0703,-5.0508,-5.0176,-5.0098,-5.0078,-5.0039,-4.959,-4.9414,-4.9394,-4.916,-4.9258,-4.9551,-1.6781,-1.6748,-1.67,-1.6544,-1.6456,-1.6779,-1.7903,-2.165,-2.4567,-2.5831,-2.9578,-3.2452,-3.2746,-3.2906,-3.316,-3.3627,-3.3507,-3.3427,-3.3467,-3.3307,-3.3146,-3.2986,-3.2572,-3.2198,-3.1877,-3.1864,-3.2011,-3.2305,-3.2465,-3.2759,-3.3173,-3.32,-3.328,-3.3414,-3.3414,-3.3414,-3.3414,-3.3414,-3.3414,-3.3414,-3.3414,-3.3414,-3.3414,-3.3414,-3.3414,-3.3414,-3.3414,-3.332,-3.3146,-3.2692,-3.2452,-3.2318,-3.2158,-3.2305,-3.2625,-3.3053,-3.3828,-3.4589,-3.475,-3.479,-3.4723,-3.4429,-3.4242,-3.4042,-3.3734,-3.3534,-3.3414,-3.3414,-3.3414,-3.3414,-3.3414,-3.3414,-3.3374,-3.324,-3.3187,-3.3133,-3.3,-3.41,-3.5052,-3.508,-3.6353,-3.8373,-4.1066,-4.1083,-4.2399,-4.6392,-4.6408,-4.6587,-4.7871,-4.8281,-4.8418,-4.8223,-4.8437,-4.8555,-4.8555,-4.8555,-4.8672,-4.8926,-4.9121,-4.9668,-5.0527,-5.0723,-5.0937,-5.1133,-5.1133,-5.1035,-5.084,-5.0605,-5.0391,-5.0137,-4.9707,-4.9375,-4.918,-4.9199,-4.9199,-4.9199,-1.668,-1.6646,-1.6612,-1.649,-1.6381,-1.6522,-1.7149,-2.1315,-2.468,-2.5272,-2.9665,-3.2732,-3.2959,-3.304,-3.3293,-3.3841,-3.3587,-3.3547,-3.3868,-3.3587,-3.3307,-3.3093,-3.2732,-3.2305,-3.1784,-3.1704,-3.1851,-3.2211,-3.2372,-3.2666,-3.308,-3.324,-3.3347,-3.3414,-3.3414,-3.3414,-3.3414,-3.3414,-3.3414,-3.3414,-3.3414,-3.3414,-3.3414,-3.3414,-3.3414,-3.3414,-3.3414,-3.3414,-3.3334,-3.2826,-3.2599,-3.2492,-3.2198,-3.2251,-3.2505,-3.2786,-3.3681,-3.4629,-3.491,-3.5044,-3.503,-3.4736,-3.4496,-3.4242,-3.3948,-3.3641,-3.3414,-3.3414,-3.3414,-3.3414,-3.3414,-3.3414,-3.3387,-3.332,-3.3187,-3.3053,-3.2986,-3.4562,-3.5672,-3.6114,-3.8249,-4.0825,-4.3797,-4.2863,-4.3898,-4.7993,-4.663,-4.613,-4.7891,-4.8183,-4.8359,-4.8359,-4.8672,-4.8867,-4.8867,-4.8867,-4.9023,-4.9375,-4.9375,-4.9766,-5.0508,-5.0508,-5.0801,-5.1289,-5.1289,-5.1348,-5.1406,-5.1094,-5.0703,-5.0273,-4.9844,-4.9414,-4.9043,-4.9277,-4.916,-4.8906,-1.6368,-1.6341,-1.6341,-1.6327,-1.632,-1.7149,-1.9889,-2.2716,-2.5514,-2.8113,-3.1145,-3.2959,-3.2973,-3.3213,-3.3521,-3.3855,-3.3587,-3.3547,-3.3868,-3.3587,-3.34,-3.3374,-3.2839,-3.2398,-3.2078,-3.181,-3.1944,-3.2519,-3.2251,-3.2559,-3.3374,-3.3133,-3.316,-3.3414,-3.3414,-3.3414,-3.3414,-3.3414,-3.3414,-3.3414,-3.3414,-3.3414,-3.3414,-3.3414,-3.3414,-3.3414,-3.3414,-3.3414,-3.336,-3.3053,-3.2772,-3.2492,-3.2198,-3.2118,-3.2198,-3.2492,-3.3227,-3.4015,-3.4309,-3.4589,-3.4723,-3.4429,-3.4336,-3.4242,-3.3948,-3.3641,-3.3414,-3.3414,-3.3414,-3.3414,-3.3414,-3.3414,-3.332,-3.3053,-3.3213,-3.328,-3.3013,-3.3385,-3.3547,-3.356,-3.5888,-3.8605,-4.1139,-4.3452,-4.5943,-4.8624,-4.8624,-4.8604,-4.8769,-4.8789,-4.8808,-4.8808,-4.8848,-4.8867,-4.8867,-4.8867,-4.8867,-4.8906,-4.8906,-4.916,-4.9629,-4.9629,-5.0078,-5.0859,-5.0859,-5.1074,-5.1426,-5.1406,-5.1133,-5.0723,-5.0293,-4.9863,-4.9433,-4.9043,-4.8887,-4.8867,-1.6354,-1.6307,-1.6279,-1.6185,-1.6246,-1.6724,-1.7776,-2.1765,-2.5152,-2.6358,-3.0415,-3.324,-3.324,-3.3347,-3.3454,-3.3574,-3.348,-3.3467,-3.3587,-3.348,-3.3334,-3.3146,-3.2933,-3.2585,-3.2118,-3.1998,-3.1957,-3.1998,-3.2251,-3.2545,-3.2879,-3.3133,-3.3307,-3.3414,-3.3414,-3.3414,-3.3414,-3.3414,-3.3414,-3.3414,-3.3414,-3.3414,-3.3414,-3.3414,-3.3414,-3.3414,-3.3414,-3.3414,-3.3374,-3.308,-3.2786,-3.2492,-3.2198,-3.2225,-3.2465,-3.2946,-3.3467,-3.3868,-3.3774,-3.4255,-3.4736,-3.4629,-3.4456,-3.4242,-3.3948,-3.3641,-3.3414,-3.3414,-3.3414,-3.3414,-3.3414,-3.3414,-3.3374,-3.3267,-3.3334,-3.3374,-3.3267,-3.3347,-3.3414,-3.3414,-3.5734,-3.8246,-4.0963,-4.3452,-4.613,-4.8663,-4.8867,-4.8867,-4.8867,-4.8867,-4.8867,-4.8867,-4.8867,-4.8867,-4.8867,-4.8867,-4.8867,-4.8867,-4.8867,-4.9101,-4.9531,-4.9531,-4.9863,-5.043,-5.0683,-5.0898,-5.1055,-5.1328,-5.1035,-5.0391,-5.0234,-4.9746,-4.9101,-4.8926,-4.8867,-4.8867,-1.6286,-1.6279,-1.6293,-1.6232,-1.6347,-1.6666,-1.772,-2.1962,-2.5389,-2.62,-3.0423,-3.3414,-3.3414,-3.3414,-3.3414,-3.3414,-3.3334,-3.328,-3.328,-3.328,-3.3227,-3.312,-3.3026,-3.2786,-3.2385,-3.2198,-3.2051,-3.1944,-3.2345,-3.2599,-3.2692,-3.3187,-3.3414,-3.3414,-3.3414,-3.3414,-3.3414,-3.3414,-3.3414,-3.3414,-3.3414,-3.3414,-3.3414,-3.3414,-3.3414,-3.3414,-3.3414,-3.3414,-3.3387,-3.3187,-3.2919,-3.2652,-3.2438,-3.2519,-3.2759,-3.316,-3.3494,-3.3734,-3.3708,-3.4148,-3.4603,-3.4509,-3.4336,-3.4135,-3.3935,-3.3641,-3.3414,-3.3414,-3.3414,-3.3414,-3.3414,-3.3414,-3.3414,-3.3414,-3.3414,-3.3414,-3.3414,-3.3414,-3.3414,-3.3414,-3.6312,-3.9221,-4.0963,-4.4229,-4.6915,-4.8848,-4.8867,-4.8867,-4.8867,-4.8867,-4.8867,-4.8867,-4.8867,-4.8867,-4.8867,-4.8867,-4.8867,-4.8867,-4.8867,-4.9023,-4.9316,-4.9316,-4.9629,-5.0195,-5.0488,-5.0762,-5.1016,-5.1172,-5.082,-5.0176,-5.0039,-4.9512,-4.8867,-4.8867,-4.8867,-4.8867,-1.611,-1.6205,-1.6354,-1.6497,-1.6646,-1.7618,-2.0662,-2.3362,-2.624,-2.8913,-3.1768,-3.3414,-3.3414,-3.3414,-3.3414,-3.34,-3.3146,-3.2973,-3.2973,-3.2973,-3.3106,-3.34,-3.3133,-3.2986,-3.2973,-3.2412,-3.2251,-3.2545,-3.2545,-3.2692,-3.2986,-3.328,-3.3414,-3.3414,-3.3414,-3.3414,-3.3414,-3.3414,-3.3414,-3.3414,-3.3414,-3.3414,-3.3414,-3.3414,-3.3414,-3.3414,-3.3414,-3.3414,-3.3414,-3.3414,-3.3213,-3.2973,-3.2973,-3.2973,-3.2973,-3.2973,-3.3187,-3.3547,-3.4148,-3.4322,-3.4255,-3.3961,-3.3895,-3.3895,-3.3881,-3.3641,-3.3414,-3.3414,-3.3414,-3.3414,-3.3414,-3.3414,-3.3414,-3.3414,-3.3414,-3.3414,-3.3414,-3.3414,-3.3414,-3.3414,-3.787,-4.1156,-4.1139,-4.5773,-4.8848,-4.8867,-4.8867,-4.8867,-4.8867,-4.8867,-4.8867,-4.8867,-4.8867,-4.8867,-4.8867,-4.8867,-4.8867,-4.8867,-4.8867,-4.8867,-4.8867,-4.8867,-4.9336,-5.0176,-5.0176,-5.0644,-5.1387,-5.0976,-5.0547,-5.0137,-4.9707,-4.9258,-4.8867,-4.8867,-4.8867,-4.8867,-1.611,-1.6205,-1.6327,-1.6368,-1.6585,-1.6968,-1.7833,-2.2042,-2.542,-2.624,-3.0533,-3.3414,-3.3414,-3.3227,-3.3026,-3.2826,-3.2732,-3.2759,-3.2959,-3.2973,-3.3106,-3.34,-3.3334,-3.3187,-3.2986,-3.2812,-3.2666,-3.2545,-3.2746,-3.2893,-3.2986,-3.328,-3.3414,-3.3414,-3.3414,-3.3414,-3.3414,-3.3414,-3.3414,-3.3414,-3.3414,-3.3414,-3.3414,-3.3414,-3.3414,-3.3414,-3.3414,-3.3414,-3.3414,-3.3414,-3.3213,-3.2946,-3.2746,-3.2679,-3.2719,-3.2919,-3.3347,-3.3788,-3.3961,-3.4162,-3.4295,-3.4215,-3.4189,-3.4082,-3.3654,-3.348,-3.3414,-3.3414,-3.3414,-3.3414,-3.3414,-3.3414,-3.3414,-3.3414,-3.3414,-3.3414,-3.3414,-3.3414,-3.3414,-3.3414,-3.6312,-3.9221,-4.0963,-4.4229,-4.6915,-4.8848,-4.8867,-4.8867,-4.8867,-4.8867,-4.8867,-4.8867,-4.8867,-4.8867,-4.8867,-4.8867,-4.8867,-4.8867,-4.8867,-4.8867,-4.8867,-4.918,-4.9297,-4.9297,-5.0215,-5.041,-5.0137,-5.0605,-5.0371,-4.9707,-4.957,-4.9258,-4.8867,-4.8867,-4.8867,-4.8867,-1.6198,-1.6293,-1.6395,-1.6395,-1.6639,-1.6822,-1.6761,-2.1595,-2.5215,-2.5215,-2.9927,-3.3414,-3.3414,-3.3253,-3.2986,-3.2585,-3.2332,-3.2318,-3.2612,-3.2625,-3.2812,-3.3227,-3.3133,-3.3093,-3.3146,-3.304,-3.2893,-3.2719,-3.2893,-3.2973,-3.2986,-3.328,-3.3414,-3.3414,-3.3414,-3.3414,-3.3414,-3.3414,-3.3414,-3.3414,-3.3414,-3.3414,-3.3414,-3.3414,-3.3414,-3.3414,-3.3414,-3.3414,-3.3414,-3.3414,-3.3293,-3.3093,-3.2812,-3.2719,-3.2746,-3.2933,-3.332,-3.3748,-3.3988,-3.4189,-3.4322,-3.4322,-3.4135,-3.3868,-3.3494,-3.3414,-3.3414,-3.3414,-3.3414,-3.3414,-3.3414,-3.3414,-3.3414,-3.3414,-3.3414,-3.3414,-3.3414,-3.3414,-3.3414,-3.3414,-3.6706,-3.9415,-4.0963,-4.4418,-4.712,-4.8848,-4.8867,-4.8867,-4.8867,-4.8867,-4.8867,-4.8867,-4.8867,-4.8867,-4.8867,-4.8867,-4.8867,-4.8867,-4.8867,-4.8867,-4.8867,-4.9141,-4.9219,-4.918,-5.0137,-5.0351,-5.0078,-5.0586,-5.041,-4.9766,-4.959,-4.9258,-4.8867,-4.8867,-4.8867,-4.8867,-1.6334,-1.6422,-1.6524,-1.6537,-1.6781,-1.6931,-1.6795,-2.1604,-2.5215,-2.5215,-2.9903,-3.3387,-3.3414,-3.336,-3.312,-3.2599,-3.2011,-3.1797,-3.2078,-3.2131,-3.2385,-3.2946,-3.2746,-3.2866,-3.336,-3.3106,-3.2986,-3.3013,-3.3013,-3.3013,-3.3026,-3.3293,-3.3414,-3.3414,-3.3414,-3.3414,-3.3414,-3.3414,-3.3414,-3.3414,-3.3414,-3.3414,-3.3414,-3.3414,-3.3414,-3.3414,-3.3414,-3.3414,-3.3414,-3.3414,-3.3414,-3.336,-3.304,-3.2933,-3.2933,-3.2906,-3.312,-3.3507,-3.4122,-3.4282,-3.4282,-3.4309,-3.3841,-3.3374,-3.3374,-3.3387,-3.34,-3.3374,-3.3387,-3.3414,-3.3414,-3.3414,-3.3414,-3.3414,-3.36,-3.36,-3.3414,-3.36,-3.36,-3.3414,-3.7855,-4.0947,-4.1139,-4.5961,-4.8867,-4.8867,-4.8867,-4.8867,-4.8867,-4.8867,-4.8867,-4.8867,-4.8867,-4.8867,-4.8867,-4.8867,-4.8867,-4.8867,-4.8867,-4.8867,-4.8867,-4.8906,-4.9121,-4.9492,-4.998,-5.0351,-5.0644,-5.0723,-5.0508,-5.0078,-4.9687,-4.9277,-4.8906,-4.8867,-4.8867,-4.8867,-1.6293,-1.6422,-1.6558,-1.668,-1.6856,-1.6971,-1.6937,-2.1699,-2.5215,-2.5215,-2.9747,-3.316,-3.3387,-3.3013,-3.2679,-3.2559,-3.2011,-3.1797,-3.2078,-3.2318,-3.2612,-3.2959,-3.3133,-3.3173,-3.308,-3.3013,-3.3093,-3.332,-3.332,-3.332,-3.332,-3.3387,-3.3414,-3.3414,-3.3414,-3.3414,-3.3414,-3.3414,-3.3414,-3.3414,-3.3414,-3.3414,-3.3414,-3.3414,-3.3414,-3.3414,-3.3414,-3.3414,-3.3414,-3.3414,-3.3414,-3.332,-3.2799,-3.2639,-3.2599,-3.2358,-3.2666,-3.3213,-3.3814,-3.3975,-3.4042,-3.4269,-3.3694,-3.3066,-3.3066,-3.3253,-3.3347,-3.312,-3.3253,-3.3414,-3.3414,-3.3414,-3.3414,-3.3414,-3.5153,-3.5734,-3.36,-3.5153,-3.5734,-3.36,-3.6115,-3.9026,-4.0963,-4.5773,-4.8867,-4.8867,-4.8867,-4.8867,-4.8867,-4.8867,-4.8867,-4.8867,-4.8867,-4.8867,-4.8867,-4.8867,-4.8867,-4.8867,-4.8867,-4.8867,-4.8867,-4.9219,-4.9238,-4.9043,-4.9844,-4.9844,-4.9336,-5.0019,-5.0058,-4.9648,-4.957,-4.9473,-4.9336,-4.8984,-4.8867,-4.8867,-1.6395,-1.6469,-1.6571,-1.672,-1.6876,-1.6958,-1.6883,-2.1664,-2.5215,-2.5215,-2.9807,-3.324,-3.3387,-3.3146,-3.2906,-3.2759,-3.2211,-3.1944,-3.2091,-3.2118,-3.2251,-3.2545,-3.2706,-3.2786,-3.2772,-3.2772,-3.2839,-3.3,-3.328,-3.3334,-3.3213,-3.3347,-3.3414,-3.3414,-3.3414,-3.3414,-3.3414,-3.3414,-3.3414,-3.3414,-3.3414,-3.3414,-3.3414,-3.3414,-3.3414,-3.3414,-3.3414,-3.3414,-3.3414,-3.3414,-3.3414,-3.3334,-3.2893,-3.2652,-3.2519,-3.2358,-3.2532,-3.2933,-3.3681,-3.3774,-3.3761,-3.4215,-3.3641,-3.2973,-3.2973,-3.3093,-3.316,-3.3013,-3.3213,-3.38,-3.4955,-3.5352,-3.5734,-3.6903,-3.8246,-3.8246,-3.5536,-3.6509,-3.6312,-3.38,-3.5748,-3.8847,-4.2499,-4.5379,-4.7493,-4.8848,-4.8867,-4.8867,-4.8867,-4.8867,-4.8867,-4.8867,-4.8867,-4.8867,-4.8867,-4.8867,-4.8867,-4.8867,-4.8867,-4.8867,-4.8867,-4.9101,-4.9082,-4.8906,-4.957,-4.9609,-4.9238,-5.0117,-5.0098,-4.9551,-4.9766,-4.9707,-4.9492,-4.9258,-4.9316,-4.9492,-1.6517,-1.6544,-1.6612,-1.6761,-1.6897,-1.7147,-1.7425,-2.1818,-2.542,-2.583,-3.0295,-3.3334,-3.3334,-3.3293,-3.3187,-3.3,-3.2492,-3.2185,-3.2185,-3.1957,-3.1931,-3.2171,-3.2185,-3.2265,-3.2465,-3.2519,-3.2545,-3.2545,-3.308,-3.3213,-3.2986,-3.328,-3.3414,-3.3414,-3.3414,-3.3414,-3.3414,-3.3414,-3.3414,-3.3414,-3.3414,-3.3414,-3.3414,-3.3414,-3.3414,-3.3414,-3.3414,-3.3414,-3.3414,-3.3414,-3.3414,-3.336,-3.3066,-3.2786,-3.2532,-3.2492,-3.2465,-3.2652,-3.3507,-3.3534,-3.3467,-3.4028,-3.3534,-3.2893,-3.2839,-3.2866,-3.2893,-3.2839,-3.3106,-3.3919,-3.6239,-3.7055,-3.805,-4.0174,-4.0947,-4.0368,-3.8246,-3.7478,-3.6509,-3.4386,-3.5946,-3.9236,-4.3832,-4.4796,-4.613,-4.8663,-4.8867,-4.8867,-4.8867,-4.8867,-4.8867,-4.8867,-4.8867,-4.8867,-4.8867,-4.8867,-4.8867,-4.8867,-4.8867,-4.8867,-4.8867,-4.8867,-4.8867,-4.8887,-4.9258,-4.9414,-4.9473,-5.0254,-5.0176,-4.957,-4.9922,-4.9844,-4.9512,-4.9433,-4.9687,-5.0058,-1.6497,-1.6625,-1.6768,-1.6924,-1.6965,-1.7804,-2.0247,-2.3137,-2.6035,-2.8495,-3.1164,-3.304,-3.304,-3.2812,-3.2746,-3.2959,-3.2679,-3.2492,-3.2492,-3.2452,-3.2438,-3.2478,-3.2492,-3.2385,-3.2171,-3.2412,-3.2545,-3.2545,-3.2879,-3.3013,-3.2986,-3.328,-3.3414,-3.3414,-3.3414,-3.3414,-3.3414,-3.3414,-3.3414,-3.3414,-3.3414,-3.3414,-3.3414,-3.3414,-3.3414,-3.3414,-3.3414,-3.3414,-3.3414,-3.3414,-3.3414,-3.336,-3.3066,-3.2786,-3.2492,-3.2238,-3.2158,-3.2305,-3.2933,-3.3066,-3.312,-3.3454,-3.3066,-3.2532,-3.2278,-3.2425,-3.2532,-3.2278,-3.2652,-3.3224,-3.3619,-3.5548,-3.7478,-3.7855,-3.9787,-4.1139,-4.0577,-3.8636,-3.7085,-3.6889,-3.7085,-3.8441,-4.1524,-4.3642,-4.613,-4.8663,-4.8867,-4.8867,-4.8867,-4.8867,-4.8867,-4.8867,-4.8867,-4.8867,-4.8867,-4.8867,-4.8867,-4.8867,-4.8867,-4.8867,-4.8867,-4.8867,-4.8867,-4.8867,-4.8926,-4.8945,-4.8984,-4.9492,-4.9629,-4.9531,-4.959,-4.959,-4.9492,-4.9101,-4.9238,-4.9609,-1.651,-1.6646,-1.6795,-1.6951,-1.6978,-1.7391,-1.8634,-2.2545,-2.5625,-2.6853,-3.0637,-3.3213,-3.3213,-3.3106,-3.308,-3.3213,-3.2959,-3.2786,-3.2786,-3.2639,-3.2545,-3.2545,-3.2706,-3.2572,-3.2118,-3.2398,-3.2465,-3.2291,-3.2759,-3.2893,-3.2746,-3.32,-3.3414,-3.3414,-3.3414,-3.3414,-3.3414,-3.3414,-3.3414,-3.3414,-3.3414,-3.3414,-3.3414,-3.3414,-3.3414,-3.3414,-3.3414,-3.3414,-3.3414,-3.3414,-3.3414,-3.3387,-3.3253,-3.2906,-3.2519,-3.2385,-3.2118,-3.1984,-3.2572,-3.2732,-3.2799,-3.3093,-3.2853,-3.2465,-3.2171,-3.2078,-3.2064,-3.2091,-3.2572,-3.3354,-3.4899,-3.629,-3.8246,-4.1139,-4.2482,-4.2863,-4.1348,-4.1332,-4.1139,-3.9593,-3.9399,-4.0561,-4.3054,-4.44,-4.613,-4.8663,-4.8867,-4.8867,-4.8867,-4.8867,-4.8867,-4.8867,-4.8867,-4.8867,-4.8867,-4.8867,-4.8867,-4.8867,-4.8867,-4.8867,-4.8867,-4.8867,-4.8867,-4.8867,-4.8867,-4.8867,-4.8887,-4.9336,-4.9375,-4.918,-4.9433,-4.9531,-4.9531,-4.957,-4.9726,-4.9883]}]]